[[{"header":{"parameterUnit":"m.s-1","parameterCategory":1,"la1":30.6,"la2":28.766,"lo1":-90.7593,"lo2":-88.6598,"dy":0.0162,"dx":0.0183,"nx":116,"ny":114,"refTime":"2023-07-10T12:00:00:Z","depth":0,"parameterNumber":2,"parameterNumberName":"U-component_of_WINDS"},"data":[0.0,0.0,0.0,0.0,0.0,0.0,0.0,0.0,0.0,0.0,0.0,0.0,0.0,0.0,0.0,0.0,0.0,0.0,0.0,0.0,0.0,0.0,0.0,0.0,0.0,0.0,0.0,0.0,0.0,0.0,0.0,0.0,0.0,0.0,0.0,0.0,0.0,0.0,0.0,0.0,0.0,0.0,0.0,0.0,0.0,0.0,0.0,0.0,0.0,0.0,0.0,0.0,0.0,0.0,0.0,0.0,0.0,0.0,0.0,0.0,0.0,0.0,0.0,0.0,0.0,0.0,0.0,0.0,0.0,0.0,0.0,0.0,0.0,0.0,0.0,0.0,0.0,0.0,0.0,0.0,0.0,0.0,0.0,0.0,0.0,0.0,0.0,0.0,0.0,0.0,0.0,0.0,0.0,0.0,0.0,0.0,0.0,0.0,0.0,0.0,0.0,0.0,0.0,0.0,0.0,0.0,0.0,0.0,0.0,0.0,0.0,0.0,0.0,0.0,0.0,0.0,0.0,0.0,0.0,0.0,0.0,0.0,0.0,0.0,0.0,0.0,0.0,0.0,0.0,0.0,0.0,0.0,0.0,0.0,0.0,0.0,0.0,0.0,0.0,0.0,0.0,0.0,0.0,0.0,0.0,0.0,0.0,0.0,0.0,0.0,0.0,0.0,0.0,0.0,0.0,0.0,0.0,0.0,0.0,0.0,0.0,0.0,0.0,0.0,0.0,0.0,0.0,0.0,0.0,0.0,0.0,0.0,0.0,0.0,0.0,0.0,0.0,0.0,0.0,0.0,0.0,0.0,0.0,0.0,0.0,0.0,0.0,0.0,0.0,0.0,0.0,0.0,0.0,0.0,0.0,0.0,0.0,0.0,0.0,0.0,0.0,0.0,0.0,0.0,0.0,0.0,0.0,0.0,0.0,0.0,0.0,0.0,0.0,0.0,0.0,0.0,0.0,0.0,0.0,0.0,0.0,0.0,0.0,0.0,0.0,0.0,0.0,0.0,0.0,0.0,0.0,0.0,0.0,0.0,0.0,0.0,0.0,0.0,0.0,0.0,0.0,0.0,0.0,0.0,0.0,0.0,0.0,0.0,0.0,0.0,0.0,0.0,0.0,0.0,0.0,0.0,0.0,0.0,0.0,0.0,0.0,0.0,0.0,0.0,0.0,0.0,0.0,0.0,0.0,0.0,0.0,0.0,0.0,0.0,0.0,0.0,0.0,0.0,0.0,0.0,0.0,0.0,0.0,0.0,0.0,0.0,0.0,0.0,0.0,0.0,0.0,0.0,0.0,0.0,0.0,0.0,0.0,0.0,0.0,0.0,0.0,0.0,0.0,0.0,0.0,0.0,0.0,0.0,0.0,0.0,0.0,0.0,0.0,0.0,0.0,0.0,0.0,0.0,0.0,0.0,0.0,0.0,0.0,0.0,0.0,0.0,0.0,0.0,0.0,0.0,0.0,0.0,0.0,0.0,0.0,0.0,0.0,0.0,0.0,0.0,0.0,0.0,0.0,0.0,0.0,0.0,0.0,0.0,0.0,0.0,0.0,0.0,0.0,0.0,0.0,0.0,0.0,0.0,0.0,0.0,0.0,0.0,0.0,0.0,0.0,0.0,0.0,0.0,0.0,0.0,0.0,0.0,0.0,0.0,0.0,0.0,0.0,0.0,0.0,0.0,0.0,0.0,0.0,0.0,0.0,0.0,0.0,0.0,0.0,0.0,0.0,0.0,0.0,0.0,0.0,0.0,0.0,0.0,0.0,0.0,0.0,0.0,0.0,0.0,0.0,0.0,0.0,0.0,0.0,0.0,0.0,0.0,0.0,0.0,0.0,0.0,0.0,0.0,0.0,0.0,0.0,0.0,0.0,0.0,0.0,0.0,0.0,0.0,0.0,0.0,0.0,0.0,0.0,0.0,0.0,0.0,0.0,0.0,0.0,0.0,0.0,0.0,0.0,0.0,0.0,0.0,0.0,0.0,0.0,0.0,0.0,0.0,0.0,0.0,0.0,0.0,0.0,0.0,0.0,0.0,0.0,0.0,0.0,0.0,0.0,0.0,0.0,0.0,0.0,0.0,0.0,0.0,0.0,0.0,0.0,0.0,0.0,0.0,0.0,0.0,0.0,0.0,0.0,0.0,0.0,0.0,0.0,0.0,0.0,0.0,0.0,0.0,0.0,0.0,0.0,0.0,0.0,0.0,0.0,0.0,0.0,0.0,0.0,0.0,0.0,0.0,0.0,0.0,0.0,0.0,0.0,0.0,0.0,0.0,0.0,0.0,0.0,0.0,0.0,0.0,0.0,0.0,0.0,0.0,0.0,0.0,0.0,0.0,0.0,0.0,0.0,0.0,0.0,0.0,0.0,0.0,0.0,0.0,0.0,0.0,0.0,0.0,0.0,0.0,0.0,0.0,0.0,0.0,0.0,0.0,0.0,0.0,0.0,0.0,0.0,0.0,0.0,0.0,0.0,0.0,0.0,0.0,0.0,0.0,0.0,0.0,0.0,0.0,0.0,0.0,0.0,0.0,0.0,0.0,0.0,0.0,0.0,0.0,0.0,0.0,0.0,0.0,0.0,0.0,0.0,0.0,0.0,0.0,0.0,0.0,0.0,0.0,0.0,0.0,0.0,0.0,0.0,0.0,0.0,0.0,0.0,0.0,0.0,0.0,0.0,0.0,0.0,0.0,0.0,0.0,0.0,0.0,0.0,0.0,0.0,0.0,0.0,0.0,0.0,0.0,0.0,0.0,0.0,0.0,0.0,0.0,0.0,0.0,0.0,0.0,0.0,0.0,0.0,0.0,0.0,0.0,0.0,0.0,0.0,0.0,0.0,0.0,0.0,0.0,0.0,0.0,0.0,0.0,0.0,0.0,0.0,0.0,0.0,0.0,0.0,0.0,0.0,0.0,0.0,0.0,0.0,0.0,0.0,0.0,0.0,0.0,0.0,0.0,0.0,0.0,0.0,0.0,0.0,0.0,0.0,0.0,0.0,0.0,0.0,0.0,0.0,0.0,0.0,0.0,0.0,0.0,0.0,0.0,0.0,0.0,0.0,0.0,0.0,0.0,0.0,0.0,0.0,0.0,0.0,0.0,0.0,0.0,0.0,0.0,0.0,0.0,0.0,0.0,0.0,0.0,0.0,0.0,0.0,0.0,0.0,0.0,0.0,0.0,0.0,0.0,0.0,0.0,0.0,0.0,0.0,0.0,0.0,0.0,0.0,0.0,0.0,0.0,0.0,0.0,0.0,0.0,0.0,0.0,0.0,0.0,0.0,0.0,0.0,0.0,0.0,0.0,0.0,0.0,0.0,0.0,0.0,0.0,0.0,0.0,0.0,0.0,0.0,0.0,0.0,0.0,0.0,0.0,0.0,0.0,0.0,0.0,0.0,0.0,0.0,0.0,0.0,0.0,0.0,0.0,0.0,0.0,0.0,0.0,0.0,0.0,0.0,0.0,0.0,0.0,0.0,0.0,0.0,0.0,0.0,0.0,0.0,0.0,0.0,0.0,0.0,0.0,0.0,0.0,0.0,0.0,0.0,0.0,0.0,0.0,0.0,0.0,0.0,0.0,0.0,0.0,0.0,0.0,0.0,0.0,0.0,0.0,0.0,0.0,0.0,0.0,0.0,0.0,0.0,0.0,0.0,0.0,0.0,0.0,0.0,0.0,0.0,0.0,0.0,0.0,0.0,0.0,0.0,0.0,0.0,0.0,0.0,0.0,0.0,0.0,0.0,0.0,0.0,0.0,0.0,0.0,0.0,0.0,0.0,0.0,0.0,0.0,0.0,0.0,0.0,0.0,0.0,0.0,0.0,0.0,0.0,0.0,0.0,0.0,0.0,0.0,0.0,0.0,0.0,0.0,0.0,0.0,0.0,0.0,0.0,0.0,0.0,0.0,0.0,0.0,0.0,0.0,0.0,0.0,0.0,0.0,0.0,0.0,0.0,0.0,0.0,0.0,0.0,0.0,0.0,0.0,0.0,0.0,0.0,0.0,0.0,0.0,0.0,0.0,0.0,0.0,0.0,0.0,0.0,0.0,0.0,0.0,0.0,0.0,0.0,0.0,0.0,0.0,0.0,0.0,0.0,0.0,0.0,0.0,0.0,0.0,0.0,0.0,0.0,0.0,0.0,0.0,0.0,0.0,0.0,0.0,0.0,0.0,0.0,0.0,0.0,0.0,0.0,0.0,0.0,0.0,0.0,0.0,0.0,0.0,0.0,0.0,0.0,0.0,0.0,0.0,0.0,0.0,0.0,0.0,0.0,0.0,0.0,0.0,0.0,0.0,0.0,0.0,0.0,0.0,0.0,0.0,0.0,0.0,0.0,0.0,0.0,0.0,0.0,0.0,0.0,0.0,0.0,0.0,0.0,0.0,0.0,0.0,0.0,0.0,0.0,0.0,0.0,0.0,0.0,0.0,0.0,0.0,0.0,0.0,0.0,0.0,0.0,0.0,0.0,0.0,0.0,0.0,0.0,0.0,0.0,0.0,0.0,0.0,0.0,0.0,0.0,0.0,0.0,0.0,0.0,0.0,0.0,0.0,0.0,0.0,0.0,0.0,0.0,0.0,0.0,0.0,0.0,0.0,0.0,0.0,0.0,0.0,0.0,0.0,0.0,0.0,0.0,0.0,0.0,0.0,0.0,0.0,0.0,0.0,0.0,0.0,0.0,0.0,0.0,0.0,0.0,0.0,0.0,0.0,0.0,0.0,0.0,0.0,0.0,0.0,0.0,0.0,0.0,0.0,0.0,0.0,0.0,0.0,0.0,0.0,0.0,0.0,0.0,0.0,0.0,0.0,0.0,0.0,0.0,0.0,0.0,0.0,0.0,0.0,0.0,0.0,0.0,0.0,0.0,0.0,0.0,0.0,0.0,0.0,0.0,0.0,0.0,0.0,0.0,0.0,0.0,0.0,0.0,0.0,0.0,0.0,0.0,0.0,0.0,0.0,0.0,0.0,0.0,0.0,0.0,0.0,0.0,0.0,0.0,0.0,0.0,0.0,0.0,0.0,0.0,0.0,0.0,0.0,0.0,0.0,0.0,0.0,0.0,0.0,0.0,0.0,0.0,0.0,0.0,0.0,0.0,0.0,0.0,0.0,0.0,0.0,0.0,0.0,0.0,0.0,0.0,0.0,0.0,0.0,0.0,0.0,0.0,0.0,0.0,0.0,0.0,0.0,0.0,0.0,0.0,0.0,0.0,0.0,0.0,0.0,0.0,0.0,0.0,0.0,0.0,0.0,0.0,0.0,0.0,0.0,0.0,0.0,0.0,0.0,0.0,0.0,0.0,0.0,0.0,0.0,0.0,0.0,0.0,0.0,0.0,0.0,0.0,0.0,0.0,0.0,0.0,0.0,0.0,0.0,0.0,0.0,0.0,0.0,0.0,0.0,0.0,0.0,0.0,0.0,0.0,0.0,0.0,0.0,0.0,0.0,0.0,0.0,0.0,0.0,0.0,0.0,0.0,0.0,0.0,0.0,0.0,0.0,0.0,0.0,0.0,0.0,0.0,0.0,0.0,0.0,0.0,0.0,0.0,0.0,0.0,0.0,0.0,0.0,0.0,0.0,0.0,0.0,0.0,0.0,0.0,0.0,0.0,0.0,0.0,0.0,0.0,0.0,0.0,0.0,0.0,0.0,0.0,0.0,0.0,0.0,0.0,0.0,0.0,0.0,0.0,0.0,0.0,0.0,0.0,0.0,0.0,0.0,0.0,0.0,0.0,0.0,0.0,0.0,0.0,0.0,0.0,0.0,0.0,0.0,0.0,0.0,0.0,0.0,0.0,0.0,0.0,0.0,0.0,0.0,0.0,0.0,0.0,0.0,0.0,0.0,0.0,0.0,0.0,0.0,0.0,0.0,0.0,0.0,0.0,0.0,0.0,0.0,0.0,0.0,0.0,0.0,0.0,0.0,0.0,0.0,0.0,0.0,0.0,0.0,0.0,0.0,0.0,0.0,0.0,0.0,0.0,0.0,0.0,0.0,0.0,0.0,0.0,0.0,0.0,0.0,0.0,0.0,0.0,0.0,0.0,0.0,0.0,0.0,0.0,0.0,0.0,0.0,0.0,0.0,0.0,0.0,0.0,0.0,0.0,0.0,-0.0999,-0.0982,0.0,0.0,0.0,0.0,0.0,0.0,0.0,0.0,0.0,0.0,0.0,0.0,0.0,0.0,0.0,0.0,0.0,0.0,0.0,0.0,0.0,0.0,0.0,0.0,0.0,0.0,0.0,0.0,0.0,0.0,0.0,0.0,0.0,0.0,0.0,0.0,0.0,0.0,0.0,0.0,0.0,0.0,0.0,0.0,0.0,0.0,0.0,0.0,0.0,0.0,0.0,0.0,0.0,0.0,0.0,0.0,0.0,0.0,0.0,0.0,0.0,0.0,0.0,0.0,0.0,0.0,0.0,0.0,0.0,0.0,0.0,0.0,0.0,0.0,0.0,0.0,0.0,0.0,0.0,0.0,0.0,0.0,0.0,0.0,0.0,0.0,0.0,0.0,0.0,0.0,0.0,0.0,0.0,0.0,0.0,0.0,0.0,0.0,0.0,0.0,0.0,0.0,0.0,0.0,0.0,0.0,0.0,0.0,0.0,0.0,0.0,0.0,0.0,0.0,-0.1056,-0.1039,0.0,0.0,0.0,0.0,0.0,0.0,0.0,0.0,0.0,0.0,0.0,0.0,0.0,0.0,0.0,0.0,0.0,0.0,0.0,0.0,0.0,0.0,0.0,0.0,0.0,0.0,0.0,0.0,0.0,0.0,0.0,0.0,0.0,0.0,0.0,0.0,0.0,0.0,0.0,0.0,0.0,0.0,0.0,0.0,0.0,0.0,0.0,0.0,0.0,0.0,0.0,0.0,0.0,0.0,0.0,0.0,0.0,0.0,0.0,0.0,0.0,0.0,0.0,0.0,0.0,0.0,0.0,0.0,0.0,0.0,0.0,0.0,0.0,0.0,0.0,0.0,0.0,0.0,0.0,0.0,0.0,0.0,0.0,0.0,0.0,0.0,0.0,0.0,0.0,0.0,0.0,0.0,0.0,0.0,0.0,0.0,0.0,0.0,0.0,0.0,0.0,0.0,0.0,0.0,0.0,0.0,0.0,0.0,-0.1067,-0.1084,-0.1108,-0.1108,-0.1138,-0.1187,-0.1137,-0.1123,-0.1136,-0.1125,0.0,0.0,0.0,0.0,0.0,0.0,0.0,0.0,0.0,0.0,0.0,0.0,0.0,0.0,0.0,0.0,0.0,0.0,0.0,0.0,0.0,0.0,0.0,0.0,0.0,0.0,0.0,0.0,0.0,0.0,0.0,0.0,0.0,0.0,0.0,0.0,0.0,0.0,0.0,0.0,0.0,0.0,0.0,0.0,0.0,0.0,0.0,0.0,0.0,0.0,0.0,0.0,0.0,0.0,0.0,0.0,0.0,0.0,0.0,0.0,0.0,0.0,0.0,0.0,0.0,0.0,0.0,0.0,0.0,0.0,0.0,0.0,0.0,0.0,0.0,0.0,0.0,0.0,0.0,0.0,0.0,0.0,0.0,0.0,0.0,0.0,-0.4294,-0.4124,0.0,0.0,0.0,0.0,0.0,0.0,0.0,0.0,0.0,0.0,0.0,0.0,0.0,-0.1076,-0.1103,-0.1156,-0.1171,-0.115,-0.1202,-0.123,-0.131,-0.131,-0.1252,-0.1284,-0.1276,0.0,-0.1196,-0.1142,0.0,0.0,0.0,0.0,0.0,0.0,0.0,0.0,0.0,0.0,0.0,0.0,0.0,0.0,0.0,0.0,0.0,0.0,0.0,0.0,0.0,0.0,0.0,0.0,0.0,0.0,0.0,0.0,0.0,0.0,0.0,0.0,0.0,0.0,0.0,0.0,0.0,0.0,0.0,0.0,0.0,0.0,0.0,0.0,0.0,0.0,0.0,0.0,0.0,0.0,0.0,0.0,0.0,0.0,0.0,0.0,0.0,0.0,0.0,0.0,0.0,0.0,0.0,0.0,0.0,0.0,0.0,0.0,0.0,0.0,0.0,0.0,0.0,0.0,0.0,0.0,0.0,0.0,0.0,0.0,0.0,0.0,0.0,0.0,0.0,-0.4059,-0.4094,-0.35,-0.3432,-0.3059,0.0,0.0,0.0,0.0,0.0,0.0,0.0,0.0,0.0,-0.19,-0.1469,-0.1184,-0.1198,-0.1224,-0.1239,-0.1243,-0.127,-0.1292,-0.1308,-0.1308,-0.1324,-0.1352,-0.1352,-0.1346,-0.133,-0.1236,-0.118,-0.1146,0.0,0.0,0.0,0.0,-0.1094,-0.1112,0.0,0.0,0.0,0.0,0.0,0.0,0.0,0.0,0.0,0.0,0.0,0.0,0.0,0.0,0.0,0.0,0.0,0.0,0.0,0.0,0.0,0.0,0.0,0.0,0.0,0.0,0.0,0.0,0.0,0.0,0.0,0.0,0.0,0.0,0.0,0.0,0.0,0.0,0.0,0.0,0.0,0.0,0.0,0.0,0.0,0.0,0.0,0.0,0.0,0.0,0.0,0.0,0.0,0.0,0.0,0.0,0.0,0.0,0.0,0.0,0.0,0.0,0.0,0.0,0.0,0.0,0.0,0.0,0.0,0.0,0.0,0.0,0.0,0.0,0.0,0.0,0.0,-0.4243,-0.4159,-0.342,-0.3535,-0.3282,0.0,0.0,0.0,0.0,0.0,0.0,-0.2071,-0.1557,-0.1523,-0.2158,-0.1649,-0.1273,-0.128,-0.1295,-0.131,-0.1325,-0.1341,-0.1356,-0.1285,-0.13,-0.1401,-0.1414,-0.1429,-0.144,-0.1439,-0.1335,-0.1273,-0.1241,-0.1188,-0.1162,-0.1156,-0.1156,-0.117,-0.1193,0.0,0.0,0.0,0.0,0.0,0.0,0.0,0.0,0.0,0.0,0.0,0.0,0.0,0.0,0.0,0.0,0.0,0.0,0.0,0.0,0.0,0.0,0.0,0.0,0.0,0.0,0.0,0.0,0.0,0.0,0.0,0.0,0.0,0.0,0.0,0.0,0.0,0.0,0.0,0.0,0.0,0.0,0.0,0.0,0.0,0.0,0.0,0.0,0.0,0.0,0.0,0.0,0.0,0.0,0.0,0.0,0.0,0.0,0.0,0.0,0.0,0.0,0.0,0.0,0.0,0.0,0.0,0.0,0.0,0.0,0.0,0.0,0.0,0.0,0.0,0.0,0.0,0.0,0.0,-0.481,-0.4919,0.0,0.0,0.0,0.0,-0.2233,-0.229,-0.2057,-0.1281,-0.121,-0.1239,-0.1377,-0.1299,-0.1314,-0.1259,-0.1399,-0.1412,-0.1386,-0.1444,-0.1457,-0.1433,-0.1491,-0.1502,-0.1479,-0.1537,-0.153,-0.1473,-0.141,-0.1367,-0.1254,-0.1306,-0.1276,-0.1328,-0.1328,-0.133,-0.1331,0.0,0.0,0.0,0.0,0.0,0.0,0.0,0.0,0.0,0.0,0.0,0.0,0.0,0.0,0.0,0.0,0.0,0.0,0.0,0.0,0.0,0.0,0.0,0.0,0.0,0.0,0.0,0.0,0.0,0.0,0.0,0.0,0.0,0.0,0.0,0.0,0.0,0.0,0.0,0.0,0.0,0.0,0.0,0.0,0.0,0.0,0.0,0.0,0.0,0.0,0.0,0.0,0.0,0.0,0.0,0.0,0.0,0.0,0.0,0.0,0.0,0.0,0.0,0.0,0.0,0.0,0.0,0.0,0.0,0.0,0.0,0.0,0.0,0.0,0.0,0.0,0.0,0.0,0.0,-0.4417,-0.4901,0.0,-0.3577,-0.3299,-0.2778,-0.1701,-0.1817,-0.1927,-0.2105,-0.1584,-0.1632,-0.221,-0.1727,-0.148,-0.1492,-0.1532,-0.1547,-0.1536,-0.1558,-0.1563,-0.1553,-0.1575,-0.1579,-0.1568,-0.157,-0.1581,-0.1593,-0.1532,-0.1466,-0.1403,-0.1393,-0.1382,-0.1371,-0.1371,-0.1384,-0.1401,0.0,0.0,0.0,0.0,0.0,0.0,0.0,0.0,0.0,0.0,0.0,0.0,0.0,0.0,0.0,0.0,0.0,0.0,0.0,0.0,0.0,0.0,0.0,0.0,0.0,0.0,0.0,0.0,0.0,0.0,0.0,0.0,0.0,0.0,0.0,0.0,0.0,0.0,0.0,0.0,0.0,0.0,-1.0241,0.0,0.0,0.0,0.0,0.0,0.0,0.0,0.0,0.0,0.0,0.0,0.0,0.0,0.0,0.0,0.0,0.0,0.0,0.0,0.0,0.0,0.0,0.0,0.0,0.0,0.0,0.0,0.0,0.0,0.0,0.0,0.0,0.0,0.0,-0.5075,-0.5359,-0.4913,-0.5553,-0.5547,-0.4394,-0.4311,-0.3922,-0.2968,-0.2668,-0.2619,-0.2834,-0.1991,-0.1665,-0.2263,-0.1828,-0.1561,-0.1571,-0.1601,-0.1818,-0.2221,-0.183,-0.183,-0.2222,-0.225,-0.2256,-0.2241,-0.2546,-0.2769,-0.2692,-0.2526,-0.2444,-0.2356,-0.1687,-0.1484,-0.1467,-0.1478,-0.1394,-0.1403,0.0,0.0,0.0,0.0,0.0,0.0,0.0,0.0,0.0,0.0,0.0,0.0,0.0,0.0,0.0,0.0,0.0,0.0,0.0,0.0,0.0,0.0,0.0,0.0,0.0,0.0,0.0,0.0,0.0,0.0,0.0,0.0,0.0,0.0,0.0,0.0,0.0,0.0,0.0,0.0,0.0,0.0,-1.1423,0.0,0.0,0.0,0.0,0.0,0.0,0.0,0.0,0.0,0.0,0.0,0.0,0.0,0.0,0.0,0.0,0.0,0.0,0.0,0.0,0.0,0.0,0.0,0.0,0.0,0.0,0.0,0.0,0.0,0.0,0.0,0.0,0.0,-0.5384,-0.5934,-0.6386,-0.643,-0.6943,-0.7132,-0.6883,-0.6883,-0.6643,-0.6076,-0.4991,-0.4047,-0.3521,-0.2315,-0.164,-0.1673,-0.1645,-0.1644,-0.1675,-0.1707,-0.233,-0.3438,-0.2373,-0.2371,-0.3442,-0.3462,-0.3484,-0.3434,-0.4407,-0.4817,-0.4775,-0.435,-0.4245,-0.414,-0.2341,-0.1682,-0.1631,-0.1564,-0.1556,-0.153,0.0,0.0,0.0,0.0,0.0,0.0,0.0,0.0,0.0,0.0,0.0,0.0,0.0,0.0,0.0,0.0,0.0,0.0,0.0,0.0,0.0,0.0,0.0,0.0,0.0,0.0,0.0,0.0,0.0,0.0,0.0,0.0,0.0,0.0,0.0,0.0,0.0,0.0,0.0,0.0,0.0,0.0,-1.2031,0.0,0.0,0.0,0.0,0.0,0.0,0.0,0.0,0.0,0.0,0.0,0.0,0.0,0.0,0.0,0.0,0.0,0.0,0.0,0.0,0.0,0.0,0.0,0.0,0.0,0.0,0.0,0.0,0.0,0.0,0.0,-0.6173,-0.6331,-0.6073,-0.6671,-0.7092,-0.7088,-0.7509,-0.7481,-0.6798,-0.6709,-0.6306,-0.5401,-0.5075,-0.4808,-0.4591,-0.4329,-0.4184,-0.4261,-0.4297,-0.4222,-0.4242,-0.4314,-0.4566,-0.4891,-0.4479,-0.4043,-0.3592,-0.4501,-0.4292,-0.3291,-0.4368,-0.4807,-0.4593,-0.4736,-0.4837,-0.483,-0.3851,-0.3501,-0.3618,-0.3635,-0.247,-0.1414,0.0,0.0,0.0,0.0,0.0,0.0,0.0,0.0,0.0,0.0,0.0,0.0,0.0,0.0,0.0,0.0,0.0,0.0,0.0,0.0,0.0,0.0,0.0,0.0,0.0,0.0,0.0,0.0,0.0,0.0,0.0,0.0,0.0,0.0,0.0,0.0,0.0,0.0,0.0,0.0,0.0,0.0,-1.3347,-1.2685,-1.2191,-1.1784,-1.1168,-1.0962,-1.0923,-0.9946,0.0,0.0,0.0,0.0,0.0,0.0,0.0,0.0,0.0,0.0,0.0,0.0,0.0,0.0,0.0,0.0,0.0,0.0,0.0,0.0,0.0,0.0,0.0,0.0,-0.675,-0.7046,-0.7,-0.7322,-0.7624,-0.7814,-0.8069,-0.8074,-0.7589,-0.7446,-0.722,-0.6626,-0.6182,-0.5865,-0.5891,-0.545,-0.5271,-0.526,-0.5279,-0.5304,-0.5343,-0.4843,-0.488,-0.5361,-0.4359,-0.3804,-0.358,-0.436,-0.425,-0.3582,-0.4873,-0.5548,-0.5926,-0.5927,-0.5929,-0.5834,0.0,0.0,0.0,0.0,-0.4016,-0.2294,0.0,0.0,0.0,0.0,0.0,0.0,0.0,0.0,0.0,0.0,0.0,0.0,0.0,0.0,0.0,0.0,0.0,0.0,0.0,0.0,0.0,0.0,0.0,0.0,0.0,0.0,0.0,0.0,0.0,0.0,0.0,0.0,0.0,0.0,0.0,0.0,0.0,0.0,0.0,0.0,0.0,0.0,-1.485,-1.3808,-1.3507,-1.3453,-1.2444,-1.1939,-1.1523,-1.0869,0.0,0.0,0.0,0.0,0.0,0.0,0.0,0.0,0.0,0.0,0.0,0.0,0.0,0.0,0.0,0.0,0.0,0.0,0.0,0.0,0.0,0.0,0.0,0.0,-0.7268,-0.7756,-0.8072,-0.7997,-0.8058,-0.8462,-0.8509,-0.8567,-0.872,-0.8615,-0.8638,-0.8893,-0.7809,-0.7135,-0.7232,-0.6293,0.0,0.0,0.0,-0.5705,-0.5684,-0.4591,-0.4623,-0.5806,-0.3582,-0.3136,-0.4027,-0.4137,-0.425,-0.4477,-0.571,-0.6839,-0.7853,-0.7391,-0.707,-0.6914,-0.7161,-0.7194,-0.7194,-0.718,-0.5868,-0.3923,0.0,0.0,0.0,0.0,0.0,0.0,0.0,0.0,0.0,0.0,0.0,0.0,0.0,0.0,0.0,0.0,0.0,0.0,0.0,0.0,0.0,0.0,0.0,0.0,0.0,0.0,0.0,0.0,0.0,0.0,0.0,0.0,0.0,0.0,0.0,0.0,0.0,0.0,0.0,0.0,0.0,0.0,-1.4937,-1.471,-1.413,-1.3228,-1.2596,-1.2582,-1.2756,-1.1727,-1.1571,-1.1765,-1.1118,0.0,0.0,0.0,0.0,0.0,0.0,0.0,0.0,0.0,0.0,0.0,0.0,0.0,0.0,0.0,0.0,0.0,0.0,0.0,0.0,-0.7183,-0.7641,-0.8102,-0.8523,-0.8554,-0.857,-0.8655,-0.8665,-0.8726,-0.8879,-0.8869,-0.8825,-0.876,-0.8593,-0.8494,-0.8429,-0.8266,-0.82,-0.8229,-0.82,-0.82,-0.8229,-0.8005,-0.8017,-0.8266,-0.7709,0.0,-0.648,-0.726,-0.6927,-0.5926,-0.6935,-0.7274,-0.7376,-0.7147,-0.7002,-0.7027,-0.7185,-0.7213,-0.7213,-0.7225,-0.68,-0.6179,0.0,0.0,0.0,0.0,0.0,0.0,0.0,0.0,0.0,0.0,0.0,0.0,0.0,0.0,0.0,0.0,0.0,0.0,0.0,0.0,0.0,0.0,0.0,0.0,0.0,0.0,0.0,0.0,0.0,0.0,0.0,0.0,0.0,0.0,0.0,0.0,0.0,0.0,0.0,0.0,0.0,0.0,-1.6821,-1.5595,-1.4724,-1.4109,-1.3678,-1.3535,-1.3401,-1.2713,-1.2493,-1.2537,-1.1967,-1.1206,-1.036,0.0,0.0,0.0,0.0,0.0,0.0,0.0,0.0,0.0,0.0,0.0,0.0,0.0,0.0,-0.6502,-0.6573,0.0,-0.7468,-0.777,-0.8197,-0.8594,-0.8889,-0.8998,-0.9018,-0.894,-0.893,-0.8991,-0.9147,-0.9093,-0.9015,-0.8937,-0.8937,-0.8906,-0.8828,-0.8896,-0.894,-0.894,-0.894,-0.894,-0.894,-0.8269,-0.8045,-0.8045,-0.7263,-0.6594,-0.6035,-0.6371,-0.6262,-0.5824,-0.627,-0.6723,-0.7171,-0.7108,-0.7084,-0.7089,-0.7135,-0.716,-0.7163,-0.721,-0.7152,-0.6983,0.0,0.0,0.0,0.0,0.0,0.0,0.0,0.0,0.0,0.0,0.0,0.0,0.0,0.0,0.0,0.0,0.0,0.0,0.0,0.0,0.0,0.0,0.0,0.0,0.0,0.0,0.0,0.0,0.0,0.0,0.0,0.0,0.0,0.0,0.0,0.0,0.0,0.0,0.0,0.0,0.0,0.0,-1.8574,-1.6501,-1.5564,-1.5226,-1.4624,-1.4142,-1.3598,-1.3372,-1.3115,-1.2775,-1.2449,-1.2031,-1.1413,-1.0587,-1.013,0.0,0.0,0.0,0.0,0.0,0.0,0.0,0.0,-0.6179,-0.6332,-0.6488,-0.6831,-0.7136,-0.7251,-0.7638,-0.8024,-0.8272,-0.8689,-0.9022,-0.9137,-0.9286,-0.9347,-0.9252,-0.9215,-0.9245,-0.9367,-0.9269,-0.9198,-0.9198,-0.9089,-0.9011,-0.8981,-0.8981,-0.8967,-0.894,-0.894,-0.894,-0.894,-0.7934,-0.7376,-0.7374,-0.6146,-0.5588,-0.5477,-0.5258,-0.5375,-0.5826,-0.5826,-0.6279,-0.7187,-0.7179,-0.7176,-0.7176,-0.716,-0.7154,-0.7157,-0.7182,-0.716,-0.7116,0.0,0.0,0.0,0.0,0.0,0.0,0.0,0.0,0.0,0.0,0.0,0.0,0.0,0.0,0.0,0.0,0.0,0.0,0.0,0.0,0.0,0.0,0.0,0.0,0.0,0.0,0.0,0.0,0.0,0.0,0.0,0.0,0.0,0.0,0.0,0.0,0.0,0.0,0.0,0.0,0.0,0.0,-1.8832,-1.7283,-1.6591,-1.614,-1.4513,-1.3619,-1.3203,-1.3173,-1.2978,-1.2784,-1.2922,-1.262,-1.2077,-1.1403,0.0,-1.019,-0.9051,-0.7716,-0.6741,-0.713,-0.6588,-0.6159,0.0,-0.7109,-0.7265,-0.7417,-0.759,-0.7716,-0.7733,-0.8102,-0.8418,-0.8452,-0.8835,-0.9133,-0.915,-0.9286,-0.9425,-0.9544,-0.9439,-0.9361,-0.9381,-0.9364,-0.9354,-0.9354,-0.934,-0.9273,-0.9137,-0.913,-0.9069,-0.8944,-0.894,-0.894,-0.894,-0.8716,-0.8602,-0.8374,-0.8149,-0.7931,-0.7598,-0.7379,-0.7271,-0.7385,-0.7157,-0.7046,-0.716,-0.716,-0.7157,-0.7157,-0.7157,-0.7154,-0.7168,-0.7277,-0.7187,-0.6931,0.0,0.0,0.0,0.0,0.0,0.0,0.0,0.0,0.0,0.0,0.0,0.0,0.0,0.0,0.0,0.0,0.0,0.0,0.0,0.0,0.0,0.0,0.0,0.0,0.0,0.0,0.0,0.0,0.0,0.0,0.0,0.0,0.0,0.0,0.0,0.0,0.0,0.0,0.0,0.0,0.0,0.0,-1.9317,-1.693,-1.5798,-1.5191,-1.3911,-1.2955,0.0,0.0,-1.2222,-1.2294,-1.2566,-1.22,-1.1647,-1.1366,-1.0673,0.0,-0.907,-0.8258,-0.7556,-0.7484,-0.713,-0.6936,-0.7421,-0.7651,-0.7828,-0.8065,-0.837,-0.8591,-0.8591,-0.8818,-0.9005,-0.9005,-0.9239,-0.9418,-0.9418,-0.9473,-0.9503,-0.9479,-0.934,-0.9351,-0.9612,-0.9483,-0.9418,-0.9507,-0.9432,-0.9354,-0.9289,-0.9201,-0.9127,-0.9066,-0.8981,-0.8977,-0.9062,-0.8841,-0.8726,-0.861,-0.827,-0.8006,-0.7715,-0.7493,-0.7379,-0.7379,-0.7265,-0.7154,-0.7154,-0.7154,-0.7154,-0.7154,-0.7154,-0.7154,-0.716,-0.7211,-0.7171,-0.7103,0.0,0.0,0.0,0.0,0.0,0.0,0.0,0.0,0.0,0.0,0.0,0.0,0.0,0.0,0.0,0.0,0.0,0.0,0.0,0.0,0.0,0.0,0.0,0.0,0.0,0.0,0.0,0.0,0.0,0.0,0.0,0.0,0.0,0.0,0.0,0.0,0.0,0.0,0.0,0.0,0.0,0.0,-1.9232,-1.6551,-1.4859,-1.394,-1.2959,-1.2111,0.0,0.0,-1.1329,-1.1528,-1.1787,-1.1576,-1.1159,-1.1024,-1.0362,-0.9511,-0.9066,-0.8613,-0.8166,-0.7911,-0.7716,-0.759,-0.797,-0.8177,-0.837,-0.8669,-0.8954,-0.9154,-0.9154,-0.9211,-0.9273,-0.9313,-0.9445,-0.9547,-0.9547,-0.9547,-0.949,-0.9337,-0.9147,-0.9174,-0.954,-0.9418,-0.9398,-0.9595,-0.9507,-0.9445,-0.9445,-0.93,-0.9215,-0.9215,-0.9072,-0.9069,-0.9101,-0.8837,-0.8587,-0.8474,-0.7981,-0.7691,-0.7493,-0.7268,-0.7154,-0.7154,-0.7154,-0.7173,-0.7203,-0.7203,-0.7203,-0.7203,-0.7203,-0.7184,-0.7154,-0.7154,-0.7154,-0.716,0.0,0.0,0.0,0.0,0.0,0.0,0.0,0.0,0.0,0.0,0.0,0.0,0.0,0.0,0.0,0.0,0.0,0.0,0.0,0.0,0.0,0.0,0.0,0.0,0.0,0.0,0.0,0.0,0.0,0.0,0.0,0.0,0.0,0.0,0.0,0.0,0.0,0.0,0.0,0.0,0.0,0.0,-1.8355,-1.639,-1.4415,-1.2479,-1.1797,0.0,0.0,0.0,-1.0369,-1.0423,-1.0689,-1.0789,0.0,-1.0609,-0.988,-0.9155,-0.9035,-0.8389,-0.7857,-0.8132,-0.7944,-0.7953,-0.8547,-0.8801,-0.8994,-0.9293,-0.9245,-0.9154,-0.9154,-0.9042,-0.8998,-0.9137,-0.9289,-0.9388,-0.9388,-0.9388,-0.9334,-0.9178,-0.8903,-0.8788,-0.895,-0.9083,-0.9286,-0.9588,-0.9605,-0.9602,-0.9602,-0.9456,-0.9374,-0.9374,-0.9225,-0.9104,-0.891,-0.8771,-0.8357,-0.7786,-0.7668,-0.7496,-0.7265,-0.7154,-0.7154,-0.7154,-0.7154,-0.7222,-0.7331,-0.7331,-0.7331,-0.7331,-0.7331,-0.7258,-0.7154,-0.7154,-0.7154,-0.7171,0.0,0.0,0.0,0.0,0.0,0.0,0.0,0.0,0.0,0.0,0.0,0.0,0.0,0.0,0.0,0.0,0.0,0.0,0.0,0.0,0.0,0.0,0.0,0.0,0.0,0.0,0.0,0.0,0.0,0.0,0.0,0.0,0.0,0.0,0.0,0.0,0.0,0.0,0.0,0.0,0.0,0.0,-1.6548,-1.3947,-1.2101,-1.0945,0.0,0.0,0.0,0.0,0.0,0.0,-0.9584,0.0,-0.9435,-0.9248,-0.955,-0.9906,-0.9766,-0.9428,-0.9229,-0.9352,-0.8969,-0.8665,-0.9066,-0.9276,-0.9412,-0.9513,-0.9252,-0.8981,-0.8879,-0.8737,-0.8686,-0.8835,-0.9069,-0.9266,-0.9367,-0.9293,-0.9137,-0.8889,-0.8682,-0.854,-0.8499,-0.8808,-0.9137,-0.9435,-0.9551,-0.9608,-0.9608,-0.9462,-0.9381,-0.9381,-0.9024,-0.883,-0.9049,-0.8445,-0.8147,-0.7913,-0.7477,-0.7268,-0.7154,-0.7154,-0.7154,-0.7154,-0.7154,-0.7222,-0.7331,-0.7249,-0.7263,-0.7328,-0.7247,-0.719,-0.7154,-0.7154,-0.7154,-0.716,0.0,0.0,0.0,0.0,0.0,0.0,0.0,0.0,0.0,0.0,0.0,0.0,0.0,0.0,0.0,0.0,0.0,0.0,0.0,0.0,0.0,0.0,0.0,0.0,0.0,0.0,0.0,0.0,0.0,0.0,0.0,0.0,0.0,0.0,0.0,0.0,0.0,0.0,0.0,0.0,0.0,0.0,-1.5268,-1.2479,-1.1057,0.0,0.0,0.0,0.0,0.0,0.0,0.0,0.0,-0.8804,-0.8811,-0.8975,-0.973,-1.0517,-1.0601,-1.0711,-1.0637,-1.0234,-0.9846,-0.955,-0.9356,-0.9374,-0.9432,-0.9381,-0.9052,-0.8713,-0.8509,-0.8303,-0.8231,-0.8438,-0.8632,-0.8845,-0.9106,-0.9008,-0.8862,-0.8726,-0.8574,-0.8445,-0.8357,-0.8655,-0.8957,-0.9205,-0.9412,-0.953,-0.953,-0.9435,-0.9405,-0.9339,-0.8824,-0.8628,-0.8763,-0.823,-0.789,-0.7726,-0.734,-0.7154,-0.7154,-0.7154,-0.7154,-0.7154,-0.7154,-0.7222,-0.7331,-0.7252,-0.7266,-0.7328,-0.7249,-0.7192,-0.7154,-0.7154,-0.7154,-0.7154,0.0,0.0,0.0,0.0,0.0,0.0,0.0,0.0,0.0,0.0,0.0,0.0,0.0,0.0,0.0,0.0,0.0,0.0,0.0,0.0,0.0,0.0,0.0,0.0,0.0,0.0,0.0,0.0,0.0,0.0,0.0,0.0,0.0,0.0,0.0,0.0,0.0,0.0,0.0,0.0,0.0,0.0,-1.4489,-1.2136,0.0,0.0,0.0,0.0,0.0,0.0,0.0,0.0,-0.8369,-0.8733,-0.9245,-0.9873,-1.0447,-1.0939,-1.169,-1.2052,-1.2157,-1.0927,-1.0666,-1.0508,-0.9444,-0.9253,-0.9096,-0.8937,-0.8648,-0.8336,-0.8038,-0.776,-0.7675,-0.797,-0.8041,-0.8214,-0.8659,-0.8598,-0.8557,-0.8696,-0.8581,-0.8489,-0.8482,-0.8621,-0.8771,-0.8916,-0.9201,-0.9371,-0.9381,-0.9374,-0.9319,-0.9103,-0.8836,-0.8487,-0.8173,-0.7916,-0.7613,-0.7165,-0.7157,-0.7154,-0.7154,-0.7154,-0.7154,-0.7154,-0.7154,-0.7222,-0.7336,-0.7328,-0.7331,-0.7336,-0.7328,-0.7255,-0.7154,-0.7154,-0.7154,-0.7154,0.0,0.0,0.0,0.0,0.0,0.0,0.0,0.0,0.0,0.0,0.0,0.0,0.0,0.0,0.0,0.0,0.0,0.0,0.0,0.0,0.0,0.0,0.0,0.0,0.0,0.0,0.0,0.0,0.0,0.0,0.0,0.0,0.0,0.0,0.0,0.0,0.0,0.0,0.0,0.0,0.0,0.0,-1.2836,0.0,0.0,0.0,0.0,0.0,0.0,0.0,0.0,0.0,-0.933,-0.987,-1.051,-1.1134,-1.1937,-1.2767,-1.3564,-1.3568,-1.3402,-1.323,-1.206,-1.0739,-1.0433,-0.965,-0.8889,-0.8516,-0.8021,-0.7563,-0.7268,-0.7238,-0.7356,-0.7662,-0.8082,-0.8489,-0.8832,-0.8849,-0.8794,-0.872,-0.8676,-0.8608,-0.8492,-0.8621,-0.8726,-0.8764,-0.9042,-0.9259,-0.9374,-0.9273,-0.9164,-0.8965,-0.8464,-0.816,-0.8173,-0.7687,-0.7434,-0.7288,-0.7198,-0.7154,-0.7154,-0.7154,-0.7154,-0.7154,-0.7154,-0.7222,-0.7328,-0.7239,-0.7252,-0.7328,-0.7236,-0.7182,-0.7154,-0.7154,-0.7154,-0.7154,0.0,0.0,0.0,0.0,0.0,0.0,0.0,0.0,0.0,0.0,0.0,0.0,0.0,0.0,0.0,0.0,0.0,0.0,0.0,0.0,0.0,0.0,0.0,0.0,0.0,0.0,0.0,0.0,0.0,0.0,0.0,0.0,0.0,0.0,0.0,0.0,0.0,0.0,0.0,0.0,0.0,0.0,0.0,0.0,0.0,0.0,0.0,0.0,0.0,0.0,0.0,-0.991,-1.026,-1.0795,-1.1505,-1.2318,-1.2694,-1.3087,-1.3913,-1.3669,-1.3123,-1.2714,-1.1678,-1.0538,-0.9858,-0.9009,-0.8381,-0.7801,-0.7414,-0.7065,-0.6702,-0.6807,-0.7044,-0.735,-0.779,-0.8245,-0.8676,-0.8737,-0.8757,-0.8804,-0.8811,-0.8777,-0.8693,-0.876,-0.8838,-0.8899,-0.9059,-0.9164,-0.9188,-0.9114,-0.8948,-0.8687,-0.813,-0.7873,-0.7806,-0.7437,-0.7255,-0.7255,-0.7187,-0.7154,-0.7154,-0.7154,-0.7154,-0.7154,-0.7154,-0.7192,-0.7249,-0.7182,-0.7195,-0.7249,-0.7182,-0.7154,-0.7154,-0.7154,-0.7154,-0.7154,0.0,0.0,0.0,0.0,0.0,0.0,0.0,0.0,0.0,0.0,0.0,0.0,0.0,0.0,0.0,0.0,0.0,0.0,0.0,0.0,0.0,0.0,0.0,0.0,0.0,0.0,0.0,0.0,0.0,0.0,0.0,0.0,0.0,0.0,0.0,0.0,0.0,0.0,0.0,0.0,0.0,0.0,0.0,0.0,0.0,0.0,0.0,0.0,0.0,0.0,-1.0236,-1.0611,-1.126,-1.1799,-1.2514,-1.3495,-1.329,-1.2934,-1.3669,-1.3245,-1.2309,-1.1219,-1.0741,-1.0079,-0.8816,-0.8175,-0.7719,-0.7014,-0.6837,-0.6692,-0.6302,-0.6471,-0.678,-0.7115,-0.7428,-0.7834,-0.8428,-0.8513,-0.8618,-0.8906,-0.894,-0.894,-0.894,-0.894,-0.8991,-0.9117,-0.9123,-0.9079,-0.886,-0.8853,-0.863,-0.8286,-0.7973,-0.763,-0.7157,-0.7154,-0.7154,-0.7154,-0.7154,-0.7154,-0.7154,-0.7154,-0.7154,-0.7154,-0.7154,-0.7154,-0.7154,-0.7154,-0.7154,-0.7154,-0.7154,-0.7154,-0.7154,-0.7154,-0.7154,-0.7154,0.0,0.0,0.0,0.0,0.0,0.0,0.0,0.0,0.0,0.0,0.0,0.0,0.0,0.0,0.0,0.0,0.0,0.0,0.0,0.0,0.0,0.0,0.0,0.0,0.0,0.0,0.0,0.0,0.0,0.0,0.0,0.0,0.0,0.0,0.0,0.0,0.0,0.0,0.0,0.0,0.0,0.0,0.0,0.0,0.0,0.0,0.0,0.0,0.0,0.0,-1.0943,-1.1787,-1.2511,-1.3267,-1.398,-1.4616,-1.488,-1.485,-1.4232,-1.4024,-1.3619,-1.2417,-1.1176,-1.0099,-0.9646,-0.8332,0.0,-0.6654,-0.6356,-0.6162,-0.6084,-0.6312,-0.6692,-0.7241,-0.758,-0.7984,-0.8587,-0.8669,-0.8737,-0.8916,-0.894,-0.894,-0.894,-0.894,-0.895,-0.8974,-0.8749,-0.8677,-0.8775,-0.8601,-0.8339,-0.7785,-0.7623,-0.7495,-0.7157,-0.7154,-0.7154,-0.7154,-0.7154,-0.7154,-0.7154,-0.7154,-0.7154,-0.7154,-0.7154,-0.7154,-0.7154,-0.7154,-0.7154,-0.7154,-0.7154,-0.7154,-0.7154,-0.7154,-0.7154,-0.7154,0.0,0.0,0.0,0.0,0.0,0.0,0.0,0.0,0.0,0.0,0.0,0.0,0.0,0.0,0.0,0.0,0.0,0.0,0.0,0.0,0.0,0.0,0.0,0.0,0.0,0.0,-1.3821,-1.3716,0.0,0.0,0.0,-1.248,0.0,0.0,0.0,0.0,0.0,0.0,0.0,0.0,0.0,0.0,0.0,0.0,0.0,0.0,0.0,0.0,0.0,0.0,-1.0673,-1.1534,-1.2898,-1.3773,-1.4304,-1.4228,-1.3837,-1.3268,-1.2548,-1.1878,-1.1311,-1.067,-0.9781,-0.8929,-0.8521,0.0,0.0,-0.6122,-0.5959,-0.5888,-0.5817,-0.6169,-0.6593,-0.6963,-0.7336,-0.7794,-0.8397,-0.8482,-0.8594,-0.8903,-0.894,-0.894,-0.894,-0.894,-0.894,-0.894,-0.8598,-0.8513,-0.8584,-0.8255,-0.7954,-0.7575,-0.7396,-0.7336,-0.7157,-0.7154,-0.7154,-0.7154,-0.7154,-0.7154,-0.7154,-0.7154,-0.7154,-0.7154,-0.7154,-0.7154,-0.7154,-0.7154,-0.7154,-0.7154,-0.7154,-0.7154,-0.7154,-0.7154,-0.7154,-0.7154,0.0,0.0,0.0,0.0,0.0,0.0,0.0,0.0,0.0,0.0,0.0,0.0,0.0,0.0,0.0,0.0,0.0,0.0,0.0,0.0,0.0,0.0,0.0,0.0,0.0,0.0,0.0,-1.3915,-1.3306,0.0,0.0,0.0,0.0,0.0,-1.2126,0.0,0.0,0.0,0.0,0.0,0.0,0.0,0.0,0.0,0.0,0.0,0.0,0.0,0.0,0.0,-1.0104,-1.0749,-1.2397,-1.3435,-1.385,-1.3221,-1.2567,-1.1761,-1.0849,-0.9998,-0.9226,-0.8747,-0.8347,-0.7841,-0.7272,-0.6746,0.0,-0.5698,-0.565,-0.5691,-0.5644,-0.6017,-0.641,0.0,-0.6997,-0.7448,-0.8082,-0.8201,-0.8387,-0.8835,-0.892,-0.894,-0.894,-0.894,-0.8826,-0.8826,-0.8491,-0.8263,-0.8263,-0.7945,-0.7595,-0.744,-0.7372,-0.7277,-0.7157,-0.7154,-0.7154,-0.7154,-0.7154,-0.7154,-0.7154,-0.7154,-0.7154,-0.7154,-0.7154,-0.7154,-0.7154,-0.7154,-0.7154,-0.7154,-0.7154,-0.7154,-0.7157,-0.7184,-0.7192,-0.7192,0.0,0.0,0.0,0.0,0.0,0.0,0.0,0.0,0.0,0.0,0.0,0.0,0.0,0.0,0.0,0.0,0.0,0.0,0.0,0.0,0.0,0.0,0.0,0.0,0.0,0.0,0.0,-1.3621,-1.3467,0.0,0.0,0.0,0.0,0.0,0.0,-1.2026,-1.1877,0.0,0.0,0.0,0.0,0.0,0.0,0.0,0.0,0.0,0.0,0.0,0.0,0.0,0.0,-0.979,-1.0689,-1.1855,-1.2837,-1.2183,0.0,0.0,-1.0916,-1.0558,-1.0198,-0.896,-0.8269,-0.7709,-0.7244,0.0,-0.5979,-0.5657,-0.5491,-0.5481,-0.5735,-0.5827,-0.6047,-0.661,0.0,-0.7017,-0.775,-0.7974,-0.8228,-0.8679,-0.8855,-0.894,-0.894,-0.894,-0.8826,-0.8598,-0.8048,-0.7718,-0.7718,-0.7497,-0.729,-0.719,-0.7285,-0.7277,-0.7157,-0.7154,-0.7154,-0.7154,-0.7154,-0.7154,-0.7154,-0.7154,-0.7154,-0.7154,-0.7154,-0.7154,-0.7154,-0.7154,-0.7154,-0.7154,-0.7154,-0.7154,-0.7168,-0.7279,-0.7317,-0.7317,0.0,0.0,0.0,0.0,0.0,0.0,0.0,0.0,0.0,0.0,0.0,0.0,0.0,0.0,0.0,0.0,0.0,0.0,0.0,0.0,0.0,0.0,0.0,0.0,0.0,0.0,-1.3811,-1.3584,-1.3476,0.0,0.0,0.0,0.0,0.0,0.0,-1.1977,-1.1778,-1.1728,0.0,0.0,0.0,0.0,0.0,0.0,0.0,0.0,0.0,0.0,-0.8788,0.0,0.0,0.0,-0.9436,-0.9944,0.0,0.0,-1.0791,-1.0881,-0.96,-0.9352,-0.9257,-0.8584,-0.7991,-0.7428,-0.698,0.0,-0.581,-0.5511,-0.5403,-0.5426,-0.5637,-0.5742,-0.5911,0.0,0.0,0.0,-0.7316,-0.7458,-0.7763,-0.8486,-0.8625,-0.8737,-0.892,-0.894,-0.8826,-0.8484,-0.8266,-0.7934,-0.7607,-0.7427,-0.7239,-0.7263,-0.7239,-0.7203,-0.7154,-0.7154,-0.7154,-0.7154,-0.7154,-0.7154,-0.7154,-0.7154,-0.7154,-0.7154,-0.7154,-0.7154,-0.7149,-0.7081,-0.7092,-0.7146,-0.7081,-0.7054,-0.7067,-0.7184,-0.7184,-0.7146,0.0,0.0,0.0,0.0,0.0,0.0,0.0,0.0,0.0,0.0,0.0,0.0,0.0,0.0,0.0,0.0,0.0,0.0,0.0,0.0,0.0,0.0,0.0,0.0,0.0,0.0,-1.3477,-1.3386,-1.3248,-1.3097,0.0,0.0,-1.2323,-1.2076,0.0,0.0,0.0,0.0,0.0,0.0,0.0,0.0,0.0,0.0,0.0,0.0,0.0,0.0,0.0,0.0,0.0,0.0,0.0,0.0,0.0,0.0,-0.9319,-0.933,-0.8574,-0.8419,-0.8384,-0.8238,-0.775,-0.7187,0.0,0.0,-0.5667,-0.5413,-0.5466,-0.546,-0.5569,-0.5742,-0.5905,0.0,0.0,-0.6485,-0.6946,-0.7085,-0.7407,-0.8133,-0.8258,-0.8421,-0.8771,-0.8773,-0.8712,-0.8484,-0.8374,-0.8156,-0.7718,-0.749,-0.7418,-0.7279,-0.7198,-0.7154,-0.7154,-0.7154,-0.7154,-0.7154,-0.7154,-0.7154,-0.7154,-0.7154,-0.7154,-0.7154,-0.7154,-0.7135,-0.71,-0.7054,-0.7043,-0.7046,-0.7002,-0.6961,-0.6948,-0.71,-0.7127,-0.7114,0.0,0.0,0.0,0.0,0.0,0.0,0.0,0.0,0.0,0.0,0.0,0.0,0.0,0.0,0.0,0.0,0.0,0.0,0.0,0.0,0.0,0.0,0.0,0.0,0.0,0.0,0.0,-1.2927,-1.2781,-1.2656,-1.248,-1.2382,-1.2224,-1.2076,0.0,0.0,0.0,0.0,0.0,0.0,0.0,0.0,0.0,0.0,0.0,0.0,0.0,0.0,0.0,0.0,0.0,0.0,0.0,0.0,0.0,0.0,-0.8336,-0.8452,-0.798,-0.8126,-0.8235,-0.8079,-0.7587,-0.7027,0.0,0.0,-0.5549,-0.5459,-0.5484,-0.5589,-0.5589,-0.583,-0.6027,-0.603,0.0,0.0,-0.6681,-0.6956,-0.7258,-0.757,-0.7733,-0.7994,-0.8442,-0.8537,-0.8484,-0.8484,-0.8156,-0.8045,-0.8045,-0.8045,-0.7712,-0.7268,-0.7154,-0.7154,-0.7154,-0.7154,-0.7154,-0.7154,-0.7154,-0.7154,-0.7154,-0.7154,-0.7154,-0.7154,-0.7154,-0.7092,-0.6994,-0.7105,-0.7016,-0.6817,-0.694,-0.691,-0.6834,-0.7067,-0.723,-0.7334,0.0,0.0,0.0,0.0,0.0,0.0,0.0,0.0,0.0,0.0,0.0,0.0,0.0,0.0,0.0,0.0,0.0,0.0,0.0,0.0,0.0,0.0,0.0,0.0,0.0,0.0,0.0,0.0,0.0,-1.2795,-1.2832,-1.2764,-1.2529,-1.2224,-1.2076,-1.1927,0.0,0.0,0.0,0.0,0.0,0.0,-0.9361,0.0,0.0,0.0,0.0,0.0,0.0,0.0,0.0,0.0,0.0,0.0,0.0,0.0,0.0,0.0,-0.7134,-0.7107,-0.7232,-0.7112,-0.6749,-0.6342,-0.6203,0.0,-0.5545,-0.5459,-0.5466,-0.5464,-0.5569,-0.5745,-0.5908,-0.6013,0.0,0.0,0.0,-0.6953,-0.7329,-0.7841,-0.8303,-0.8638,-0.8781,-0.8769,-0.8823,-0.8823,-0.8716,-0.8491,-0.8374,-0.8374,-0.8045,-0.7493,-0.7493,-0.7379,-0.7154,-0.7154,-0.7154,-0.7154,-0.7154,-0.7154,-0.7154,-0.7154,-0.7154,-0.7154,-0.7154,-0.7089,-0.6989,-0.7024,-0.6994,-0.6931,-0.697,-0.701,-0.7051,-0.7127,-0.7179,-0.7236,0.0,0.0,0.0,0.0,0.0,0.0,0.0,0.0,0.0,0.0,0.0,0.0,0.0,0.0,0.0,0.0,0.0,0.0,0.0,0.0,0.0,0.0,0.0,0.0,0.0,0.0,0.0,0.0,0.0,0.0,0.0,-1.2715,-1.2529,-1.2224,-1.2076,-1.1877,0.0,0.0,0.0,0.0,0.0,0.0,-0.9211,0.0,0.0,0.0,0.0,0.0,0.0,0.0,0.0,0.0,0.0,0.0,0.0,0.0,-0.6647,-0.6668,0.0,-0.6531,-0.6585,-0.6575,-0.6234,0.0,0.0,0.0,0.0,0.0,0.0,0.0,0.0,-0.5803,-0.5986,-0.6023,-0.6325,-0.6573,-0.661,-0.697,-0.7407,-0.7896,-0.8435,-0.8767,-0.8767,-0.8869,-0.894,-0.894,-0.894,-0.8826,-0.8709,-0.8598,-0.838,-0.7937,-0.7826,-0.7712,-0.7487,-0.7487,-0.7487,-0.7487,-0.7487,-0.7487,-0.7487,-0.7487,-0.7487,-0.749,-0.7541,-0.7465,0.0,-0.7359,-0.7294,-0.7172,-0.722,-0.7285,-0.7362,-0.7456,-0.7519,-0.759,0.0,0.0,0.0,0.0,0.0,0.0,0.0,0.0,0.0,0.0,0.0,0.0,0.0,0.0,0.0,0.0,0.0,0.0,0.0,0.0,0.0,0.0,0.0,0.0,0.0,0.0,0.0,-1.2007,-1.18,-1.2031,-1.2676,0.0,0.0,-1.2126,-1.1977,-1.1828,0.0,0.0,0.0,0.0,0.0,0.0,0.0,0.0,0.0,0.0,0.0,0.0,0.0,0.0,0.0,0.0,0.0,0.0,0.0,0.0,0.0,0.0,0.0,-0.6239,-0.6303,-0.6377,-0.6117,0.0,0.0,0.0,0.0,0.0,0.0,0.0,0.0,0.0,0.0,-0.6054,-0.64,-0.6637,-0.6508,-0.7024,-0.7526,-0.7811,-0.8241,-0.8506,-0.8482,-0.876,-0.894,-0.894,-0.894,-0.894,-0.894,-0.894,-0.8826,-0.8484,-0.8266,-0.8045,-0.8045,-0.8045,-0.8045,-0.8045,-0.8045,-0.8045,-0.8045,-0.8045,-0.8045,-0.8054,-0.8182,-0.8088,-0.7852,-0.799,-0.7819,-0.7486,-0.7623,-0.769,-0.7736,-0.7962,-0.8146,-0.8298,0.0,0.0,0.0,0.0,0.0,0.0,0.0,0.0,0.0,0.0,0.0,0.0,0.0,0.0,0.0,0.0,0.0,0.0,0.0,0.0,0.0,0.0,0.0,0.0,0.0,0.0,0.0,-1.2007,-1.1636,-1.1895,-1.2676,-1.2529,0.0,0.0,0.0,0.0,0.0,0.0,0.0,0.0,0.0,0.0,0.0,0.0,0.0,0.0,-0.8474,-0.8421,0.0,0.0,0.0,0.0,0.0,0.0,0.0,0.0,-0.6102,-0.6052,-0.5955,0.0,-0.5984,-0.5866,-0.5628,-0.5522,0.0,0.0,0.0,0.0,0.0,0.0,0.0,0.0,0.0,-0.6034,-0.6308,-0.6556,-0.6634,-0.736,-0.7953,-0.814,-0.856,-0.874,-0.8506,-0.876,-0.894,-0.894,-0.894,-0.894,-0.894,-0.894,-0.8826,-0.8826,-0.8716,-0.8491,-0.8045,-0.8045,-0.8045,-0.8045,-0.8045,-0.8045,-0.8045,-0.8045,-0.8045,-0.8048,-0.8081,-0.7996,-0.7852,-0.799,-0.7926,-0.7761,-0.7898,-0.8075,-0.8237,-0.8097,-0.8262,-0.8546,0.0,0.0,0.0,0.0,0.0,0.0,0.0,0.0,0.0,0.0,0.0,0.0,0.0,0.0,0.0,0.0,0.0,0.0,0.0,0.0,0.0,0.0,0.0,0.0,0.0,0.0,0.0,0.0,0.0,-1.1666,0.0,0.0,0.0,0.0,0.0,0.0,0.0,0.0,0.0,0.0,-0.9666,0.0,0.0,0.0,0.0,0.0,-0.8256,-0.799,0.0,-0.7408,-0.7192,-0.6966,0.0,0.0,0.0,0.0,-0.6034,-0.6076,-0.5961,-0.5821,-0.5663,-0.5713,-0.5645,-0.5559,0.0,0.0,0.0,0.0,0.0,0.0,0.0,0.0,0.0,-0.621,-0.6427,-0.6702,-0.7061,-0.7529,-0.797,-0.8326,-0.8581,-0.872,-0.8696,-0.8842,-0.894,-0.894,-0.894,-0.894,-0.894,-0.894,-0.894,-0.894,-0.894,-0.8716,-0.838,-0.838,-0.838,-0.838,-0.838,-0.838,-0.8383,-0.8555,-0.8584,-0.8591,-0.8726,-0.8665,-0.8475,-0.8552,-0.8462,-0.8291,-0.8323,-0.8507,-0.8807,-0.8791,-0.8887,-0.9036,0.0,0.0,0.0,0.0,0.0,0.0,0.0,0.0,0.0,0.0,0.0,0.0,0.0,0.0,0.0,0.0,0.0,0.0,0.0,0.0,0.0,0.0,0.0,0.0,0.0,0.0,0.0,0.0,0.0,0.0,0.0,0.0,-1.2076,0.0,0.0,0.0,0.0,0.0,-1.0095,-0.9614,-0.9458,0.0,0.0,0.0,0.0,0.0,0.0,0.0,0.0,-0.7085,-0.6918,-0.6701,-0.6701,0.0,0.0,0.0,0.0,0.0,-0.6103,-0.5831,-0.5569,-0.5915,-0.5871,-0.5781,0.0,0.0,0.0,0.0,0.0,0.0,0.0,-0.6064,0.0,-0.651,-0.6723,-0.698,-0.7584,-0.7689,-0.7896,-0.8421,-0.8523,-0.8635,-0.8849,-0.891,-0.894,-0.894,-0.894,-0.894,-0.894,-0.894,-0.894,-0.894,-0.894,-0.894,-0.894,-0.894,-0.894,-0.894,-0.894,-0.895,-0.8977,-0.9096,-0.9154,-0.9167,-0.9425,-0.9381,-0.912,-0.912,-0.8971,-0.8757,-0.8889,-0.9025,-0.9184,-0.9445,-0.9473,-0.9415,0.0,0.0,0.0,0.0,0.0,0.0,0.0,0.0,0.0,0.0,0.0,0.0,0.0,0.0,0.0,0.0,0.0,0.0,0.0,0.0,0.0,0.0,0.0,0.0,0.0,0.0,0.0,0.0,0.0,0.0,-1.2274,-1.2175,-1.2076,-1.2076,0.0,-1.1267,-1.082,-1.0403,-0.9991,-0.9614,-0.9562,0.0,0.0,0.0,0.0,0.0,0.0,0.0,0.0,-0.7085,-0.6918,-0.6701,-0.6701,0.0,0.0,0.0,0.0,0.0,-0.6234,-0.6143,-0.6046,-0.6286,-0.6244,-0.609,-0.6131,0.0,0.0,0.0,0.0,0.0,0.0,-0.6374,-0.6585,-0.669,-0.7073,-0.7472,-0.7889,-0.8085,-0.8245,-0.8459,-0.871,-0.8784,-0.8574,-0.8784,-0.894,-0.894,-0.894,-0.894,-0.894,-0.894,-0.894,-0.894,-0.894,-0.894,-0.894,-0.894,-0.894,-0.894,-0.894,-0.9001,-0.912,-0.9144,-0.9154,-0.9154,-0.9201,-0.9127,-0.8971,-0.8971,-0.8944,-0.8906,-0.893,-0.9025,-0.9157,-0.9205,-0.9289,-0.9388,0.0,0.0,0.0,0.0,0.0,0.0,0.0,0.0,0.0,0.0,0.0,0.0,0.0,0.0,0.0,0.0,0.0,0.0,0.0,0.0,0.0,0.0,0.0,0.0,0.0,0.0,0.0,0.0,0.0,-1.1602,-1.2175,-1.2126,-1.2026,-1.1877,0.0,-1.1074,-1.0667,-1.0205,-0.9836,-0.9614,0.0,0.0,0.0,0.0,0.0,0.0,0.0,0.0,0.0,0.0,-0.6652,-0.6544,-0.644,0.0,0.0,0.0,0.0,0.0,-0.6181,-0.6267,-0.6311,-0.6459,-0.6408,-0.6304,-0.6187,0.0,0.0,0.0,0.0,0.0,0.0,0.0,-0.6827,-0.7069,-0.7986,-0.8445,-0.7976,-0.8641,-0.8936,-0.856,-0.8608,-0.8703,-0.8726,-0.9395,-0.9588,-0.8937,-0.9482,-0.9588,-0.8937,-0.894,-0.8899,-0.8818,-0.8896,-0.8899,-0.8815,-0.8896,-0.894,-0.894,-0.894,-0.8974,-0.9042,-0.9117,-0.9154,-0.9157,-0.9242,-0.9191,-0.9049,-0.8971,-0.8889,-0.8815,-0.8815,-0.8906,-0.9055,-0.9218,-0.9269,-0.9259,0.0,0.0,0.0,0.0,0.0,0.0,0.0,0.0,0.0,0.0,0.0,0.0,0.0,0.0,0.0,0.0,0.0,0.0,0.0,0.0,0.0,0.0,0.0,0.0,0.0,0.0,-1.1223,-1.1704,-1.1573,-1.1691,-1.2076,-1.2076,-1.1977,0.0,0.0,-1.0871,-1.047,-0.9947,-0.9681,-0.9614,0.0,0.0,0.0,0.0,0.0,0.0,0.0,0.0,0.0,0.0,0.0,0.0,0.0,0.0,0.0,-0.6178,-0.6119,-0.6069,-0.6179,-0.6342,-0.6466,-0.6546,0.0,-0.6448,-0.6439,0.0,0.0,0.0,0.0,0.0,0.0,-0.7016,-0.734,-0.8001,-0.9051,-0.9449,-0.8594,-0.9514,-1.0018,-0.9079,-0.9217,-0.9526,-0.9677,-1.0566,-1.0676,-0.9809,-1.0351,-1.0347,-0.9372,-0.9013,-0.8832,-0.8713,-0.8791,-0.8794,-0.871,-0.8825,-0.8903,-0.894,-0.894,-0.894,-0.8944,-0.9052,-0.9083,-0.9055,-0.9174,-0.9137,-0.8988,-0.8879,-0.8784,-0.871,-0.871,-0.8804,-0.8967,-0.9195,-0.9181,-0.9052,0.0,0.0,0.0,0.0,0.0,0.0,0.0,0.0,0.0,0.0,0.0,0.0,0.0,0.0,0.0,0.0,0.0,0.0,0.0,0.0,0.0,0.0,0.0,0.0,0.0,-1.1551,-1.148,-1.208,-1.1663,-1.1691,-1.2076,-1.2076,-1.1977,-1.1678,0.0,-1.0769,-1.0462,-0.988,-0.9614,-0.9614,-0.9614,0.0,0.0,0.0,0.0,0.0,0.0,0.0,0.0,0.0,0.0,0.0,0.0,0.0,-0.6178,-0.6178,-0.6178,-0.622,-0.6299,-0.6443,-0.6547,-0.6384,0.0,0.0,-0.7049,-0.6766,0.0,-0.7157,0.0,0.0,0.0,-0.7525,-0.8381,-0.9821,-1.0288,-1.0367,-1.027,-1.1292,-1.169,-1.0611,-1.1502,-1.2167,-1.2195,-1.22,-1.22,-1.22,-1.1214,-1.0672,-1.0562,-0.9338,-0.872,-0.871,-0.8584,-0.8577,-0.871,-0.872,-0.8798,-0.894,-0.894,-0.894,-0.894,-0.895,-0.8876,-0.8743,-0.8754,-0.8672,-0.853,-0.852,-0.8591,-0.871,-0.871,-0.8804,-0.894,-0.8964,-0.8872,-0.8764,0.0,0.0,0.0,0.0,0.0,0.0,0.0,0.0,0.0,0.0,0.0,0.0,0.0,0.0,0.0,0.0,0.0,0.0,0.0,0.0,0.0,0.0,0.0,-1.2396,-1.2655,-1.1864,-1.1649,-1.2076,-1.1929,-1.1929,-1.2076,-1.2076,0.0,0.0,0.0,-1.0667,-1.0308,-0.9829,-0.9614,-0.9614,-0.9614,-0.9406,0.0,0.0,0.0,0.0,0.0,0.0,0.0,0.0,0.0,0.0,0.0,0.0,0.0,-0.6178,-0.6178,-0.622,-0.6365,-0.651,-0.6634,-0.6643,0.0,0.0,0.0,-0.6867,-0.6889,-0.7191,-0.7935,0.0,-0.8686,-0.9044,-0.9398,-0.9935,-1.1641,-1.2648,-1.1869,-1.3077,-1.35,-1.2172,-1.2403,-1.262,-1.2413,-1.3073,-1.3181,-1.2417,-1.2743,-1.2526,-1.176,-1.1151,-1.0359,-0.9617,-0.9553,-0.919,-0.8438,-0.8523,-0.8598,-0.8655,-0.875,-0.8798,-0.8794,-0.8699,-0.8621,-0.8567,-0.8567,-0.8587,-0.8611,-0.8425,-0.8492,-0.871,-0.871,-0.8632,-0.8567,-0.8937,-0.8859,-0.8604,0.0,0.0,0.0,0.0,0.0,0.0,0.0,0.0,0.0,0.0,0.0,0.0,0.0,0.0,0.0,0.0,0.0,0.0,0.0,0.0,0.0,0.0,0.0,-1.2558,-1.2666,-1.2177,-1.1994,-1.2175,-1.2126,-1.2076,-1.2076,0.0,0.0,0.0,0.0,-1.0565,-1.0095,-0.9777,-0.9614,-0.9614,-0.9614,-0.9458,0.0,0.0,0.0,0.0,0.0,0.0,0.0,0.0,0.0,0.0,0.0,0.0,0.0,0.0,0.0,-0.6536,-0.6577,-0.6666,-0.6838,0.0,0.0,0.0,-0.7683,-0.7676,-0.7642,-0.7944,-0.8904,-0.9843,-1.0459,-1.0484,-1.0607,-1.1231,-1.2997,-1.4061,-1.3206,-1.4404,-1.4887,-1.3485,-1.3756,-1.3885,-1.351,-1.4265,-1.4338,-1.3295,-1.372,-1.3614,-1.2753,-1.213,-1.1431,-1.0574,-1.051,-1.0043,-0.9278,-0.9083,-0.8953,-0.8999,-0.8796,-0.8615,-0.8567,-0.8462,-0.8387,-0.8343,-0.8343,-0.8401,-0.8486,-0.8333,-0.8418,-0.8645,-0.8693,-0.8557,-0.8387,-0.8791,-0.872,-0.8459,0.0,0.0,0.0,0.0,0.0,0.0,0.0,0.0,0.0,0.0,0.0,0.0,0.0,0.0,0.0,0.0,0.0,0.0,0.0,0.0,0.0,0.0,0.0,-1.2892,-1.2236,-1.2416,-1.2421,-1.2274,-1.2175,-1.2076,-1.2076,-1.1828,0.0,0.0,0.0,0.0,-0.9999,-0.9725,-0.9621,-0.9614,-0.9614,-0.9302,-0.883,0.0,0.0,0.0,0.0,0.0,0.0,0.0,0.0,0.0,0.0,0.0,0.0,0.0,-0.7208,-0.7146,-0.6913,-0.7002,-0.7293,0.0,0.0,0.0,-0.9286,-0.9169,-0.9075,-0.9625,-1.0208,-1.1007,-1.219,-1.1854,-1.2091,-1.4314,-1.4527,-1.4272,-1.4123,-1.5409,-1.5896,-1.474,-1.5816,-1.6516,-1.5946,-1.5921,-1.5706,-1.5131,-1.4066,-1.3448,-1.3448,-1.2107,-1.1386,-1.1391,-1.1283,-1.1274,-1.1381,-1.0382,-0.9961,-1.0132,-0.8996,-0.8404,-0.8272,-0.8272,-0.8184,-0.8041,-0.8041,-0.8041,-0.8052,-0.8211,-0.8457,-0.8601,-0.8648,-0.8618,-0.8587,-0.8482,-0.8394,-0.8419,0.0,0.0,0.0,0.0,0.0,0.0,0.0,0.0,0.0,0.0,0.0,0.0,0.0,0.0,0.0,0.0,0.0,0.0,0.0,0.0,0.0,0.0,0.0,0.0,0.0,0.0,-1.2382,-1.2175,-1.2126,-1.1977,0.0,0.0,0.0,-1.0879,0.0,0.0,-1.0014,-1.0136,-0.9992,-0.9732,-0.9621,-0.9458,-0.9204,0.0,0.0,0.0,0.0,0.0,0.0,0.0,0.0,0.0,0.0,0.0,0.0,0.0,-0.7604,-0.7464,-0.7804,-0.7907,0.0,-0.8603,0.0,0.0,0.0,-0.9767,0.0,0.0,-1.159,-1.177,-1.3057,-1.3225,-1.3368,-1.3865,-1.4975,-1.5705,-1.5684,-1.6147,-1.6436,-1.5827,-1.6278,-1.6439,-1.5648,-1.5803,-1.5706,-1.5131,-1.4796,-1.4587,-1.4587,-1.4042,-1.3397,-1.2578,-1.2557,-1.2181,-1.156,-1.1363,-1.1293,-1.135,-1.1051,-1.0004,-0.8272,-0.8473,-0.8787,-0.9118,-0.9312,-0.9875,-1.0724,-1.1254,-1.1362,-1.13,-1.1535,-1.1545,-1.1277,-1.0383,-1.0611,-1.1103,0.0,0.0,0.0,0.0,0.0,0.0,0.0,0.0,0.0,0.0,0.0,0.0,0.0,0.0,0.0,0.0,0.0,0.0,0.0,0.0,0.0,0.0,0.0,0.0,0.0,-1.2715,-1.2431,0.0,0.0,0.0,0.0,0.0,0.0,-1.0777,0.0,-1.0564,-1.0118,-1.0212,-1.0076,-0.9799,-0.9732,-0.9569,-0.9413,0.0,0.0,0.0,0.0,0.0,0.0,0.0,0.0,0.0,0.0,0.0,0.0,0.0,-0.8416,-0.8381,-0.8612,-0.86,0.0,-0.9417,-0.9931,-1.0379,-1.0935,0.0,0.0,0.0,-1.32,-1.3106,-1.4185,-1.4434,-1.44,-1.4536,-1.5455,-1.6092,-1.6092,-1.6353,-1.6434,-1.6341,-1.6498,-1.6456,-1.5757,-1.579,-1.5676,-1.5109,-1.5091,-1.5091,-1.5091,-1.4937,-1.4545,-1.3935,-1.3887,-1.3613,-1.3028,-1.2732,-1.2533,-1.2538,-1.2129,-1.1213,-0.977,-0.987,-1.0207,-1.0485,-1.0681,-1.1189,-1.1998,-1.2357,-1.2511,-1.2309,-1.2658,-1.2713,-1.251,-1.1303,-1.1714,-1.2514,0.0,0.0,0.0,0.0,0.0,0.0,0.0,0.0,0.0,0.0,0.0,0.0,0.0,0.0,0.0,0.0,0.0,0.0,0.0,0.0,0.0,0.0,0.0,0.0,0.0,0.0,0.0,0.0,0.0,0.0,0.0,0.0,-1.0922,-1.0871,0.0,-1.0347,-1.0324,-1.0141,-0.9977,-0.9799,-0.9799,-0.9636,-0.9413,-0.9562,0.0,0.0,0.0,0.0,0.0,0.0,0.0,0.0,0.0,0.0,0.0,-0.9449,-0.9547,-0.961,-0.9261,0.0,0.0,-1.0145,-1.0811,0.0,-1.2284,-1.2728,-1.3379,-1.4648,-1.471,-1.477,-1.5331,-1.5217,-1.5217,-1.5745,-1.5832,-1.5832,-1.5832,-1.6059,-1.6233,-1.6233,-1.6486,-1.6447,-1.5953,-1.5856,-1.5661,-1.5102,-1.5083,-1.5083,-1.5083,-1.5083,-1.5083,-1.5083,-1.5083,-1.5178,-1.5178,-1.4196,-1.3703,-1.3709,-1.2937,-1.2423,-1.2211,-1.2058,-1.1965,-1.2042,-1.2237,-1.2366,-1.2568,-1.2568,-1.2568,-1.2589,-1.2791,-1.2976,-1.2771,-1.1761,-1.2215,-1.3136,0.0,0.0,0.0,0.0,0.0,0.0,0.0,0.0,0.0,0.0,0.0,0.0,0.0,0.0,0.0,0.0,0.0,0.0,0.0,0.0,0.0,0.0,0.0,0.0,0.0,0.0,0.0,0.0,0.0,0.0,0.0,0.0,0.0,-1.0581,0.0,-1.068,-1.0435,-1.0561,-1.0355,-0.9947,-0.9851,-0.9681,-0.9562,-0.9562,-0.9562,0.0,0.0,0.0,0.0,0.0,0.0,0.0,0.0,-1.0043,-1.0006,-1.0246,-1.0174,-1.0119,0.0,-1.0421,0.0,0.0,-1.1985,-1.2843,-1.3207,-1.3741,-1.415,-1.3911,-1.4609,-1.5317,-1.5671,-1.5685,-1.5685,-1.5805,-1.5832,-1.5832,-1.5832,-1.5885,-1.5925,-1.5925,-1.6186,-1.6155,-1.5665,-1.5738,-1.5661,-1.5102,-1.5083,-1.5083,-1.5083,-1.5083,-1.5083,-1.5083,-1.5267,-1.5452,-1.5452,-1.535,-1.5343,-1.5343,-1.5108,-1.4893,-1.4553,-1.3121,-1.2801,-1.3511,-1.4376,-1.4914,-1.5164,-1.5366,-1.5471,-1.5373,-1.5436,-1.5455,-1.5356,-1.395,-1.4445,-1.5573,0.0,0.0,0.0,0.0,0.0,0.0,0.0,0.0,0.0,0.0,0.0,0.0,0.0,0.0,0.0,0.0,0.0,0.0,0.0,0.0,0.0,0.0,0.0,0.0,0.0,0.0,0.0,0.0,0.0,0.0,0.0,0.0,0.0,-1.053,0.0,-1.0637,-1.053,-1.0617,-1.048,-1.0162,-1.0058,-0.9947,-0.9777,-0.9777,-0.9725,-0.9725,-1.0002,0.0,0.0,0.0,0.0,0.0,0.0,0.0,-1.06,-1.0791,-1.0821,-1.0733,0.0,0.0,0.0,-1.1525,0.0,-1.3026,-1.318,-1.3674,-1.4015,-1.3625,-1.4576,-1.5444,-1.5591,-1.5732,-1.5832,-1.5832,-1.5832,-1.5832,-1.5832,-1.5832,-1.5832,-1.5832,-1.5965,-1.5999,-1.5655,-1.5774,-1.5704,-1.5465,-1.5458,-1.5458,-1.5458,-1.5458,-1.5458,-1.5458,-1.5547,-1.5635,-1.5635,-1.5737,-1.5832,-1.5832,-1.5691,-1.5471,-1.5204,-1.43,-1.4286,-1.4867,-1.5445,-1.5721,-1.586,-1.5963,-1.6059,-1.6072,-1.6219,-1.6273,-1.6188,-1.5016,-1.545,-1.6425,0.0,0.0,0.0,0.0,0.0,0.0,0.0,0.0,0.0,0.0,0.0,0.0,0.0,0.0,0.0,0.0,0.0,0.0,0.0,0.0,0.0,0.0,0.0,0.0,0.0,0.0,0.0,0.0,0.0,0.0,0.0,0.0,0.0,-1.0661,0.0,-1.0629,-1.0522,-1.0522,-1.0419,-1.0316,-1.0316,-1.0192,-1.0082,-1.0082,-1.0068,-1.006,-1.0397,-1.0446,-1.0416,-1.1012,0.0,0.0,0.0,0.0,-1.1209,-1.1176,-1.1247,-1.1303,0.0,0.0,-1.1207,-1.1749,-1.2345,0.0,-1.2755,-1.3133,-1.3567,-1.3567,-1.4462,-1.5264,-1.5311,-1.5558,-1.5752,-1.5752,-1.5798,-1.5832,-1.5832,-1.5832,-1.5832,-1.5832,-1.5832,-1.5832,-1.5832,-1.5832,-1.5832,-1.5832,-1.5832,-1.5832,-1.5832,-1.5785,-1.5752,-1.5752,-1.5705,-1.5678,-1.5678,-1.5678,-1.5678,-1.5678,-1.5384,-1.517,-1.5044,-1.5184,-1.5431,-1.5758,-1.5805,-1.5832,-1.5832,-1.5832,-1.5832,-1.5852,-1.6099,-1.6192,-1.6129,-1.5357,-1.5776,-1.6527,0.0,0.0,0.0,0.0,0.0,0.0,0.0,0.0,0.0,0.0,0.0,0.0,0.0,0.0,0.0,0.0,0.0,0.0,-1.5312,0.0,0.0,-1.3172,-1.3027,0.0,0.0,0.0,0.0,0.0,0.0,0.0,0.0,0.0,0.0,-1.1386,0.0,0.0,-1.0522,-1.0522,-1.0419,-1.0316,-1.0316,-1.0384,-1.0524,-1.0524,-1.0708,-1.0959,-1.1302,-1.1299,-1.1175,-1.1554,-1.1589,0.0,0.0,0.0,-1.1502,-1.1545,-1.156,-1.156,0.0,0.0,-1.2013,0.0,-1.2473,-1.29,0.0,0.0,-1.3267,-1.3267,-1.4001,-1.4716,-1.4977,-1.5257,-1.5451,-1.5451,-1.5665,-1.5832,-1.5832,-1.5832,-1.5832,-1.5832,-1.5832,-1.5832,-1.5832,-1.5832,-1.5832,-1.5832,-1.5832,-1.5832,-1.5832,-1.5591,-1.5451,-1.5451,-1.5211,-1.5077,-1.5077,-1.5077,-1.5077,-1.5077,-1.4776,-1.4883,-1.5324,-1.485,-1.4937,-1.5471,-1.5718,-1.5832,-1.5832,-1.5832,-1.5832,-1.5832,-1.5872,-1.5885,-1.5892,-1.5734,-1.6009,-1.6333,0.0,0.0,0.0,0.0,0.0,0.0,0.0,0.0,0.0,0.0,0.0,0.0,0.0,0.0,0.0,-1.5525,-1.5525,-1.53,-1.4846,-1.4222,-1.3705,-1.3296,-1.3113,-1.2978,-1.2881,0.0,0.0,0.0,0.0,0.0,0.0,-1.3046,-1.2672,0.0,0.0,0.0,0.0,-1.1072,-1.0809,-1.0435,-1.0789,-1.079,-1.0678,-1.0973,-1.1081,-1.1145,-1.1549,-1.1546,-1.1353,-1.169,-1.1872,-1.1934,-1.1685,0.0,0.0,0.0,-1.1622,-1.156,-1.1435,-1.1704,-1.1959,0.0,-1.2339,-1.2625,-1.2666,-1.2866,-1.3101,-1.3101,-1.3474,-1.3975,-1.4596,-1.4957,-1.5157,-1.5157,-1.5257,-1.5344,-1.5344,-1.5344,-1.5344,-1.5344,-1.5344,-1.5404,-1.5571,-1.5585,-1.5585,-1.5585,-1.5585,-1.5518,-1.5351,-1.5224,-1.5157,-1.5157,-1.503,-1.4963,-1.4963,-1.4963,-1.4877,-1.471,-1.4583,-1.4569,-1.4656,-1.4563,-1.493,-1.5638,-1.5605,-1.5678,-1.5832,-1.5832,-1.5832,-1.5832,-1.5832,-1.5832,-1.5832,-1.5832,-1.5912,-1.6025,0.0,0.0,0.0,0.0,0.0,0.0,0.0,0.0,0.0,0.0,0.0,0.0,0.0,0.0,0.0,0.0,-1.5312,-1.5028,-1.4326,-1.3978,-1.3647,-1.3334,-1.3162,-1.2978,-1.2881,0.0,0.0,0.0,0.0,0.0,-1.3816,-1.3591,-1.3478,0.0,-1.2569,-1.215,0.0,0.0,0.0,-1.1292,-1.1696,-1.1714,-1.1493,-1.1865,-1.1963,-1.1855,-1.2118,-1.2027,-1.1827,-1.2081,-1.2236,-1.2243,-1.205,-1.2112,0.0,0.0,0.0,-1.1872,0.0,0.0,-1.2094,-1.2009,-1.2225,-1.2537,0.0,-1.2808,-1.2859,-1.301,-1.3081,-1.3393,-1.4126,-1.4489,-1.4763,-1.4836,-1.4917,-1.4963,-1.4963,-1.4963,-1.4963,-1.4963,-1.4963,-1.505,-1.5264,-1.5291,-1.5291,-1.5291,-1.5291,-1.519,-1.4977,-1.4897,-1.485,-1.485,-1.4783,-1.4743,-1.4743,-1.4743,-1.4629,-1.4409,-1.4409,-1.4335,-1.4202,-1.4342,-1.485,-1.5605,-1.5458,-1.5565,-1.5832,-1.5832,-1.5832,-1.5832,-1.5832,-1.5832,-1.5832,-1.5832,-1.5832,-1.5832,0.0,0.0,0.0,0.0,0.0,0.0,0.0,0.0,0.0,0.0,0.0,0.0,-1.5792,-1.5792,-1.5659,-1.5312,-1.5312,-1.4926,-1.4071,-1.3542,-1.318,-1.3123,-1.2978,0.0,-1.2881,0.0,0.0,0.0,0.0,0.0,-1.3494,-1.3424,-1.4072,-1.5206,-1.4316,-1.3723,-1.3489,0.0,0.0,0.0,-1.3222,-1.3304,-1.3534,-1.3438,-1.3561,-1.3828,-1.3537,-1.3295,-1.3183,-1.3199,-1.2781,-1.2359,-1.2773,-1.2658,-1.2359,0.0,0.0,0.0,0.0,-1.2617,0.0,-1.2,-1.224,-1.2621,-1.2459,-1.2402,-1.2569,-1.3154,-1.3134,-1.309,-1.3509,-1.3899,-1.4222,-1.4496,-1.4776,-1.4963,-1.4963,-1.4963,-1.4963,-1.4963,-1.4963,-1.497,-1.4983,-1.4983,-1.4983,-1.4983,-1.4983,-1.4977,-1.4963,-1.4696,-1.4543,-1.4543,-1.4275,-1.4135,-1.4135,-1.4135,-1.4122,-1.4108,-1.4108,-1.4249,-1.4489,-1.4229,-1.4436,-1.5023,-1.5284,-1.5565,-1.5832,-1.5832,-1.5832,-1.5832,-1.5832,-1.5832,-1.5832,-1.5832,-1.5832,-1.5832,0.0,0.0,0.0,0.0,0.0,0.0,0.0,0.0,0.0,0.0,0.0,0.0,0.0,-1.5703,-1.5558,-1.496,-1.4501,-1.4129,-1.4025,-1.36,-1.3286,-1.3133,-1.3027,-1.2988,-1.2881,0.0,0.0,0.0,0.0,-1.3096,-1.3516,-1.3724,-1.4289,-1.5029,-1.4538,-1.4387,-1.4347,-1.4035,0.0,0.0,-1.3607,-1.3835,-1.3965,-1.4294,-1.4646,-1.4989,-1.4746,-1.4547,-1.4314,-1.4018,-1.3746,-1.358,-1.3144,-1.3147,-1.3216,-1.3078,-1.2956,-1.2903,0.0,0.0,0.0,-1.2508,-1.2523,-1.2609,-1.2738,-1.272,-1.2699,-1.3124,-1.3061,-1.3002,-1.3146,-1.3398,-1.3554,-1.3661,-1.3921,-1.4115,-1.4115,-1.4282,-1.4402,-1.4402,-1.4402,-1.4476,-1.4663,-1.4676,-1.4676,-1.4676,-1.4676,-1.4596,-1.4409,-1.4302,-1.4242,-1.4242,-1.4142,-1.4088,-1.4088,-1.4088,-1.4088,-1.4088,-1.4088,-1.4142,-1.4242,-1.4135,-1.4302,-1.4683,-1.479,-1.5003,-1.5291,-1.5478,-1.5551,-1.5571,-1.5758,-1.5832,-1.5832,-1.5832,-1.5832,-1.5832,0.0,0.0,0.0,0.0,0.0,0.0,0.0,0.0,0.0,0.0,0.0,0.0,0.0,0.0,-1.5334,-1.4617,-1.3978,-1.3658,-1.3789,-1.3552,-1.3324,-1.3162,-1.3123,-1.3085,-1.2988,0.0,0.0,0.0,0.0,0.0,0.0,-1.3877,-1.4365,-1.4824,-1.5018,-1.5247,0.0,0.0,-1.4893,-1.4461,-1.4963,-1.5112,-1.5186,-1.5476,-1.582,-1.6064,-1.568,-1.5542,-1.5368,-1.4979,-1.4836,-1.4638,-1.3995,-1.3917,-1.395,-1.3631,-1.3442,-1.339,-1.3321,0.0,0.0,0.0,-1.2648,-1.2561,-1.29,-1.284,-1.2755,-1.3179,-1.3119,-1.3029,-1.3084,-1.3071,-1.3128,-1.318,-1.3373,-1.35,-1.35,-1.3667,-1.3794,-1.3794,-1.3794,-1.3908,-1.4195,-1.4222,-1.4269,-1.4369,-1.4282,-1.4142,-1.3948,-1.3848,-1.3794,-1.3794,-1.3794,-1.3794,-1.3794,-1.3794,-1.3794,-1.3794,-1.3794,-1.3848,-1.3941,-1.3941,-1.4102,-1.4376,-1.4376,-1.4603,-1.4977,-1.517,-1.5251,-1.5284,-1.5571,-1.5685,-1.5698,-1.5792,-1.5832,-1.5832,0.0,0.0,0.0,0.0,0.0,0.0,0.0,0.0,0.0,0.0,0.0,0.0,0.0,0.0,0.0,-1.4312,-1.3889,-1.3604,-1.3498,-1.345,-1.3402,-1.3258,-1.3192,-1.3173,-1.3115,0.0,0.0,0.0,0.0,0.0,0.0,0.0,-1.4375,-1.4824,-1.5743,-1.6309,-1.6655,-1.6665,-1.6973,-1.737,-1.7213,-1.7242,-1.7189,-1.7053,-1.7063,-1.701,-1.6485,-1.6294,-1.6284,-1.6211,-1.5891,-1.5505,-1.5417,-1.5018,-1.4533,-1.4533,-1.4414,-1.4225,0.0,0.0,0.0,-1.3005,-1.2691,-1.2617,-1.2897,-1.2781,-1.2701,-1.3345,-1.3339,-1.3193,-1.32,-1.3046,-1.2947,-1.3165,-1.3193,-1.32,-1.32,-1.3206,-1.3213,-1.3213,-1.3213,-1.332,-1.3519,-1.3627,-1.3748,-1.4041,-1.3794,-1.3627,-1.3627,-1.336,-1.3213,-1.3206,-1.3206,-1.3206,-1.3206,-1.3206,-1.3213,-1.3213,-1.3213,-1.336,-1.3559,-1.3559,-1.3808,-1.4088,-1.4088,-1.4409,-1.4937,-1.4943,-1.495,-1.4977,-1.5271,-1.5391,-1.5431,-1.5712,-1.5818,-1.5832,0.0,0.0,0.0,0.0,0.0,0.0,0.0,0.0,0.0,0.0,0.0,0.0,0.0,-1.6052,-1.5796,-1.5883,-1.525,-1.4959,-1.5121,-1.4847,-1.4593,-1.4348,-1.4358,-1.4265,-1.4017,0.0,0.0,0.0,0.0,0.0,0.0,0.0,0.0,0.0,-1.5743,-1.6133,-1.6269,-1.6592,-1.6611,-1.6507,-1.7026,-1.7413,-1.7684,-1.7748,-1.809,-1.843,-1.8035,-1.7846,-1.7787,-1.7275,-1.6768,-1.6365,-1.5771,-1.5311,-1.4937,-1.4937,-1.4937,-1.4876,-1.4753,0.0,0.0,0.0,0.0,0.0,-1.3107,-1.3212,-1.3442,-1.3482,-1.3682,-1.3702,-1.3266,-1.3127,-1.311,-1.2981,-1.3037,-1.3027,-1.3027,-1.3144,-1.3213,-1.3213,-1.3213,-1.324,-1.332,-1.3327,-1.336,-1.3447,-1.338,-1.3327,-1.3327,-1.3253,-1.3286,-1.343,-1.343,-1.343,-1.343,-1.343,-1.3351,-1.3213,-1.3213,-1.336,-1.3559,-1.3559,-1.3808,-1.4088,-1.4088,-1.4175,-1.4349,-1.4556,-1.4643,-1.4669,-1.497,-1.5211,-1.5404,-1.5484,-1.5651,-1.5832,0.0,0.0,0.0,0.0,0.0,0.0,0.0,0.0,0.0,0.0,0.0,0.0,0.0,0.0,-1.6008,-1.6047,-1.5639,-1.5444,-1.5558,-1.533,-1.5122,-1.4976,-1.4882,-1.4724,0.0,0.0,0.0,0.0,0.0,0.0,0.0,0.0,0.0,0.0,0.0,0.0,0.0,-1.6269,-1.6514,-1.6694,-1.7266,-1.7755,-1.8147,-1.8344,-1.8639,-1.8942,-1.8607,-1.8482,-1.8442,-1.7972,-1.7358,-1.6788,-1.6356,-1.5808,-1.5349,-1.5349,-1.5349,-1.5349,-1.5349,-1.5451,-1.5368,-1.4824,0.0,0.0,-1.3518,-1.3515,-1.3553,-1.3361,-1.3622,-1.3775,-1.3419,-1.3346,-1.3273,-1.3193,-1.3121,-1.3084,-1.2934,-1.2947,-1.2986,-1.2986,-1.2909,-1.2879,-1.3006,-1.3019,-1.3073,-1.32,-1.3093,-1.2959,-1.2839,-1.2909,-1.2979,-1.3126,-1.3202,-1.3279,-1.3279,-1.3202,-1.3056,-1.2986,-1.2832,-1.2986,-1.3346,-1.3267,-1.3514,-1.3967,-1.3931,-1.3901,-1.4011,-1.4222,-1.4342,-1.4369,-1.4663,-1.4957,-1.5231,-1.5351,-1.5578,-1.5832,0.0,0.0,0.0,0.0,0.0,0.0,0.0,0.0,0.0,0.0,0.0,0.0,0.0,0.0,0.0,0.0,-1.5604,-1.5552,-1.5437,-1.5374,-1.5384,-1.5384,-1.5132,-1.5036,0.0,0.0,0.0,0.0,0.0,0.0,0.0,0.0,0.0,0.0,0.0,0.0,0.0,-1.5939,-1.6605,-1.738,-1.7725,-1.8137,-1.8549,-1.8741,-1.8808,-1.8808,-1.8607,-1.8549,-1.8549,-1.8405,-1.7764,-1.6997,-1.6997,-1.6431,-1.5818,-1.5762,-1.5753,-1.5818,-1.5762,-1.5725,-1.5613,-1.5568,-1.4976,0.0,-1.4057,-1.3832,-1.3473,-1.3292,-1.3479,-1.3637,-1.3564,-1.3564,-1.3564,-1.3499,-1.3346,-1.3193,-1.2973,-1.2753,-1.2599,-1.2599,-1.2452,-1.2479,-1.2748,-1.2775,-1.2889,-1.3165,-1.2929,-1.2654,-1.2392,-1.2526,-1.2673,-1.2673,-1.2826,-1.29,-1.29,-1.2753,-1.2673,-1.2599,-1.2452,-1.2526,-1.2968,-1.2822,-1.3138,-1.3759,-1.3642,-1.3696,-1.3913,-1.4011,-1.4055,-1.4115,-1.4369,-1.4656,-1.495,-1.5244,-1.5531,-1.5785,-1.7275,0.0,0.0,0.0,0.0,0.0,0.0,0.0,0.0,0.0,0.0,0.0,0.0,0.0,0.0,0.0,-1.6939,-1.6873,-1.6675,-1.6675,-1.6575,-1.6475,-1.6308,-1.6196,-1.6115,0.0,0.0,0.0,0.0,0.0,0.0,0.0,0.0,0.0,0.0,0.0,0.0,-1.6238,-1.6737,-1.7129,-1.766,-1.8137,-1.8549,-1.8875,-1.9075,-1.9075,-1.9008,-1.9008,-1.8942,-1.8607,-1.8152,-1.7755,-1.7483,-1.7063,-1.66,-1.6269,-1.6326,-1.6383,-1.6259,-1.6431,-1.6519,-1.6075,-1.5939,0.0,-1.5103,-1.508,-1.5112,-1.4635,-1.4738,-1.4705,-1.4057,-1.3992,-1.3848,-1.3564,-1.3492,-1.3346,-1.3193,-1.2973,-1.2826,-1.2826,-1.2826,-1.2847,-1.2836,-1.2762,-1.2716,-1.2926,-1.2878,-1.2882,-1.2753,-1.2826,-1.29,-1.3046,-1.3119,-1.3119,-1.3119,-1.3119,-1.29,-1.2599,-1.2526,-1.2682,-1.2822,-1.2822,-1.299,-1.3286,-1.3267,-1.3427,-1.3647,-1.3707,-1.3874,-1.4095,-1.4148,-1.4349,-1.4643,-1.4937,-1.5231,-1.5518,-1.7555,0.0,0.0,0.0,0.0,0.0,0.0,0.0,0.0,0.0,0.0,0.0,0.0,-1.7901,-1.7787,-1.7639,-1.7589,-1.7368,-1.7011,-1.7011,-1.6955,-1.6909,-1.6751,-1.6637,-1.6602,-1.6248,0.0,0.0,0.0,0.0,0.0,0.0,0.0,0.0,0.0,0.0,0.0,-1.6447,-1.693,-1.75,-1.7914,-1.8279,-1.8674,-1.9008,-1.9075,-1.9075,-1.9075,-1.9075,-1.8942,-1.8741,-1.8405,-1.8144,-1.794,-1.7591,-1.7283,-1.6955,-1.6878,-1.6868,-1.6674,-1.6762,-1.6862,-1.6592,-1.6401,0.0,0.0,-1.5481,-1.541,-1.4925,-1.494,-1.4911,-1.4553,-1.4418,-1.4209,-1.3848,-1.3775,-1.3702,-1.3419,-1.32,-1.3046,-1.3046,-1.2973,-1.29,-1.29,-1.2826,-1.2826,-1.29,-1.29,-1.29,-1.29,-1.2973,-1.3119,-1.32,-1.3273,-1.3346,-1.3346,-1.3114,-1.2963,-1.29,-1.2594,-1.2684,-1.2981,-1.2907,-1.3064,-1.3307,-1.3144,-1.3216,-1.3444,-1.344,-1.3601,-1.3881,-1.4028,-1.4262,-1.4536,-1.4689,-1.493,-1.5224,-1.77,0.0,0.0,0.0,0.0,0.0,0.0,0.0,0.0,0.0,0.0,0.0,-1.848,-1.8516,-1.8608,-1.8555,-1.834,-1.798,-1.7508,-1.7364,-1.7277,-1.7078,-1.692,-1.6864,-1.6864,-1.6684,0.0,0.0,0.0,0.0,0.0,0.0,0.0,0.0,0.0,0.0,0.0,-1.689,-1.7336,-1.8005,-1.8236,-1.8557,-1.8808,-1.9008,-1.9075,-1.9075,-1.9075,-1.9008,-1.8875,-1.8808,-1.8607,-1.8337,-1.8269,-1.8056,-1.7784,-1.7529,-1.7382,-1.7235,-1.7038,-1.6908,-1.6908,-1.6908,-1.667,-1.6287,0.0,0.0,0.0,-1.5172,-1.513,-1.5117,-1.5046,-1.4848,-1.4617,-1.4188,-1.4155,-1.4034,-1.3693,-1.3448,-1.3339,-1.3273,-1.3119,-1.3046,-1.3046,-1.3046,-1.2973,-1.2973,-1.2973,-1.3046,-1.3046,-1.3193,-1.3273,-1.3273,-1.3419,-1.347,-1.3404,-1.2991,-1.282,-1.3006,-1.26,-1.2635,-1.2954,-1.2872,-1.2973,-1.328,-1.3009,-1.2989,-1.3224,-1.3236,-1.338,-1.3667,-1.3908,-1.4182,-1.4442,-1.4496,-1.4669,-1.4917,-1.7451,-1.7768,0.0,0.0,0.0,0.0,0.0,0.0,0.0,0.0,0.0,-1.8827,-1.9831,-1.9585,-1.9698,-2.0435,-2.0123,-1.9762,-1.9306,-1.8816,-1.8148,-1.7289,-1.7078,-1.6955,-1.6955,-1.674,-1.6581,0.0,0.0,0.0,0.0,0.0,0.0,0.0,-1.7337,0.0,0.0,-1.7998,-1.8171,-1.8185,-1.8771,-1.89,-1.8808,-1.9008,-1.9075,-1.9075,-1.9075,-1.9075,-1.9075,-1.8875,-1.8674,-1.8414,-1.8144,-1.8144,-1.8134,-1.7666,-1.7588,-1.7569,-1.7235,-1.7038,-1.6908,-1.6908,-1.6872,-1.6835,-1.6766,0.0,-1.6471,-1.6401,0.0,-1.5991,-1.5497,0.0,0.0,-1.422,-1.4364,-1.4387,-1.408,-1.4016,-1.3848,-1.3492,-1.3419,-1.3419,-1.3419,-1.3419,-1.3346,-1.32,-1.3346,-1.3419,-1.3419,-1.3419,-1.3492,-1.3492,-1.3492,-1.336,-1.3067,-1.3023,-1.2738,-1.2287,-1.2529,-1.2523,-1.2209,-1.2476,-1.2526,-1.2452,-1.2412,-1.258,-1.2849,-1.308,-1.338,-1.3566,-1.3681,-1.3874,-1.4168,-1.4429,-1.4543,-1.4609,-1.8279,-1.847,0.0,0.0,0.0,0.0,0.0,0.0,0.0,0.0,0.0,-1.9273,-1.9796,-1.9701,-1.9909,-2.067,-2.0476,-2.0181,-1.9831,-1.9564,-1.9125,-1.8411,-1.8331,-1.8013,-1.751,-1.7327,-1.7084,0.0,-1.6524,0.0,0.0,0.0,0.0,0.0,-1.7461,-1.7812,-1.8049,-1.8299,-1.8537,-1.874,-1.8992,-1.9065,-1.9008,-1.9075,-1.9075,-1.9075,-1.9075,-1.9075,-1.9075,-1.8998,-1.9116,-1.9155,-1.8755,-1.872,-1.8675,-1.8144,-1.7852,-1.7638,-1.7304,-1.7245,-1.7185,-1.6978,-1.6968,-1.7038,-1.6908,-1.683,-1.676,-1.676,0.0,0.0,0.0,0.0,0.0,0.0,-1.5043,-1.4942,-1.4442,-1.4403,-1.4274,-1.392,-1.3637,-1.3492,-1.3492,-1.3492,-1.3492,-1.3346,-1.3419,-1.3492,-1.3492,-1.3492,-1.3492,-1.3492,-1.3309,-1.3148,-1.3009,-1.2819,-1.2684,-1.2666,-1.2803,-1.282,-1.2704,-1.291,-1.2826,-1.2673,-1.2526,-1.252,-1.2648,-1.2708,-1.2859,-1.314,-1.332,-1.3674,-1.4102,-1.4222,-1.4269,-1.4309,-1.9133,0.0,0.0,0.0,0.0,0.0,0.0,0.0,-1.9756,-1.9151,-1.9611,-2.0062,-2.0261,-2.0589,-2.0965,-2.1623,-2.162,-2.1392,-2.089,-2.0547,-2.0099,-1.9429,-1.931,-1.8903,-1.8254,-1.8078,-1.7718,0.0,0.0,0.0,0.0,0.0,0.0,0.0,0.0,-1.8342,-1.8568,-1.8568,-1.8764,-1.9075,-1.9075,-1.9214,-1.9251,-1.9116,-1.9075,-1.9075,-1.9075,-1.9075,-1.9096,-1.9153,-1.9421,-1.9637,-1.9229,-1.9226,-1.9133,-1.8534,-1.8134,-1.7852,-1.752,-1.7461,-1.7401,-1.7038,-1.7038,-1.7107,-1.6908,-1.6908,-1.6908,-1.6908,-1.676,0.0,0.0,0.0,-1.6097,-1.5581,0.0,-1.5392,-1.486,-1.4791,-1.4633,-1.4274,-1.392,-1.3637,-1.3637,-1.3564,-1.3492,-1.3492,-1.3492,-1.3492,-1.3492,-1.3492,-1.3492,-1.3492,-1.3265,-1.3097,-1.3009,-1.2775,-1.2731,-1.2877,-1.2965,-1.2984,-1.3071,-1.3157,-1.3046,-1.2826,-1.2673,-1.2599,-1.2532,-1.2466,-1.2552,-1.2856,-1.3093,-1.352,-1.3975,-1.4055,-1.4088,-1.4115,-1.9673,-1.9371,0.0,0.0,-1.9332,0.0,-1.9782,-1.9903,-2.0278,-2.0997,-2.0961,-2.1173,-2.2015,-2.3027,-2.3838,-2.4149,-2.4462,-2.4161,-2.3059,-2.197,-2.0926,-2.003,-1.9488,-1.9298,-1.9465,-1.8808,-1.8445,-1.8434,0.0,0.0,0.0,0.0,0.0,0.0,0.0,-1.9177,-1.911,-1.911,-1.9054,-1.9075,-1.9075,-1.9344,-1.9765,-1.9241,-1.9075,-1.9075,-1.9075,-1.9075,-1.9137,-1.9387,-1.9481,-1.9492,-1.9273,-1.9342,-1.9331,-1.868,-1.8482,-1.8414,-1.8076,-1.7735,-1.747,-1.7245,-1.7038,-1.6908,-1.6908,-1.6908,-1.6908,-1.6908,-1.6908,-1.683,-1.6612,-1.6403,-1.6157,-1.5582,-1.5627,0.0,0.0,-1.5191,-1.5062,-1.4641,-1.4281,-1.4057,-1.4057,-1.371,-1.3492,-1.3492,-1.3492,-1.3492,-1.3492,-1.3492,-1.3492,-1.3492,-1.3484,-1.3331,-1.3009,-1.2994,-1.284,-1.2541,-1.2855,-1.2868,-1.2742,-1.3057,-1.2973,-1.2599,-1.2599,-1.2526,-1.2325,-1.2612,-1.2815,-1.2856,-1.3093,-1.3394,-1.3694,-1.3981,-1.4088,-1.4088,-2.0391,0.0,0.0,-1.9547,-1.9634,-1.9843,-2.0133,-2.089,-2.1448,-2.164,-2.2054,-2.2681,-2.3469,-2.4086,-2.4725,-2.5512,-2.5361,-2.5008,-2.4438,-2.3195,-2.2411,-2.2325,-2.1266,-2.0628,-2.0529,-1.9902,-1.9228,-1.8477,0.0,0.0,0.0,0.0,0.0,0.0,0.0,-1.9142,-1.9075,-1.9075,-1.9075,-1.9075,-1.9075,-1.952,-2.0151,-1.9696,-1.9706,-1.9924,-1.9634,-1.953,-1.951,-1.9287,-1.9442,-1.9637,-1.927,-1.9315,-1.94,-1.8883,-1.8617,-1.8482,-1.8279,-1.8144,-1.794,-1.7529,-1.7323,-1.7263,-1.6978,-1.6908,-1.6908,-1.6908,-1.6908,-1.6908,-1.683,-1.676,-1.6585,-1.6104,-1.6053,-1.6026,0.0,-1.557,-1.5576,-1.5434,-1.4856,-1.4425,-1.4425,-1.4137,-1.392,-1.392,-1.3637,-1.3492,-1.3492,-1.3985,-1.3977,-1.3492,-1.3765,-1.359,-1.3009,-1.3009,-1.295,-1.2848,-1.3177,-1.3259,-1.3035,-1.315,-1.3046,-1.2826,-1.2673,-1.2526,-1.2532,-1.2486,-1.2452,-1.2505,-1.3013,-1.3146,-1.3106,-1.3614,-1.3915,-1.4088,-2.0756,-2.0526,-2.0401,-2.0401,-2.0401,-2.0536,-2.0989,-2.1733,-2.2404,-2.2812,-2.3386,-2.4067,-2.4846,-2.5492,-2.5996,-2.6437,-2.6382,-2.5977,-2.5191,-2.4345,-2.3745,-2.3513,-2.2714,-2.2217,-2.2063,-2.1113,-2.0344,-1.9662,-1.9247,-1.891,0.0,0.0,0.0,0.0,0.0,-1.9142,-1.9075,-1.9075,-1.9075,-1.9075,-1.9075,-1.9717,-2.0617,-2.0172,-2.0079,-2.0151,-1.9862,-1.9723,-1.9499,-1.9354,-1.9588,-1.9775,-1.9406,-1.9452,-1.9538,-1.9008,-1.8808,-1.8674,-1.8539,-1.8405,-1.8202,-1.7803,-1.7608,-1.7401,-1.7185,-1.7047,-1.7038,-1.7116,-1.6978,-1.6908,-1.6968,-1.6899,-1.6691,-1.6342,-1.6272,-1.614,0.0,-1.5805,-1.5805,-1.5805,-1.5213,-1.4776,-1.4641,-1.4425,-1.4209,-1.392,-1.3775,-1.3637,-1.3499,-1.4186,-1.4394,-1.3912,-1.4104,-1.4057,-1.3588,-1.3319,-1.3184,-1.3184,-1.3397,-1.3419,-1.3346,-1.3346,-1.32,-1.2973,-1.29,-1.2753,-1.2599,-1.2452,-1.2378,-1.2345,-1.2732,-1.2899,-1.2973,-1.3467,-1.3768,-1.3941,-2.0907,-2.1192,-2.1556,-2.1531,-2.1531,-2.1707,-2.2234,-2.2526,-2.3182,-2.4474,-2.4865,-2.5375,-2.6029,-2.7257,-2.7765,-2.7217,-2.7773,-2.7326,-2.5388,-2.5376,-2.4905,-2.3762,-2.3765,-2.3905,-2.403,-2.2523,-2.1752,-2.1706,-2.0719,0.0,0.0,0.0,0.0,0.0,-1.9351,0.0,-1.9075,-1.9075,-1.9085,-1.9106,-1.9075,-1.9872,-2.1031,-2.0565,-2.0131,-1.9827,-1.9858,-1.951,-1.9199,-1.9661,-1.9796,-1.9796,-1.9796,-1.9796,-1.9713,-1.9199,-1.9065,-1.9075,-1.8875,-1.8539,-1.8269,-1.8076,-1.7745,-1.7539,-1.747,-1.7323,-1.7245,-1.7461,-1.7185,-1.6978,-1.7166,-1.689,-1.6542,-1.6342,-1.6202,-1.6,-1.5797,-1.5805,-1.5805,-1.5805,-1.5426,-1.5062,-1.4713,-1.4641,-1.4353,-1.3637,-1.392,-1.3992,-1.3637,-1.4258,-1.4673,-1.4673,-1.4673,-1.4673,-1.4601,-1.384,-1.3492,-1.3492,-1.3492,-1.3492,-1.3492,-1.3492,-1.3419,-1.32,-1.3193,-1.2973,-1.2599,-1.2599,-1.2452,-1.2305,-1.2331,-1.2705,-1.3267,-1.3554,-1.3585,-1.3707,-2.1977,-2.2334,-2.2585,-2.2171,-2.2096,-2.2088,-2.2135,-2.3318,-2.4439,-2.5124,-2.6407,-2.7466,-2.8088,-2.8863,-2.9226,-2.9075,-2.88,-2.8462,-2.7816,-2.6806,-2.6144,-2.6082,-2.5093,-2.4357,-2.3989,-2.3494,-2.2854,-2.2089,-2.1624,0.0,-2.1239,0.0,0.0,0.0,0.0,-1.9539,-1.9075,-1.9075,-1.9272,-1.9619,-1.921,-1.9686,-2.0555,-2.01,-1.9862,-1.9869,-2.0131,-2.0182,-1.9996,-1.9437,-1.9251,-1.9251,-1.9251,-1.9251,-1.923,-1.9106,-1.9008,-1.8875,-1.8808,-1.8539,-1.8269,-1.8076,-1.7794,-1.7657,-1.7539,-1.7461,-1.7461,-1.747,-1.7401,-1.7323,-1.7245,-1.7097,-1.689,-1.6412,-1.607,-1.5867,-1.5805,-1.5805,-1.5805,-1.5805,-1.5726,-1.5584,-1.5505,-1.4927,-1.4776,-1.5196,-1.4553,-1.441,-1.5108,-1.5596,-1.5737,-1.5455,-1.5392,-1.5171,-1.4601,-1.384,-1.3492,-1.3492,-1.3492,-1.3492,-1.3492,-1.3492,-1.3492,-1.3419,-1.3119,-1.29,-1.282,-1.2526,-1.2378,-1.2345,-1.2799,-1.3206,-1.3567,-1.3868,-1.3975,-1.3981,-2.2359,-2.2761,-2.3113,-2.3062,-2.3251,-2.3353,-2.3292,-2.4079,-2.504,-2.6065,-2.7226,-2.8237,-2.8863,-2.9453,-2.9792,-2.9792,-2.949,-2.9025,-2.8388,-2.7841,-2.7296,-2.6648,-2.6184,-2.5493,-2.4752,-2.4121,-2.3416,-2.2545,-2.1793,0.0,-2.1127,0.0,0.0,0.0,0.0,-1.9407,-1.9142,-1.9396,-1.967,-1.9785,-1.9586,-1.9876,0.0,-1.9934,-1.9882,-2.0058,-2.012,-2.0006,-1.9758,-1.9241,-1.9075,-1.9075,-1.9075,-1.9075,-1.9075,-1.9075,-1.8942,-1.8808,-1.8808,-1.8539,-1.8269,-1.8134,-1.7998,-1.7794,-1.7735,-1.7666,-1.7588,-1.7666,-1.7608,-1.7461,-1.7442,-1.7235,-1.6899,-1.6342,-1.6008,-1.5805,-1.5805,-1.5805,-1.5805,-1.5805,-1.5805,-1.5805,-1.5805,-1.5363,-1.5141,-1.5275,-1.484,-1.4768,-1.5188,-1.5886,-1.6237,-1.5956,-1.5956,-1.5666,-1.51,-1.4194,-1.371,-1.3492,-1.3492,-1.3492,-1.3492,-1.3492,-1.3492,-1.3492,-1.3273,-1.3046,-1.29,-1.2673,-1.2452,-1.2365,-1.2973,-1.3313,-1.3507,-1.3928,-1.4008,-1.3915,-2.2648,-2.2924,-2.3401,-2.3916,-2.4506,-2.4971,-2.5121,-2.5065,-2.5573,-2.7293,-2.7826,-2.8301,-2.9013,-2.9528,-2.9792,-2.9792,-2.9792,-2.9301,-2.825,-2.87,-2.8249,-2.6507,-2.7059,-2.6804,-2.5523,-2.4612,-2.3818,-2.3168,-2.1812,0.0,0.0,0.0,0.0,0.0,0.0,0.0,-1.9264,-1.9846,-2.0017,-1.9965,-2.0074,-2.0275,-2.0404,-2.0017,-2.0042,-2.0334,-1.9938,-1.9583,-1.9147,-1.9085,-1.9075,-1.9075,-1.9075,-1.9075,-1.9075,-1.9075,-1.8942,-1.8741,-1.8741,-1.8539,-1.8269,-1.8269,-1.8144,-1.8008,-1.8008,-1.7862,-1.7784,-1.794,-1.7745,-1.7598,-1.7706,-1.7235,-1.6769,-1.6272,-1.607,-1.5938,-1.5938,-1.5938,-1.5938,-1.5867,-1.5867,0.0,-1.5805,-1.5726,-1.5434,-1.4856,-1.5062,-1.5133,-1.4991,-1.5895,-1.6446,-1.6515,-1.6306,-1.6044,-1.5743,-1.4649,-1.387,-1.3558,-1.3514,-1.3492,-1.3492,-1.3492,-1.3492,-1.3492,-1.3492,-1.3273,-1.29,-1.29,-1.2721,-1.2472,-1.2959,-1.322,-1.338,-1.3854,-1.3895,-1.3741,-2.3865,-2.3778,-2.3879,-2.3979,-2.4808,-2.5774,-2.6703,-2.7231,-2.7723,-2.8549,-2.9139,-2.9704,-3.0256,-3.0005,-2.9792,-2.9792,-2.9792,-2.9716,-2.9515,-2.9591,-2.9089,-2.7798,-2.7908,-2.7017,-2.4996,-2.5033,-2.4735,-2.3986,-2.3192,-2.2922,0.0,0.0,0.0,0.0,0.0,0.0,-1.9911,-2.0031,-2.041,-2.0801,-2.0324,-2.0455,-2.0924,-2.026,-2.0084,-2.0138,-2.0063,-1.9913,-1.965,-1.9199,-1.9075,-1.9075,-1.9075,-1.9075,-1.9075,-1.9075,-1.8808,-1.8549,-1.8549,-1.8279,-1.8076,-1.8076,-1.8008,-1.8008,-1.8008,-1.794,-1.794,-1.8008,-1.794,-1.7872,-1.7706,-1.7235,-1.6839,-1.6769,-1.6621,-1.6542,-1.67,-1.67,-1.656,-1.6272,-1.6202,-1.607,-1.5797,-1.5505,-1.5488,-1.5991,-1.5488,-1.57,-1.6908,-1.6899,-1.7097,-1.7657,-1.6446,-1.5891,-1.6135,-1.4486,-1.3704,-1.3894,-1.3623,-1.3492,-1.3492,-1.3492,-1.3492,-1.3492,-1.3346,-1.3119,-1.29,-1.2746,-1.2825,-1.3039,-1.2886,-1.328,-1.3915,-1.3774,-1.3841,-1.4015,-2.5026,-2.4734,-2.481,-2.5548,-2.6364,-2.7281,-2.8411,-2.9051,-2.9289,-2.8976,-2.9164,-2.944,-2.9716,-2.9767,-2.9792,-2.9792,-2.9792,-2.9792,-2.9792,-2.9792,-2.9289,-2.816,-2.8109,-2.708,-2.487,-2.4941,-2.4673,-2.3858,-2.3065,-2.2835,0.0,0.0,0.0,0.0,0.0,-2.0694,-2.0983,-2.1438,-2.1728,-2.1947,-2.1682,-2.1567,-2.1468,-2.0831,-2.0613,-2.0613,-2.0613,-2.0314,-1.9892,-1.9271,-1.9075,-1.9075,-1.9075,-1.9075,-1.9075,-1.9075,-1.8808,-1.8482,-1.8482,-1.8279,-1.8008,-1.8008,-1.8008,-1.8008,-1.8008,-1.8008,-1.8008,-1.8008,-1.8184,-1.8261,-1.7983,-1.7812,-1.7537,-1.6972,-1.6942,-1.6926,-1.6866,-1.6908,-1.6839,-1.6621,-1.6551,-1.6342,-1.607,-1.585,-1.578,-1.6,-1.5718,-1.5921,-1.6839,-1.6908,-1.7185,-1.7745,-1.6594,-1.5972,-1.5939,-1.4496,-1.3784,-1.3726,-1.3572,-1.3492,-1.3492,-1.3492,-1.3492,-1.3492,-1.3419,-1.32,-1.29,-1.2599,-1.2553,-1.2759,-1.2926,-1.3247,-1.3654,-1.3814,-1.3968,-1.4088,-2.6092,-2.58,-2.5873,-2.7344,-2.8097,-2.8762,-2.9654,-3.0269,-3.0331,-2.9553,-2.9252,-2.9151,-2.9277,-2.9591,-2.9792,-2.9792,-2.9792,-2.9792,-2.9792,-2.9679,-2.9164,-2.8147,-2.7996,-2.7005,-2.5021,-2.4983,-2.4576,-2.3885,-2.304,-2.2739,-2.2811,0.0,0.0,0.0,-2.124,-2.1544,-2.2217,-2.2893,-2.3197,-2.3199,-2.3191,-2.2881,-2.2409,-2.1725,-2.1475,-2.1464,-2.1348,-2.0794,-2.0042,-1.9462,-1.9198,-1.9075,-1.9075,-1.9137,-1.9287,-1.9287,-1.8951,-1.8622,-1.8622,-1.8349,-1.8008,-1.8008,-1.8008,-1.8008,-1.8008,-1.8008,-1.8037,-1.8125,-1.8477,-1.8637,-1.8352,-1.8411,-1.8246,-1.7287,-1.7303,-1.7367,-1.7093,-1.7107,-1.7116,-1.7047,-1.683,-1.6612,-1.6412,-1.6202,-1.6,-1.5938,-1.5938,-1.6079,-1.6421,-1.67,-1.7047,-1.747,-1.6603,-1.5929,-1.5732,-1.4521,-1.3885,-1.3594,-1.3528,-1.3492,-1.3492,-1.3492,-1.3492,-1.3492,-1.3492,-1.3273,-1.29,-1.2452,-1.2338,-1.2438,-1.2852,-1.3133,-1.3353,-1.3754,-1.3981,-1.4088,-2.6886,-2.6747,-2.6898,-2.8486,-2.9252,-2.9679,-2.9779,-3.0269,-3.0746,-3.111,-3.0319,-2.9905,-3.0407,-3.0068,-2.9792,-2.9792,-2.9792,-2.9792,-2.9792,-2.9302,-2.8737,-2.8134,-2.762,-2.6779,-2.5548,-2.5523,-2.5378,-2.514,-2.4476,-2.4034,-2.3862,-2.2823,-2.2197,-2.1935,-2.2183,-2.2805,-2.3574,-2.3706,-2.4083,-2.4549,-2.394,-2.4059,-2.44,-2.3256,-2.2795,-2.2723,-2.2219,-2.1164,-2.0107,-2.0042,-1.9584,-1.9075,-1.9075,-1.9354,-1.9696,-1.9696,-1.943,-1.9153,-1.9153,-1.8587,-1.8008,-1.8008,-1.8008,-1.8008,-1.8008,-1.8008,-1.8115,-1.8496,-1.8926,-1.9156,-1.8947,-1.8902,-1.8705,-1.8095,-1.8138,-1.8155,-1.7705,-1.7794,-1.7803,-1.747,-1.7116,-1.683,-1.6839,-1.6211,-1.5938,-1.6202,-1.6272,-1.6421,-1.6839,-1.6908,-1.7047,-1.747,-1.6053,-1.5433,-1.5691,-1.429,-1.3719,-1.3931,-1.3638,-1.3492,-1.3492,-1.3492,-1.3492,-1.3492,-1.3492,-1.3273,-1.29,-1.2452,-1.2458,-1.2761,-1.2472,-1.2886,-1.3581,-1.3367,-1.3627,-1.4088,-2.8847,-2.8722,-2.8987,-3.0181,-3.0331,-3.0507,-3.1148,-3.0884,-3.0696,-3.0896,-3.0269,-2.988,-3.0093,-2.993,-2.9792,-2.9792,-2.9792,-2.9792,-2.9792,-2.9578,-2.9051,-2.8147,-2.7896,-2.7092,-2.5624,-2.5598,-2.5465,-2.5289,-2.4624,-2.4382,-2.4475,-2.3755,-2.337,-2.3382,-2.3664,-2.4117,-2.4743,-2.4863,-2.5274,-2.5774,-2.5145,-2.5008,-2.5156,-2.4424,-2.3887,-2.3566,-2.3343,-2.2151,-2.0677,-2.0677,-1.9977,-1.9075,-1.9075,-1.9385,-1.9827,-1.9827,-1.963,-1.9353,-1.9223,-1.8685,-1.8144,-1.8008,-1.8008,-1.8076,-1.833,-1.8193,-1.8203,-1.8887,-1.9365,-1.9668,-1.9594,-1.9454,-1.9158,-1.8466,-1.837,-1.8225,-1.792,-1.794,-1.794,-1.7657,-1.7392,-1.7185,-1.7107,-1.6491,-1.614,-1.6272,-1.614,-1.614,-1.6482,-1.6769,-1.6978,-1.7116,-1.6533,-1.5972,-1.5419,-1.4552,-1.398,-1.3689,-1.3558,-1.3492,-1.3492,-1.3492,-1.3492,-1.3492,-1.3273,-1.3046,-1.29,-1.2452,-1.2371,-1.2505,-1.2752,-1.3066,-1.3414,-1.3647,-1.3888,-1.4088,-3.039,-3.0123,-3.0363,-3.1637,-3.1185,-3.0922,-3.1838,-3.1198,-3.0557,-3.0394,-3.003,-2.9792,-2.9792,-2.9792,-2.9792,-2.9792,-2.9792,-2.9792,-2.9792,-2.9628,-2.9114,-2.8147,-2.7946,-2.7231,-2.5875,-2.585,-2.5782,-2.566,-2.5098,-2.4878,-2.5007,-2.456,-2.4455,-2.4653,-2.4731,-2.5162,-2.5702,-2.5444,-2.5686,-2.6151,-2.5598,-2.546,-2.5536,-2.5021,-2.4669,-2.4431,-2.4104,-2.2829,-2.1307,-2.136,-2.0344,-1.9075,-1.9075,-1.9385,-1.9827,-1.9827,-1.963,-1.9353,-1.9213,-1.8754,-1.8212,-1.8008,-1.8008,-1.8115,-1.8545,-1.8408,-1.8437,-1.9297,-1.9805,-2.0107,-2.0107,-1.9955,-1.9609,-1.8831,-1.8624,-1.8431,-1.8008,-1.794,-1.793,-1.7706,-1.752,-1.7382,-1.7373,-1.6751,-1.6482,-1.6621,-1.6351,-1.6211,-1.6482,-1.6769,-1.6978,-1.7047,-1.6881,-1.6306,-1.5551,-1.5108,-1.4681,-1.4129,-1.3912,-1.384,-1.3848,-1.3564,-1.3492,-1.3499,-1.3046,-1.29,-1.29,-1.2452,-1.2351,-1.2478,-1.2906,-1.318,-1.3387,-1.3808,-1.4015,-1.4088,-3.1241,-3.052,-3.0482,-3.2679,-3.17,-3.0796,-3.1323,-3.0947,-3.0419,-2.988,-2.9792,-2.9792,-2.9792,-2.9792,-2.9792,-2.9792,-2.9792,-2.9792,-2.9792,-2.9252,-2.8687,-2.8134,-2.7582,-2.703,-2.6533,-2.6521,-2.6521,-2.6521,-2.6245,-2.5903,-2.5411,-2.5154,-2.5209,-2.5398,-2.5344,-2.5722,-2.6377,-2.5297,-2.5134,-2.5561,-2.5046,-2.5146,-2.5536,-2.5021,-2.5134,-2.5435,-2.4381,-2.311,-2.1885,-2.202,-2.0782,-1.9075,-1.9075,-1.9385,-1.9827,-1.9827,-1.9492,-1.9223,-1.9223,-1.8616,-1.8008,-1.8008,-1.8008,-1.8115,-1.8545,-1.8633,-1.8877,-1.9727,-2.0254,-2.0557,-2.0557,-2.0557,-2.0206,-1.9139,-1.9141,-1.8903,-1.7831,-1.7862,-1.793,-1.7706,-1.7442,-1.7304,-1.7638,-1.7019,-1.6821,-1.747,-1.7116,-1.6908,-1.6908,-1.6908,-1.7047,-1.747,-1.6733,-1.6306,-1.6306,-1.5886,-1.5675,-1.5675,-1.4958,-1.4601,-1.453,-1.384,-1.3492,-1.3499,-1.3046,-1.29,-1.29,-1.2452,-1.2478,-1.2815,-1.2829,-1.3113,-1.3641,-1.3566,-1.3834,-1.4088,-3.2706,-3.2187,-3.1839,-3.2365,-3.1449,-3.067,-3.0834,-3.0407,-2.9993,-2.9817,-2.9792,-2.9792,-2.9792,-2.9792,-2.9792,-2.9792,-2.9428,-2.9202,-2.9202,-2.8674,-2.8122,-2.757,-2.7369,-2.703,-2.6533,-2.6533,-2.6533,-2.6533,-2.627,-2.6114,-2.5928,-2.5475,-2.5344,-2.5519,-2.5103,-2.5106,-2.5322,-2.4971,-2.4921,-2.5059,-2.4895,-2.4921,-2.5096,-2.5272,-2.5234,-2.5021,-2.4682,-2.3707,-2.2567,-2.2231,-2.1353,-2.0355,-1.9911,-1.9991,-2.0213,-2.0213,-2.0012,-1.988,-1.9727,-1.8974,-1.8144,-1.8008,-1.8008,-1.8115,-1.8545,-1.9092,-1.958,-1.9853,-2.0029,-2.0215,-2.0508,-1.9844,-1.9258,-1.9214,-1.8728,-1.832,-1.7969,-1.7852,-1.7725,-1.7588,-1.7382,-1.7314,-1.7529,-1.7107,-1.6968,-1.7245,-1.689,-1.676,-1.6908,-1.7185,-1.7254,-1.7116,-1.7314,-1.7088,-1.6306,-1.6446,-1.6237,-1.5675,-1.4958,-1.4322,-1.384,-1.3637,-1.3419,-1.3273,-1.3046,-1.2826,-1.2693,-1.2675,-1.2735,-1.2862,-1.32,-1.3474,-1.3667,-1.3874,-1.4008,-1.4088,-3.3556,-3.286,-3.232,-3.2344,-3.1241,-3.0382,-3.0583,-3.0143,-2.9792,-2.9792,-2.9792,-2.9792,-2.9792,-2.9792,-2.9792,-2.9792,-2.9465,-2.9164,-2.8938,-2.8612,-2.8072,-2.7318,-2.7281,-2.703,-2.6533,-2.6533,-2.6533,-2.6533,-2.6183,-2.5847,-2.566,-2.5485,-2.5365,-2.5297,-2.4971,-2.482,-2.4795,-2.4368,-2.4305,-2.4494,-2.428,-2.4318,-2.4556,-2.487,-2.5046,-2.5059,-2.4657,-2.3946,-2.3252,-2.2689,-2.1865,-2.106,-2.0921,-2.0687,-2.0481,-2.0035,-1.9715,-1.9515,-1.9434,-1.8824,-1.8144,-1.8008,-1.8008,-1.8164,-1.875,-1.9414,-1.9912,-1.9912,-1.9912,-1.9951,-2.0068,-1.9424,-1.8916,-1.9023,-1.8594,-1.8125,-1.7949,-1.7784,-1.7647,-1.7539,-1.7392,-1.7382,-1.7588,-1.7382,-1.7314,-1.752,-1.7235,-1.7166,-1.7323,-1.7392,-1.7392,-1.7314,-1.7735,-1.7657,-1.6941,-1.7217,-1.7162,-1.681,-1.588,-1.4941,-1.3857,-1.3857,-1.3783,-1.3543,-1.3198,-1.3063,-1.2941,-1.2864,-1.2956,-1.312,-1.3494,-1.3707,-1.3834,-1.4015,-1.4088,-1.4088,-3.3713,-3.2708,-3.1932,-3.2492,-3.1019,-2.9955,-3.0482,-3.0118,-2.9792,-2.9792,-2.9792,-2.9792,-2.9792,-2.9792,-2.9792,-2.9792,-2.9754,-2.949,-2.89,-2.8837,-2.8335,-2.7268,-2.7218,-2.6979,-2.6533,-2.6533,-2.6508,-2.6471,-2.5862,-2.5335,-2.4833,-2.5272,-2.5222,-2.4757,-2.472,-2.4707,-2.4632,-2.3516,-2.3439,-2.3891,-2.3351,-2.3452,-2.3941,-2.3979,-2.4619,-2.5347,-2.4356,-2.3924,-2.3717,-2.3244,-2.2261,-2.1313,-2.1928,-2.1498,-2.063,-1.9565,-1.8916,-1.859,-1.8522,-1.8299,-1.8008,-1.8008,-1.8008,-1.8232,-1.9092,-1.959,-1.9883,-1.9951,-1.9912,-1.9756,-1.9394,-1.9258,-1.9072,-1.8701,-1.8572,-1.8346,-1.7773,-1.7735,-1.7686,-1.7539,-1.747,-1.7529,-1.7706,-1.7706,-1.7784,-1.794,-1.8008,-1.8008,-1.8008,-1.7548,-1.748,-1.8008,-1.8008,-1.8008,-1.8008,-1.8037,-1.8193,-1.8469,-1.7347,-1.6032,-1.4472,-1.4465,-1.4301,-1.4038,-1.36,-1.3404,-1.3482,-1.3067,-1.314,-1.3566,-1.3667,-1.3841,-1.4088,-1.4088,-1.4088,-1.4088,-3.3998,-3.2713,-3.1652,-3.1919,-3.0899,-3.0061,-2.9967,-2.988,-2.9792,-2.9792,-2.9792,-2.9792,-2.9792,-2.9792,-2.9792,-2.9792,-2.939,-2.89,-2.8335,-2.7908,-2.7369,-2.6747,-2.6653,-2.6659,-2.6533,-2.6533,-2.6239,-2.5799,-2.5661,-2.5335,-2.4808,-2.4519,-2.4305,-2.4167,-2.3728,-2.3466,-2.3453,-2.3178,-2.3153,-2.3326,-2.3188,-2.3165,-2.3389,-2.3828,-2.4155,-2.4343,-2.4092,-2.3954,-2.3891,-2.3315,-2.2884,-2.2567,-2.2237,-2.1635,-2.0967,-2.051,-1.9865,-1.9259,-1.9062,-1.8674,-1.8202,-1.8008,-1.8008,-1.8232,-1.9092,-1.9365,-1.9619,-2.0273,-1.9893,-1.9502,-1.9727,-1.8965,-1.8389,-1.8603,-1.8501,-1.8206,-1.7764,-1.7856,-1.7881,-1.7577,-1.747,-1.7529,-1.7706,-1.7706,-1.7706,-1.7784,-1.7784,-1.7784,-1.7784,-1.7973,-1.8081,-1.8018,-1.8008,-1.8008,-1.8008,-1.833,-1.8052,-1.7261,-1.6689,-1.5713,-1.4465,-1.4301,-1.4059,-1.3895,-1.3583,-1.3362,-1.3299,-1.3367,-1.3514,-1.3667,-1.3895,-1.4021,-1.4088,-1.4088,-1.4088,-1.4088,-3.4178,-3.2979,-3.1926,-3.2089,-3.1046,-3.0152,-2.9934,-2.9934,-2.9856,-2.9792,-2.9792,-2.9792,-2.9792,-2.9792,-2.9792,-2.9792,-2.9503,-2.9089,-2.8511,-2.7959,-2.7419,-2.6866,-2.6659,-2.6533,-2.6533,-2.6533,-2.6063,-2.5247,-2.5247,-2.4833,-2.4042,-2.4017,-2.3853,-2.3602,-2.3552,-2.3389,-2.3078,-2.3078,-2.3078,-2.3078,-2.3078,-2.3078,-2.3115,-2.3477,-2.3766,-2.3966,-2.3703,-2.3778,-2.3916,-2.3265,-2.3078,-2.3065,-2.2689,-2.2125,-2.1549,-2.1445,-2.0489,-1.9448,-1.898,-1.872,-1.8569,-1.8311,-1.8291,-1.8516,-1.9385,-1.957,-1.9707,-2.0166,-1.9893,-1.958,-1.9619,-1.8896,-1.8369,-1.8523,-1.8257,-1.7985,-1.7735,-1.7779,-1.7786,-1.7617,-1.7588,-1.7657,-1.7784,-1.7852,-1.7852,-1.7852,-1.7852,-1.7852,-1.7852,-1.8279,-1.8405,-1.8301,-1.8486,-1.8594,-1.8594,-1.9014,-1.8517,-1.7141,-1.7022,-1.6194,-1.4743,-1.4655,-1.4405,-1.4061,-1.3842,-1.3709,-1.3614,-1.3634,-1.3728,-1.3861,-1.4021,-1.4088,-1.4088,-1.4088,-1.4088,-1.4088,-3.4254,-3.3125,-3.224,-3.2238,-3.1229,-3.0368,-3.0152,-3.0152,-3.0011,-2.9869,-2.9792,-2.9792,-2.9792,-2.9792,-2.9792,-2.9792,-2.9792,-2.9553,-2.8963,-2.8411,-2.7858,-2.7306,-2.6753,-2.6533,-2.6533,-2.6533,-2.5925,-2.482,-2.482,-2.4243,-2.3078,-2.364,-2.3602,-2.309,-2.3653,-2.359,-2.3078,-2.3078,-2.3078,-2.3078,-2.3078,-2.3078,-2.3078,-2.3078,-2.3439,-2.3803,-2.3314,-2.3452,-2.3791,-2.3301,-2.3078,-2.3078,-2.3078,-2.2616,-2.2101,-2.2101,-2.1112,-1.9791,-1.8931,-1.8838,-1.8924,-1.8764,-1.874,-1.8945,-1.9736,-1.9912,-1.9932,-2.0,-1.9961,-1.9805,-1.9443,-1.8975,-1.8582,-1.865,-1.8151,-1.7734,-1.7734,-1.7684,-1.7624,-1.7812,-1.7802,-1.79,-1.8193,-1.8203,-1.8203,-1.8203,-1.8203,-1.8203,-1.8203,-1.8603,-1.8828,-1.8828,-1.9121,-1.9316,-1.9375,-1.9678,-1.9032,-1.7456,-1.7792,-1.6903,-1.5173,-1.509,-1.4824,-1.4468,-1.4131,-1.4007,-1.4068,-1.3814,-1.3854,-1.4088,-1.4088,-1.4088,-1.4088,-1.4088,-1.4088,-1.4088,-3.3613,-3.2385,-3.1328,-3.1552,-3.1112,-3.0622,-3.0368,-3.0228,-3.0075,-3.0088,-2.9934,-2.9792,-2.9792,-2.9792,-2.9792,-2.9792,-2.9792,-2.9553,-2.8963,-2.8411,-2.7858,-2.7306,-2.6753,-2.6533,-2.6533,-2.6533,-2.5925,-2.482,-2.482,-2.4243,-2.3078,-2.3226,-2.3165,-2.3078,-2.3226,-2.3165,-2.3078,-2.3078,-2.3078,-2.3078,-2.3078,-2.3078,-2.3078,-2.3078,-2.3188,-2.3263,-2.3103,-2.3128,-2.3263,-2.3103,-2.3078,-2.3078,-2.3078,-2.2616,-2.2101,-2.2101,-2.1865,-2.125,-1.9966,-1.9266,-1.8974,-1.9144,-1.9189,-1.9316,-1.9805,-1.9912,-2.0019,-2.0391,-2.0166,-1.9893,-1.9824,-1.917,-1.8689,-1.8923,-1.84,-1.8052,-1.8052,-1.8052,-1.8062,-1.8283,-1.8405,-1.8611,-1.9053,-1.9092,-1.9092,-1.9092,-1.9092,-1.9092,-1.9092,-1.9492,-1.9717,-1.9717,-1.9443,-1.9453,-1.9814,-1.9531,-1.8901,-1.7912,-1.7655,-1.675,-1.5347,-1.4908,-1.4741,-1.465,-1.428,-1.4126,-1.4082,-1.4041,-1.4048,-1.4088,-1.4088,-1.4088,-1.4088,-1.4088,-1.4088,-1.4088,-3.3535,-3.2437,-3.1446,-3.1629,-3.1213,-3.0761,-3.0609,-3.0457,-3.0381,-3.0305,-3.0075,-2.9934,-2.9934,-2.9869,-2.9792,-2.9792,-2.9792,-2.9679,-2.9415,-2.8586,-2.7996,-2.7733,-2.6917,-2.6533,-2.6533,-2.6151,-2.5611,-2.482,-2.4519,-2.3954,-2.3078,-2.3078,-2.3078,-2.3078,-2.3078,-2.3078,-2.3078,-2.3078,-2.3078,-2.3078,-2.3078,-2.3078,-2.3078,-2.3078,-2.3078,-2.3078,-2.3078,-2.3078,-2.3078,-2.3078,-2.3078,-2.3078,-2.3078,-2.2884,-2.2616,-2.2616,-2.1741,-2.0733,-2.0665,-1.9766,-1.9013,-1.9387,-1.936,-1.9336,-1.9531,-1.958,-1.9697,-2.0127,-1.9873,-1.9648,-1.9873,-1.9209,-1.8718,-1.8937,-1.8375,-1.7951,-1.819,-1.8228,-1.8308,-1.8511,-1.8786,-1.9072,-1.9268,-1.9287,-1.9287,-1.9287,-1.9287,-1.9287,-1.9287,-1.9687,-1.9912,-1.9912,-1.9961,-2.0068,-2.0264,-2.0078,-1.9303,-1.7997,-1.7826,-1.6879,-1.5257,-1.4999,-1.4741,-1.4566,-1.4321,-1.4159,-1.4088,-1.4088,-1.4088,-1.4088,-1.4088,-1.4088,-1.4088,-1.4088,-1.4088,-1.4088,-3.3182,-3.2359,-3.164,-3.164,-3.1274,-3.0911,-3.0773,-3.0698,-3.0622,-3.052,-3.0228,-3.0075,-3.0075,-2.9934,-2.9792,-2.9792,-2.9666,-2.9591,-2.9591,-2.8536,-2.7971,-2.8097,-2.7055,-2.6533,-2.6533,-2.6025,-2.5536,-2.5008,-2.4456,-2.3904,-2.3339,-2.3201,-2.3078,-2.3078,-2.3078,-2.3078,-2.3078,-2.3078,-2.3078,-2.3078,-2.3078,-2.3078,-2.3078,-2.3078,-2.3078,-2.3078,-2.3078,-2.3078,-2.3078,-2.3078,-2.3078,-2.3078,-2.3078,-2.3078,-2.3078,-2.3078,-2.1803,-2.0444,-2.1129,-2.0322,-1.9294,-1.9541,-1.9505,-1.937,-1.9287,-1.9365,-1.9531,-1.9844,-1.9736,-1.9678,-2.001,-1.9443,-1.8971,-1.9091,-1.8504,-1.8129,-1.8395,-1.8533,-1.8634,-1.8854,-1.9228,-1.9473,-1.957,-1.958,-1.958,-1.958,-1.958,-1.958,-1.958,-1.9893,-2.0068,-2.0068,-2.0391,-2.0566,-2.0566,-2.0566,-1.9844,-1.8318,-1.8318,-1.7432,-1.5733,-1.5492,-1.5068,-1.4727,-1.4482,-1.4243,-1.4166,-1.4088,-1.4166,-1.4166,-1.4088,-1.4088,-1.4088,-1.4088,-1.4088,-1.4088,-3.1889,-3.147,-3.1052,-3.1052,-3.1013,-3.0986,-3.0986,-3.0849,-3.0698,-3.0698,-3.0318,-3.0075,-3.0075,-2.9934,-2.9792,-2.9792,-2.9302,-2.8988,-2.8988,-2.7959,-2.757,-2.8084,-2.7055,-2.6533,-2.6533,-2.6483,-2.6113,-2.5536,-2.5008,-2.4469,-2.3916,-2.3389,-2.3078,-2.3078,-2.3078,-2.3078,-2.3078,-2.3078,-2.3078,-2.3078,-2.3078,-2.3078,-2.3078,-2.3078,-2.3078,-2.3078,-2.3078,-2.3078,-2.3078,-2.3078,-2.3078,-2.3078,-2.3078,-2.3078,-2.3078,-2.3078,-2.2555,-2.1835,-2.1578,-2.094,-2.0265,-1.9705,-1.9608,-1.9525,-1.937,-1.959,-1.9873,-1.9902,-2.0215,-2.0478,-2.0508,-2.0137,-1.9759,-1.9572,-1.9206,-1.8918,-1.8956,-1.8956,-1.9174,-1.9775,-1.9853,-2.0029,-2.043,-2.0469,-2.0469,-2.0469,-2.0469,-2.0469,-2.0469,-2.0498,-2.0518,-2.0518,-2.0547,-2.0566,-2.0566,-2.0566,-2.0167,-1.9213,-1.9213,-1.8736,-1.7755,-1.6527,-1.5876,-1.5794,-1.4657,-1.4243,-1.4398,-1.4166,-1.4243,-1.4398,-1.4166,-1.4088,-1.4088,-1.4088,-1.4088,-1.4088,-3.2573,-3.1744,-3.0986,-3.0986,-3.0986,-3.0986,-3.0986,-3.0911,-3.0911,-3.0911,-3.0533,-3.0292,-3.0292,-2.9758,-2.9391,-2.9391,-2.9022,-2.8832,-2.9038,-2.8041,-2.7372,-2.7092,-2.6747,-2.6533,-2.6533,-2.6101,-2.5824,-2.5598,-2.5071,-2.4544,-2.3991,-2.3778,-2.3477,-2.3078,-2.3078,-2.3078,-2.3078,-2.3078,-2.3078,-2.3078,-2.3078,-2.3078,-2.3078,-2.3078,-2.3078,-2.3078,-2.3078,-2.3078,-2.3078,-2.3078,-2.3078,-2.3078,-2.3078,-2.3078,-2.3078,-2.3078,-2.2944,-2.2482,-2.1533,-2.0842,-2.0339,-1.9565,-1.9262,-1.9031,-1.8625,-1.8818,-1.9199,-1.9473,-1.9658,-1.9853,-2.0107,-1.9814,-1.9535,-1.9581,-1.9348,-1.9238,-1.9351,-1.9464,-1.9662,-1.9893,-2.0156,-2.0381,-2.0547,-2.0566,-2.0566,-2.0566,-2.0566,-2.0566,-2.0566,-2.0566,-2.0566,-2.0566,-2.0566,-2.0566,-2.0566,-2.0566,-2.0167,-1.9301,-1.9301,-1.8816,-1.7997,-1.6944,-1.637,-1.6221,-1.4985,-1.4405,-1.4398,-1.4159,-1.4166,-1.4243,-1.4166,-1.4088,-1.4088,-1.4088,-1.4088,-1.4088,-3.3079,-3.2312,-3.169,-3.169,-3.1468,-3.1334,-3.1334,-3.1123,-3.0986,-3.0986,-3.0685,-3.0456,-3.0188,-2.9832,-2.9401,-2.9045,-2.8902,-2.8873,-2.8753,-2.7817,-2.7075,-2.6546,-2.6533,-2.6533,-2.6533,-2.6063,-2.5862,-2.5862,-2.5322,-2.4795,-2.4255,-2.4079,-2.369,-2.3078,-2.3078,-2.3078,-2.3078,-2.3078,-2.3078,-2.3078,-2.3078,-2.3078,-2.3078,-2.3078,-2.3078,-2.3078,-2.3078,-2.3078,-2.3078,-2.3078,-2.3078,-2.3078,-2.3078,-2.3078,-2.3078,-2.3078,-2.3078,-2.2884,-2.1753,-2.1167,-2.0593,-1.9308,-1.8964,-1.8844,-1.834,-1.8643,-1.9121,-1.9424,-1.959,-1.9775,-2.0068,-1.9883,-1.9736,-1.9676,-1.972,-1.9671,-1.9676,-1.9963,-2.0117,-2.0117,-2.0381,-2.0566,-2.0566,-2.0566,-2.0566,-2.0566,-2.0566,-2.0566,-2.0566,-2.0566,-2.0566,-2.0566,-2.0566,-2.0566,-2.0566,-2.0566,-2.0323,-1.9696,-1.9696,-1.9371,-1.8798,-1.7827,-1.735,-1.7115,-1.6041,-1.5304,-1.4977,-1.4817,-1.458,-1.425,-1.425,-1.4166,-1.4088,-1.4088,-1.4088,-1.4088,-3.3213,-3.3213,-3.3213,-3.3213,-3.2577,-3.2074,-3.2074,-3.1468,-3.0986,-3.0986,-3.0849,-3.0478,-2.9883,-3.0173,-2.9894,-2.8682,-2.9177,-2.9036,-2.7882,-2.7087,-2.6658,-2.6533,-2.6533,-2.6533,-2.6533,-2.6533,-2.6533,-2.6533,-2.5887,-2.5335,-2.4808,-2.4268,-2.369,-2.3078,-2.3078,-2.3078,-2.3078,-2.3078,-2.3078,-2.3078,-2.3078,-2.3078,-2.3078,-2.3078,-2.3078,-2.3078,-2.3078,-2.3078,-2.3078,-2.3078,-2.3078,-2.3078,-2.3078,-2.3078,-2.3078,-2.3078,-2.3078,-2.2944,-2.231,-2.194,-2.124,-1.9055,-1.8891,-1.9084,-1.8703,-1.9297,-1.9912,-1.9912,-2.0264,-2.0566,-2.0566,-2.0566,-2.042,-1.999,-2.0283,-2.041,-1.998,-2.0293,-2.0566,-2.0566,-2.0566,-2.0566,-2.0566,-2.0566,-2.0566,-2.0566,-2.0566,-2.0566,-2.0566,-2.0566,-2.0566,-2.0566,-2.0566,-2.0566,-2.0566,-2.0566,-2.0566,-2.0566,-2.0566,-2.0566,-2.0566,-1.952,-1.9036,-1.8957,-1.7827,-1.6944,-1.6394,-1.6131,-1.547,-1.465,-1.4482,-1.4237,-1.4088,-1.4088,-1.4088,-1.4088,-3.3973,-3.3561,-3.3213,-3.3213,-3.2577,-3.2074,-3.2074,-3.1468,-3.0986,-3.0986,-3.0849,-3.0633,-3.0452,-2.9809,-2.9434,-2.9473,-2.8977,-2.8542,-2.8066,-2.7551,-2.7145,-2.6671,-2.6521,-2.6533,-2.6533,-2.6533,-2.6533,-2.6533,-2.6289,-2.5724,-2.482,-2.4657,-2.4054,-2.3078,-2.3078,-2.3078,-2.3078,-2.3078,-2.3078,-2.3078,-2.3078,-2.3078,-2.3078,-2.3078,-2.3078,-2.3078,-2.3078,-2.3078,-2.3078,-2.3078,-2.3078,-2.3078,-2.3078,-2.3078,-2.3078,-2.3078,-2.3078,-2.3032,-2.2783,-2.2286,-2.1438,-1.9833,-1.9517,-1.9534,-1.8983,-1.937,-1.9912,-1.9912,-2.0264,-2.0566,-2.0566,-2.0566,-2.0518,-2.0391,-2.0478,-2.0518,-2.0391,-2.0478,-2.0566,-2.0566,-2.0566,-2.0566,-2.0566,-2.0566,-2.0566,-2.0566,-2.0566,-2.0566,-2.0566,-2.0566,-2.0566,-2.0566,-2.0566,-2.0566,-2.0566,-2.0566,-2.0566,-2.0566,-2.0566,-2.0566,-2.0566,-1.9618,-1.9213,-1.9134,-1.8069,-1.7504,-1.7261,-1.7017,-1.6363,-1.5379,-1.5462,-1.4977,-1.4088,-1.4237,-1.4243,-1.4088,-3.4758,-3.4423,-3.407,-3.407,-3.3492,-3.2847,-3.2577,-3.1882,-3.1241,-3.0747,-3.0511,-3.0255,-2.9874,-2.9418,-2.9184,-2.9275,-2.8708,-2.8408,-2.8433,-2.7767,-2.7163,-2.6739,-2.6589,-2.6533,-2.6533,-2.6533,-2.6533,-2.6533,-2.6533,-2.59,-2.482,-2.482,-2.4217,-2.3078,-2.3078,-2.3078,-2.3078,-2.3078,-2.3078,-2.3078,-2.3078,-2.3078,-2.3078,-2.3078,-2.3078,-2.3078,-2.3078,-2.3078,-2.3078,-2.3078,-2.3078,-2.3078,-2.3078,-2.3078,-2.3078,-2.3078,-2.3078,-2.313,-2.3304,-2.2752,-2.19,-2.1119,-2.0491,-1.9995,-1.9489,-1.9816,-2.0176,-2.0176,-2.0381,-2.0566,-2.0566,-2.0566,-2.0566,-2.0566,-2.0566,-2.0566,-2.0566,-2.0566,-2.0566,-2.0566,-2.0566,-2.0566,-2.0566,-2.0566,-2.0566,-2.0566,-2.0566,-2.0566,-2.0566,-2.0566,-2.0566,-2.0566,-2.0566,-2.0566,-2.0566,-2.0566,-2.0566,-2.0566,-2.0566,-2.0566,-2.0566,-2.0089,-1.9775,-1.9775,-1.9116,-1.863,-1.8318,-1.8158,-1.7496,-1.6519,-1.6601,-1.6124,-1.522,-1.5379,-1.5304,-1.5068,-3.5504,-3.5504,-3.5504,-3.5504,-3.4824,-3.4041,-3.3283,-3.2536,-3.1541,-3.0275,-3.0137,-2.9706,-2.8582,-2.8948,-2.9078,-2.8582,-2.849,-2.8591,-2.8918,-2.7683,-2.6943,-2.6714,-2.6589,-2.6533,-2.6533,-2.6533,-2.6533,-2.6533,-2.6533,-2.59,-2.482,-2.482,-2.4217,-2.3078,-2.3078,-2.3078,-2.3078,-2.3078,-2.3078,-2.3078,-2.3078,-2.3078,-2.3078,-2.3078,-2.3078,-2.3078,-2.3078,-2.3078,-2.3078,-2.3078,-2.3078,-2.3078,-2.3078,-2.3078,-2.3078,-2.3078,-2.3078,-2.3203,-2.3841,-2.3316,-2.2616,-2.2662,-2.1657,-2.0571,-2.0297,-2.0407,-2.0644,-2.0566,-2.0566,-2.0566,-2.0566,-2.0566,-2.0566,-2.0566,-2.0566,-2.0566,-2.0566,-2.0566,-2.0566,-2.0566,-2.0566,-2.0566,-2.0566,-2.0566,-2.0566,-2.0566,-2.0566,-2.0566,-2.0566,-2.0566,-2.0566,-2.0566,-2.0566,-2.0566,-2.0566,-2.0566,-2.0566,-2.0566,-2.0566,-2.0566,-2.0566,-2.0566,-2.0566,-2.0566,-2.0566,-2.0167,-1.9381,-1.9381,-1.8807,-1.7819,-1.7819,-1.7496,-1.7001,-1.7082,-1.6927,-1.6617,-3.5504,-3.5504,-3.5504,-3.5504,-3.4824,-3.4041,-3.3283,-3.2177,-3.107,-3.021,-3.0137,-2.9862,-2.9157,-2.9196,-2.9405,-2.9732,-2.9353,-2.8864,-2.833,-2.7464,-2.6943,-2.6714,-2.6589,-2.6533,-2.6533,-2.6533,-2.6533,-2.6533,-2.6533,-2.59,-2.482,-2.482,-2.4217,-2.3078,-2.3078,-2.3078,-2.3078,-2.3078,-2.3078,-2.3078,-2.3078,-2.3078,-2.3078,-2.3078,-2.3078,-2.3078,-2.3078,-2.3078,-2.3078,-2.3078,-2.3078,-2.3078,-2.3078,-2.3078,-2.3078,-2.3078,-2.3078,-2.3203,-2.3841,-2.3717,-2.3317,-2.3167,-2.2578,-2.1753,-2.0676,-2.0655,-2.0819,-2.0644,-2.0566,-2.0566,-2.0566,-2.0566,-2.0566,-2.0566,-2.0566,-2.0566,-2.0566,-2.0566,-2.0566,-2.0566,-2.0566,-2.0566,-2.0566,-2.0566,-2.0566,-2.0566,-2.0566,-2.0566,-2.0566,-2.0566,-2.0566,-2.0566,-2.0566,-2.0566,-2.0566,-2.0566,-2.0566,-2.0566,-2.0566,-2.0566,-2.0566,-2.0566,-2.0566,-2.0566,-2.0566,-2.0489,-2.0323,-2.0323,-1.9687,-1.8709,-1.8886,-1.8238,-1.7253,-1.7496,-1.7326,-1.6927,-3.5504,-3.5504,-3.5504,-3.5504,-3.5133,-3.4624,-3.3837,-3.2863,-3.1801,-3.0775,-3.0092,-2.951,-2.8922,-2.8608,-2.8673,-2.9248,-2.9026,-2.8712,-2.8274,-2.7524,-2.7079,-2.6998,-2.6726,-2.6589,-2.6589,-2.6521,-2.6533,-2.6533,-2.6533,-2.6025,-2.5197,-2.5197,-2.4607,-2.3552,-2.3552,-2.3389,-2.3078,-2.3078,-2.3078,-2.3078,-2.3078,-2.3078,-2.3078,-2.3078,-2.3078,-2.3078,-2.3078,-2.3078,-2.3078,-2.3078,-2.3078,-2.3078,-2.3078,-2.3078,-2.3188,-2.3464,-2.3351,-2.3315,-2.4469,-2.4161,-2.368,-2.4108,-2.3419,-2.2221,-2.113,-2.0804,-2.0731,-2.0644,-2.0566,-2.0566,-2.0566,-2.0566,-2.0566,-2.0566,-2.0566,-2.0566,-2.0566,-2.0566,-2.0566,-2.0566,-2.0566,-2.0566,-2.0566,-2.0566,-2.0566,-2.0566,-2.0566,-2.0566,-2.0566,-2.0566,-2.0566,-2.0566,-2.0566,-2.0566,-2.0566,-2.0566,-2.0566,-2.0566,-2.0566,-2.0566,-2.0566,-2.0566,-2.0566,-2.0566,-2.0566,-2.0566,-2.0566,-2.0566,-2.0245,-1.9756,-1.9854,-1.945,-1.8718,-1.8877,-1.839,-1.7568,-3.5504,-3.5504,-3.5504,-3.5504,-3.5504,-3.5213,-3.4394,-3.3682,-3.2807,-3.1541,-3.0368,-2.9446,-2.8836,-2.8211,-2.7945,-2.8394,-2.8389,-2.8347,-2.8242,-2.7663,-2.7268,-2.7201,-2.6863,-2.6714,-2.6658,-2.6589,-2.6533,-2.6533,-2.6533,-2.6163,-2.5598,-2.5598,-2.5071,-2.4142,-2.4142,-2.3866,-2.3353,-2.3265,-2.3215,-2.3215,-2.3115,-2.3078,-2.3078,-2.3078,-2.3078,-2.3078,-2.3078,-2.3078,-2.3078,-2.3078,-2.3078,-2.3078,-2.3078,-2.3078,-2.3226,-2.3715,-2.3514,-2.3464,-2.4921,-2.4575,-2.4008,-2.4857,-2.4062,-2.2734,-2.1568,-2.0964,-2.0644,-2.0644,-2.0566,-2.0566,-2.0566,-2.0566,-2.0566,-2.0566,-2.0566,-2.0566,-2.0566,-2.0566,-2.0566,-2.0566,-2.0566,-2.0566,-2.0566,-2.0635,-2.0644,-2.0576,-2.0635,-2.0644,-2.0566,-2.0566,-2.0566,-2.0566,-2.0566,-2.0566,-2.0566,-2.0566,-2.0566,-2.0566,-2.0566,-2.0566,-2.0566,-2.0566,-2.0566,-2.0566,-2.0566,-2.0566,-2.0566,-2.0566,-2.0566,-2.0566,-2.0566,-2.0489,-2.0342,-2.0342,-1.9608,-1.855,-3.5504,-3.5504,-3.5504,-3.5504,-3.5504,-3.5213,-3.4394,-3.3796,-3.3168,-3.2314,-3.1565,-3.0884,-3.0308,-2.9597,-2.8945,-2.8514,-2.841,-2.8108,-2.7478,-2.7387,-2.7134,-2.6794,-2.6726,-2.6658,-2.6521,-2.6533,-2.6533,-2.6533,-2.6533,-2.6163,-2.5598,-2.5598,-2.5285,-2.4707,-2.4707,-2.4669,-2.4556,-2.4092,-2.3879,-2.3841,-2.3339,-2.3078,-2.3078,-2.3078,-2.3078,-2.3078,-2.3078,-2.3078,-2.3078,-2.3078,-2.3078,-2.3078,-2.3078,-2.3078,-2.309,-2.3226,-2.3128,-2.3288,-2.4017,-2.4442,-2.4554,-2.4402,-2.4378,-2.3986,-2.2317,-2.1425,-2.0819,-2.0644,-2.0566,-2.0566,-2.0566,-2.0566,-2.0566,-2.0566,-2.0566,-2.0566,-2.0566,-2.0566,-2.0566,-2.0566,-2.0566,-2.0566,-2.0566,-2.0918,-2.0986,-2.0596,-2.0918,-2.0977,-2.0586,-2.0566,-2.0566,-2.0566,-2.0566,-2.0566,-2.0566,-2.0566,-2.0566,-2.0566,-2.0566,-2.0566,-2.0566,-2.0566,-2.0566,-2.0566,-2.0566,-2.0566,-2.0566,-2.0566,-2.0566,-2.0566,-2.0566,-2.0566,-2.0566,-2.0342,-2.002,-1.9618,-3.5504,-3.5504,-3.5504,-3.5504,-3.5504,-3.5359,-3.5052,-3.4376,-3.3723,-3.3044,-3.2047,-3.1148,-3.0516,-2.9508,-2.8766,-2.8495,-2.8146,-2.773,-2.7416,-2.7403,-2.7268,-2.7066,-2.693,-2.6794,-2.6589,-2.6521,-2.6533,-2.6533,-2.6533,-2.6327,-2.6076,-2.6076,-2.5787,-2.5259,-2.5259,-2.5096,-2.4808,-2.4556,-2.428,-2.4004,-2.4054,-2.3703,-2.3115,-2.3489,-2.3414,-2.3078,-2.3078,-2.3078,-2.3078,-2.3078,-2.3351,-2.3615,-2.3615,-2.3828,-2.4079,-2.4079,-2.3853,-2.374,-2.4305,-2.4406,-2.4429,-2.4731,-2.4618,-2.4213,-2.3554,-2.2435,-2.1318,-2.0722,-2.0566,-2.0566,-2.0566,-2.0566,-2.0566,-2.0566,-2.0566,-2.0566,-2.0566,-2.0566,-2.0566,-2.0566,-2.0566,-2.0566,-2.0566,-2.0742,-2.0781,-2.0576,-2.0752,-2.0771,-2.0576,-2.0566,-2.0566,-2.0566,-2.0566,-2.0566,-2.0566,-2.0566,-2.0566,-2.0566,-2.0566,-2.0566,-2.0566,-2.0566,-2.0566,-2.0566,-2.0566,-2.0566,-2.0566,-2.0566,-2.0566,-2.0566,-2.0566,-2.0566,-2.0566,-2.0342,-2.0098,-1.9863]},{"header":{"parameterUnit":"m.s-1","parameterCategory":1,"la1":30.6,"la2":28.766,"lo1":-90.7593,"lo2":-88.6598,"dy":0.0162,"dx":0.0183,"nx":116,"ny":114,"refTime":"2023-07-10T12:00:00:Z","depth":0,"parameterNumber":3,"parameterNumberName":"V-component_of_WINDS"},"data":[0.0,0.0,0.0,0.0,0.0,0.0,0.0,0.0,0.0,0.0,0.0,0.0,0.0,0.0,0.0,0.0,0.0,0.0,0.0,0.0,0.0,0.0,0.0,0.0,0.0,0.0,0.0,0.0,0.0,0.0,0.0,0.0,0.0,0.0,0.0,0.0,0.0,0.0,0.0,0.0,0.0,0.0,0.0,0.0,0.0,0.0,0.0,0.0,0.0,0.0,0.0,0.0,0.0,0.0,0.0,0.0,0.0,0.0,0.0,0.0,0.0,0.0,0.0,0.0,0.0,0.0,0.0,0.0,0.0,0.0,0.0,0.0,0.0,0.0,0.0,0.0,0.0,0.0,0.0,0.0,0.0,0.0,0.0,0.0,0.0,0.0,0.0,0.0,0.0,0.0,0.0,0.0,0.0,0.0,0.0,0.0,0.0,0.0,0.0,0.0,0.0,0.0,0.0,0.0,0.0,0.0,0.0,0.0,0.0,0.0,0.0,0.0,0.0,0.0,0.0,0.0,0.0,0.0,0.0,0.0,0.0,0.0,0.0,0.0,0.0,0.0,0.0,0.0,0.0,0.0,0.0,0.0,0.0,0.0,0.0,0.0,0.0,0.0,0.0,0.0,0.0,0.0,0.0,0.0,0.0,0.0,0.0,0.0,0.0,0.0,0.0,0.0,0.0,0.0,0.0,0.0,0.0,0.0,0.0,0.0,0.0,0.0,0.0,0.0,0.0,0.0,0.0,0.0,0.0,0.0,0.0,0.0,0.0,0.0,0.0,0.0,0.0,0.0,0.0,0.0,0.0,0.0,0.0,0.0,0.0,0.0,0.0,0.0,0.0,0.0,0.0,0.0,0.0,0.0,0.0,0.0,0.0,0.0,0.0,0.0,0.0,0.0,0.0,0.0,0.0,0.0,0.0,0.0,0.0,0.0,0.0,0.0,0.0,0.0,0.0,0.0,0.0,0.0,0.0,0.0,0.0,0.0,0.0,0.0,0.0,0.0,0.0,0.0,0.0,0.0,0.0,0.0,0.0,0.0,0.0,0.0,0.0,0.0,0.0,0.0,0.0,0.0,0.0,0.0,0.0,0.0,0.0,0.0,0.0,0.0,0.0,0.0,0.0,0.0,0.0,0.0,0.0,0.0,0.0,0.0,0.0,0.0,0.0,0.0,0.0,0.0,0.0,0.0,0.0,0.0,0.0,0.0,0.0,0.0,0.0,0.0,0.0,0.0,0.0,0.0,0.0,0.0,0.0,0.0,0.0,0.0,0.0,0.0,0.0,0.0,0.0,0.0,0.0,0.0,0.0,0.0,0.0,0.0,0.0,0.0,0.0,0.0,0.0,0.0,0.0,0.0,0.0,0.0,0.0,0.0,0.0,0.0,0.0,0.0,0.0,0.0,0.0,0.0,0.0,0.0,0.0,0.0,0.0,0.0,0.0,0.0,0.0,0.0,0.0,0.0,0.0,0.0,0.0,0.0,0.0,0.0,0.0,0.0,0.0,0.0,0.0,0.0,0.0,0.0,0.0,0.0,0.0,0.0,0.0,0.0,0.0,0.0,0.0,0.0,0.0,0.0,0.0,0.0,0.0,0.0,0.0,0.0,0.0,0.0,0.0,0.0,0.0,0.0,0.0,0.0,0.0,0.0,0.0,0.0,0.0,0.0,0.0,0.0,0.0,0.0,0.0,0.0,0.0,0.0,0.0,0.0,0.0,0.0,0.0,0.0,0.0,0.0,0.0,0.0,0.0,0.0,0.0,0.0,0.0,0.0,0.0,0.0,0.0,0.0,0.0,0.0,0.0,0.0,0.0,0.0,0.0,0.0,0.0,0.0,0.0,0.0,0.0,0.0,0.0,0.0,0.0,0.0,0.0,0.0,0.0,0.0,0.0,0.0,0.0,0.0,0.0,0.0,0.0,0.0,0.0,0.0,0.0,0.0,0.0,0.0,0.0,0.0,0.0,0.0,0.0,0.0,0.0,0.0,0.0,0.0,0.0,0.0,0.0,0.0,0.0,0.0,0.0,0.0,0.0,0.0,0.0,0.0,0.0,0.0,0.0,0.0,0.0,0.0,0.0,0.0,0.0,0.0,0.0,0.0,0.0,0.0,0.0,0.0,0.0,0.0,0.0,0.0,0.0,0.0,0.0,0.0,0.0,0.0,0.0,0.0,0.0,0.0,0.0,0.0,0.0,0.0,0.0,0.0,0.0,0.0,0.0,0.0,0.0,0.0,0.0,0.0,0.0,0.0,0.0,0.0,0.0,0.0,0.0,0.0,0.0,0.0,0.0,0.0,0.0,0.0,0.0,0.0,0.0,0.0,0.0,0.0,0.0,0.0,0.0,0.0,0.0,0.0,0.0,0.0,0.0,0.0,0.0,0.0,0.0,0.0,0.0,0.0,0.0,0.0,0.0,0.0,0.0,0.0,0.0,0.0,0.0,0.0,0.0,0.0,0.0,0.0,0.0,0.0,0.0,0.0,0.0,0.0,0.0,0.0,0.0,0.0,0.0,0.0,0.0,0.0,0.0,0.0,0.0,0.0,0.0,0.0,0.0,0.0,0.0,0.0,0.0,0.0,0.0,0.0,0.0,0.0,0.0,0.0,0.0,0.0,0.0,0.0,0.0,0.0,0.0,0.0,0.0,0.0,0.0,0.0,0.0,0.0,0.0,0.0,0.0,0.0,0.0,0.0,0.0,0.0,0.0,0.0,0.0,0.0,0.0,0.0,0.0,0.0,0.0,0.0,0.0,0.0,0.0,0.0,0.0,0.0,0.0,0.0,0.0,0.0,0.0,0.0,0.0,0.0,0.0,0.0,0.0,0.0,0.0,0.0,0.0,0.0,0.0,0.0,0.0,0.0,0.0,0.0,0.0,0.0,0.0,0.0,0.0,0.0,0.0,0.0,0.0,0.0,0.0,0.0,0.0,0.0,0.0,0.0,0.0,0.0,0.0,0.0,0.0,0.0,0.0,0.0,0.0,0.0,0.0,0.0,0.0,0.0,0.0,0.0,0.0,0.0,0.0,0.0,0.0,0.0,0.0,0.0,0.0,0.0,0.0,0.0,0.0,0.0,0.0,0.0,0.0,0.0,0.0,0.0,0.0,0.0,0.0,0.0,0.0,0.0,0.0,0.0,0.0,0.0,0.0,0.0,0.0,0.0,0.0,0.0,0.0,0.0,0.0,0.0,0.0,0.0,0.0,0.0,0.0,0.0,0.0,0.0,0.0,0.0,0.0,0.0,0.0,0.0,0.0,0.0,0.0,0.0,0.0,0.0,0.0,0.0,0.0,0.0,0.0,0.0,0.0,0.0,0.0,0.0,0.0,0.0,0.0,0.0,0.0,0.0,0.0,0.0,0.0,0.0,0.0,0.0,0.0,0.0,0.0,0.0,0.0,0.0,0.0,0.0,0.0,0.0,0.0,0.0,0.0,0.0,0.0,0.0,0.0,0.0,0.0,0.0,0.0,0.0,0.0,0.0,0.0,0.0,0.0,0.0,0.0,0.0,0.0,0.0,0.0,0.0,0.0,0.0,0.0,0.0,0.0,0.0,0.0,0.0,0.0,0.0,0.0,0.0,0.0,0.0,0.0,0.0,0.0,0.0,0.0,0.0,0.0,0.0,0.0,0.0,0.0,0.0,0.0,0.0,0.0,0.0,0.0,0.0,0.0,0.0,0.0,0.0,0.0,0.0,0.0,0.0,0.0,0.0,0.0,0.0,0.0,0.0,0.0,0.0,0.0,0.0,0.0,0.0,0.0,0.0,0.0,0.0,0.0,0.0,0.0,0.0,0.0,0.0,0.0,0.0,0.0,0.0,0.0,0.0,0.0,0.0,0.0,0.0,0.0,0.0,0.0,0.0,0.0,0.0,0.0,0.0,0.0,0.0,0.0,0.0,0.0,0.0,0.0,0.0,0.0,0.0,0.0,0.0,0.0,0.0,0.0,0.0,0.0,0.0,0.0,0.0,0.0,0.0,0.0,0.0,0.0,0.0,0.0,0.0,0.0,0.0,0.0,0.0,0.0,0.0,0.0,0.0,0.0,0.0,0.0,0.0,0.0,0.0,0.0,0.0,0.0,0.0,0.0,0.0,0.0,0.0,0.0,0.0,0.0,0.0,0.0,0.0,0.0,0.0,0.0,0.0,0.0,0.0,0.0,0.0,0.0,0.0,0.0,0.0,0.0,0.0,0.0,0.0,0.0,0.0,0.0,0.0,0.0,0.0,0.0,0.0,0.0,0.0,0.0,0.0,0.0,0.0,0.0,0.0,0.0,0.0,0.0,0.0,0.0,0.0,0.0,0.0,0.0,0.0,0.0,0.0,0.0,0.0,0.0,0.0,0.0,0.0,0.0,0.0,0.0,0.0,0.0,0.0,0.0,0.0,0.0,0.0,0.0,0.0,0.0,0.0,0.0,0.0,0.0,0.0,0.0,0.0,0.0,0.0,0.0,0.0,0.0,0.0,0.0,0.0,0.0,0.0,0.0,0.0,0.0,0.0,0.0,0.0,0.0,0.0,0.0,0.0,0.0,0.0,0.0,0.0,0.0,0.0,0.0,0.0,0.0,0.0,0.0,0.0,0.0,0.0,0.0,0.0,0.0,0.0,0.0,0.0,0.0,0.0,0.0,0.0,0.0,0.0,0.0,0.0,0.0,0.0,0.0,0.0,0.0,0.0,0.0,0.0,0.0,0.0,0.0,0.0,0.0,0.0,0.0,0.0,0.0,0.0,0.0,0.0,0.0,0.0,0.0,0.0,0.0,0.0,0.0,0.0,0.0,0.0,0.0,0.0,0.0,0.0,0.0,0.0,0.0,0.0,0.0,0.0,0.0,0.0,0.0,0.0,0.0,0.0,0.0,0.0,0.0,0.0,0.0,0.0,0.0,0.0,0.0,0.0,0.0,0.0,0.0,0.0,0.0,0.0,0.0,0.0,0.0,0.0,0.0,0.0,0.0,0.0,0.0,0.0,0.0,0.0,0.0,0.0,0.0,0.0,0.0,0.0,0.0,0.0,0.0,0.0,0.0,0.0,0.0,0.0,0.0,0.0,0.0,0.0,0.0,0.0,0.0,0.0,0.0,0.0,0.0,0.0,0.0,0.0,0.0,0.0,0.0,0.0,0.0,0.0,0.0,0.0,0.0,0.0,0.0,0.0,0.0,0.0,0.0,0.0,0.0,0.0,0.0,0.0,0.0,0.0,0.0,0.0,0.0,0.0,0.0,0.0,0.0,0.0,0.0,0.0,0.0,0.0,0.0,0.0,0.0,0.0,0.0,0.0,0.0,0.0,0.0,0.0,0.0,0.0,0.0,0.0,0.0,0.0,0.0,0.0,0.0,0.0,0.0,0.0,0.0,0.0,0.0,0.0,0.0,0.0,0.0,0.0,0.0,0.0,0.0,0.0,0.0,0.0,0.0,0.0,0.0,0.0,0.0,0.0,0.0,0.0,0.0,0.0,0.0,0.0,0.0,0.0,0.0,0.0,0.0,0.0,0.0,0.0,0.0,0.0,0.0,0.0,0.0,0.0,0.0,0.0,0.0,0.0,0.0,0.0,0.0,0.0,0.0,0.0,0.0,0.0,0.0,0.0,0.0,0.0,0.0,0.0,0.0,0.0,0.0,0.0,0.0,0.0,0.0,0.0,0.0,0.0,0.0,0.0,0.0,0.0,0.0,0.0,0.0,0.0,0.0,0.0,0.0,0.0,0.0,0.0,0.0,0.0,0.0,0.0,0.0,0.0,0.0,0.0,0.0,0.0,0.0,0.0,0.0,0.0,0.0,0.0,0.0,0.0,0.0,0.0,0.0,0.0,0.0,0.0,0.0,0.0,0.0,0.0,0.0,0.0,0.0,0.0,0.0,0.0,0.0,0.0,0.0,0.0,0.0,0.0,0.0,0.0,0.0,0.0,0.0,0.0,0.0,0.0,0.0,0.0,0.0,0.0,0.0,0.0,0.0,0.0,0.0,0.0,0.0,0.0,0.0,0.0,0.0,0.0,0.0,0.0,0.0,0.0,0.0,0.0,0.0,0.0,0.0,0.0,0.0,0.0,0.0,0.0,0.0,0.0,0.0,0.0,0.0,0.0,0.0,0.0,0.0,0.0,0.0,0.0,-2.8596,-2.8127,0.0,0.0,0.0,0.0,0.0,0.0,0.0,0.0,0.0,0.0,0.0,0.0,0.0,0.0,0.0,0.0,0.0,0.0,0.0,0.0,0.0,0.0,0.0,0.0,0.0,0.0,0.0,0.0,0.0,0.0,0.0,0.0,0.0,0.0,0.0,0.0,0.0,0.0,0.0,0.0,0.0,0.0,0.0,0.0,0.0,0.0,0.0,0.0,0.0,0.0,0.0,0.0,0.0,0.0,0.0,0.0,0.0,0.0,0.0,0.0,0.0,0.0,0.0,0.0,0.0,0.0,0.0,0.0,0.0,0.0,0.0,0.0,0.0,0.0,0.0,0.0,0.0,0.0,0.0,0.0,0.0,0.0,0.0,0.0,0.0,0.0,0.0,0.0,0.0,0.0,0.0,0.0,0.0,0.0,0.0,0.0,0.0,0.0,0.0,0.0,0.0,0.0,0.0,0.0,0.0,0.0,0.0,0.0,0.0,0.0,0.0,0.0,0.0,0.0,-3.0235,-2.9747,0.0,0.0,0.0,0.0,0.0,0.0,0.0,0.0,0.0,0.0,0.0,0.0,0.0,0.0,0.0,0.0,0.0,0.0,0.0,0.0,0.0,0.0,0.0,0.0,0.0,0.0,0.0,0.0,0.0,0.0,0.0,0.0,0.0,0.0,0.0,0.0,0.0,0.0,0.0,0.0,0.0,0.0,0.0,0.0,0.0,0.0,0.0,0.0,0.0,0.0,0.0,0.0,0.0,0.0,0.0,0.0,0.0,0.0,0.0,0.0,0.0,0.0,0.0,0.0,0.0,0.0,0.0,0.0,0.0,0.0,0.0,0.0,0.0,0.0,0.0,0.0,0.0,0.0,0.0,0.0,0.0,0.0,0.0,0.0,0.0,0.0,0.0,0.0,0.0,0.0,0.0,0.0,0.0,0.0,0.0,0.0,0.0,0.0,0.0,0.0,0.0,0.0,0.0,0.0,0.0,0.0,0.0,0.0,-3.0567,-3.1055,-3.1719,-3.1719,-3.2578,-3.4003,-3.2558,-3.2168,-3.2539,-3.2226,0.0,0.0,0.0,0.0,0.0,0.0,0.0,0.0,0.0,0.0,0.0,0.0,0.0,0.0,0.0,0.0,0.0,0.0,0.0,0.0,0.0,0.0,0.0,0.0,0.0,0.0,0.0,0.0,0.0,0.0,0.0,0.0,0.0,0.0,0.0,0.0,0.0,0.0,0.0,0.0,0.0,0.0,0.0,0.0,0.0,0.0,0.0,0.0,0.0,0.0,0.0,0.0,0.0,0.0,0.0,0.0,0.0,0.0,0.0,0.0,0.0,0.0,0.0,0.0,0.0,0.0,0.0,0.0,0.0,0.0,0.0,0.0,0.0,0.0,0.0,0.0,0.0,0.0,0.0,0.0,0.0,0.0,0.0,0.0,0.0,0.0,-2.7499,-2.6794,0.0,0.0,0.0,0.0,0.0,0.0,0.0,0.0,0.0,0.0,0.0,0.0,0.0,-3.0821,-3.1582,-3.3105,-3.3534,-3.2929,-3.4432,-3.5213,-3.5308,-3.5308,-3.5857,-3.6774,-3.654,0.0,-3.4237,-3.2714,0.0,0.0,0.0,0.0,0.0,0.0,0.0,0.0,0.0,0.0,0.0,0.0,0.0,0.0,0.0,0.0,0.0,0.0,0.0,0.0,0.0,0.0,0.0,0.0,0.0,0.0,0.0,0.0,0.0,0.0,0.0,0.0,0.0,0.0,0.0,0.0,0.0,0.0,0.0,0.0,0.0,0.0,0.0,0.0,0.0,0.0,0.0,0.0,0.0,0.0,0.0,0.0,0.0,0.0,0.0,0.0,0.0,0.0,0.0,0.0,0.0,0.0,0.0,0.0,0.0,0.0,0.0,0.0,0.0,0.0,0.0,0.0,0.0,0.0,0.0,0.0,0.0,0.0,0.0,0.0,0.0,0.0,0.0,0.0,0.0,-2.7159,-2.7806,-2.7513,-2.8997,-2.9726,0.0,0.0,0.0,0.0,0.0,0.0,0.0,0.0,0.0,-3.3462,-3.364,-3.3905,-3.4295,-3.5057,-3.5486,-3.5603,-3.6364,-3.6989,-3.7458,-3.7458,-3.7926,-3.8707,-3.8707,-3.8551,-3.8082,-3.5408,-3.3788,-3.2812,0.0,0.0,0.0,0.0,-3.1328,-3.1856,0.0,0.0,0.0,0.0,0.0,0.0,0.0,0.0,0.0,0.0,0.0,0.0,0.0,0.0,0.0,0.0,0.0,0.0,0.0,0.0,0.0,0.0,0.0,0.0,0.0,0.0,0.0,0.0,0.0,0.0,0.0,0.0,0.0,0.0,0.0,0.0,0.0,0.0,0.0,0.0,0.0,0.0,0.0,0.0,0.0,0.0,0.0,0.0,0.0,0.0,0.0,0.0,0.0,0.0,0.0,0.0,0.0,0.0,0.0,0.0,0.0,0.0,0.0,0.0,0.0,0.0,0.0,0.0,0.0,0.0,0.0,0.0,0.0,0.0,0.0,0.0,0.0,-2.7566,-2.825,-2.8369,-2.987,-3.0586,0.0,0.0,0.0,0.0,0.0,0.0,-3.2688,-3.3968,-3.4889,-3.5286,-3.5978,-3.6443,-3.6657,-3.7087,-3.7516,-3.7946,-3.8394,-3.8824,-3.9256,-3.9705,-4.0112,-4.0483,-4.0932,-4.1244,-4.1205,-3.8219,-3.6462,-3.5545,-3.4022,-3.328,-3.3105,-3.3105,-3.3515,-3.4159,0.0,0.0,0.0,0.0,0.0,0.0,0.0,0.0,0.0,0.0,0.0,0.0,0.0,0.0,0.0,0.0,0.0,0.0,0.0,0.0,0.0,0.0,0.0,0.0,0.0,0.0,0.0,0.0,0.0,0.0,0.0,0.0,0.0,0.0,0.0,0.0,0.0,0.0,0.0,0.0,0.0,0.0,0.0,0.0,0.0,0.0,0.0,0.0,0.0,0.0,0.0,0.0,0.0,0.0,0.0,0.0,0.0,0.0,0.0,0.0,0.0,0.0,0.0,0.0,0.0,0.0,0.0,0.0,0.0,0.0,0.0,0.0,0.0,0.0,0.0,0.0,0.0,0.0,0.0,-2.9137,-3.0623,0.0,0.0,0.0,0.0,-3.1934,-3.2752,-3.3628,-3.4527,-3.4647,-3.5467,-3.7103,-3.7204,-3.7633,-3.8456,-4.0054,-4.0444,-3.9683,-4.1342,-4.1732,-4.103,-4.2689,-4.3001,-4.2357,-4.4016,-4.3821,-4.2181,-4.0366,-3.9136,-3.8319,-3.7399,-3.654,-3.5796,-3.5796,-3.5835,-3.5874,0.0,0.0,0.0,0.0,0.0,0.0,0.0,0.0,0.0,0.0,0.0,0.0,0.0,0.0,0.0,0.0,0.0,0.0,0.0,0.0,0.0,0.0,0.0,0.0,0.0,0.0,0.0,0.0,0.0,0.0,0.0,0.0,0.0,0.0,0.0,0.0,0.0,0.0,0.0,0.0,0.0,0.0,0.0,0.0,0.0,0.0,0.0,0.0,0.0,0.0,0.0,0.0,0.0,0.0,0.0,0.0,0.0,0.0,0.0,0.0,0.0,0.0,0.0,0.0,0.0,0.0,0.0,0.0,0.0,0.0,0.0,0.0,0.0,0.0,0.0,0.0,0.0,0.0,0.0,-3.0936,-3.3293,0.0,-3.4758,-3.506,-3.5301,-3.5408,-3.6185,-3.6766,-3.7069,-3.819,-3.9341,-4.0486,-4.1644,-4.2396,-4.2728,-4.386,-4.4289,-4.3997,-4.4602,-4.4758,-4.4465,-4.509,-4.5207,-4.4914,-4.4972,-4.5285,-4.5617,-4.3879,-4.1986,-4.0171,-3.9878,-3.9566,-3.9273,-3.9273,-3.9644,-4.0112,0.0,0.0,0.0,0.0,0.0,0.0,0.0,0.0,0.0,0.0,0.0,0.0,0.0,0.0,0.0,0.0,0.0,0.0,0.0,0.0,0.0,0.0,0.0,0.0,0.0,0.0,0.0,0.0,0.0,0.0,0.0,0.0,0.0,0.0,0.0,0.0,0.0,0.0,0.0,0.0,0.0,0.0,-2.8136,0.0,0.0,0.0,0.0,0.0,0.0,0.0,0.0,0.0,0.0,0.0,0.0,0.0,0.0,0.0,0.0,0.0,0.0,0.0,0.0,0.0,0.0,0.0,0.0,0.0,0.0,0.0,0.0,0.0,0.0,0.0,0.0,0.0,0.0,-3.2042,-3.3836,-3.3884,-3.6079,-3.768,-3.7832,-3.7841,-3.8119,-3.8793,-3.9382,-3.9953,-4.0526,-4.1456,-4.237,-4.3183,-4.4083,-4.4699,-4.4992,-4.5851,-4.6273,-4.6236,-4.6585,-4.6566,-4.6255,-4.684,-4.6957,-4.6665,-4.663,-4.695,-4.7404,-4.6259,-4.4757,-4.3158,-4.2936,-4.2494,-4.2006,-4.2318,-4.2594,-4.2848,0.0,0.0,0.0,0.0,0.0,0.0,0.0,0.0,0.0,0.0,0.0,0.0,0.0,0.0,0.0,0.0,0.0,0.0,0.0,0.0,0.0,0.0,0.0,0.0,0.0,0.0,0.0,0.0,0.0,0.0,0.0,0.0,0.0,0.0,0.0,0.0,0.0,0.0,0.0,0.0,0.0,0.0,-3.1384,0.0,0.0,0.0,0.0,0.0,0.0,0.0,0.0,0.0,0.0,0.0,0.0,0.0,0.0,0.0,0.0,0.0,0.0,0.0,0.0,0.0,0.0,0.0,0.0,0.0,0.0,0.0,0.0,0.0,0.0,0.0,0.0,0.0,-3.306,-3.4533,-3.6219,-3.7916,-3.8877,-3.9438,-3.9542,-3.9542,-4.0236,-4.1905,-4.2167,-4.3013,-4.4744,-4.4178,-4.4208,-4.5086,-4.4325,-4.4305,-4.5145,-4.6003,-4.6387,-4.6259,-4.7245,-4.7206,-4.6317,-4.8,-4.8312,-4.7611,-4.9139,-4.8904,-4.7416,-4.734,-4.7329,-4.7319,-4.6621,-4.532,-4.3954,-4.4797,-4.4563,-4.3801,0.0,0.0,0.0,0.0,0.0,0.0,0.0,0.0,0.0,0.0,0.0,0.0,0.0,0.0,0.0,0.0,0.0,0.0,0.0,0.0,0.0,0.0,0.0,0.0,0.0,0.0,0.0,0.0,0.0,0.0,0.0,0.0,0.0,0.0,0.0,0.0,0.0,0.0,0.0,0.0,0.0,0.0,-3.3054,0.0,0.0,0.0,0.0,0.0,0.0,0.0,0.0,0.0,0.0,0.0,0.0,0.0,0.0,0.0,0.0,0.0,0.0,0.0,0.0,0.0,0.0,0.0,0.0,0.0,0.0,0.0,0.0,0.0,0.0,0.0,-3.457,-3.5455,-3.4885,-3.7834,-4.0219,-4.0716,-4.2585,-4.4116,-4.4819,-4.4892,-4.4871,-4.4793,-4.542,-4.5744,-4.559,-4.6008,-4.6649,-4.7505,-4.7913,-4.8253,-4.8487,-4.9304,-4.9693,-4.9662,-4.9936,-4.9973,-4.9812,-5.0189,-5.0325,-5.0205,-4.9926,-4.9925,-4.9985,-4.8088,-4.8038,-4.904,-4.7598,-4.7116,-4.7284,-4.7517,-4.7123,-4.6267,0.0,0.0,0.0,0.0,0.0,0.0,0.0,0.0,0.0,0.0,0.0,0.0,0.0,0.0,0.0,0.0,0.0,0.0,0.0,0.0,0.0,0.0,0.0,0.0,0.0,0.0,0.0,0.0,0.0,0.0,0.0,0.0,0.0,0.0,0.0,0.0,0.0,0.0,0.0,0.0,0.0,0.0,-3.667,-3.4853,-3.3495,-3.2375,-3.0895,-3.0533,-3.0423,-2.8283,0.0,0.0,0.0,0.0,0.0,0.0,0.0,0.0,0.0,0.0,0.0,0.0,0.0,0.0,0.0,0.0,0.0,0.0,0.0,0.0,0.0,0.0,0.0,0.0,-3.78,-3.9454,-3.97,-4.1527,-4.3239,-4.4316,-4.5759,-4.6987,-4.7918,-4.7684,-4.76,-4.7903,-4.7766,-4.7766,-4.7979,-4.7835,-4.813,-4.9015,-4.919,-4.9423,-4.9792,-5.0295,-5.0683,-5.1008,-5.1103,-5.1187,-5.1203,-5.1123,-5.1152,-5.1222,-5.0606,-5.0654,-5.1024,-4.9156,-4.9175,-5.0229,0.0,0.0,0.0,0.0,-4.8329,-4.7757,0.0,0.0,0.0,0.0,0.0,0.0,0.0,0.0,0.0,0.0,0.0,0.0,0.0,0.0,0.0,0.0,0.0,0.0,0.0,0.0,0.0,0.0,0.0,0.0,0.0,0.0,0.0,0.0,0.0,0.0,0.0,0.0,0.0,0.0,0.0,0.0,0.0,0.0,0.0,0.0,0.0,0.0,-4.0799,-3.7936,-3.711,-3.7213,-3.4898,-3.3254,-3.2095,-3.1125,0.0,0.0,0.0,0.0,0.0,0.0,0.0,0.0,0.0,0.0,0.0,0.0,0.0,0.0,0.0,0.0,0.0,0.0,0.0,0.0,0.0,0.0,0.0,0.0,-4.1219,-4.3989,-4.5778,-4.5355,-4.5701,-4.799,-4.8259,-4.8586,-4.9452,-4.8856,-4.899,-5.0433,-4.9307,-4.9212,-5.0658,-4.9465,0.0,0.0,0.0,-4.9123,-4.9892,-4.9965,-5.0315,-5.0959,-5.1222,-5.1271,-5.117,-5.1141,-5.1152,-5.1172,-5.1108,-5.1087,-5.102,-5.0201,-5.0306,-5.0801,-4.9386,-4.8868,-4.8868,-4.8771,-4.8671,-4.8494,0.0,0.0,0.0,0.0,0.0,0.0,0.0,0.0,0.0,0.0,0.0,0.0,0.0,0.0,0.0,0.0,0.0,0.0,0.0,0.0,0.0,0.0,0.0,0.0,0.0,0.0,0.0,0.0,0.0,0.0,0.0,0.0,0.0,0.0,0.0,0.0,0.0,0.0,0.0,0.0,0.0,0.0,-4.1038,-4.0414,-3.9087,-3.7356,-3.557,-3.603,-3.7045,-3.4301,-3.4086,-3.4659,-3.3228,0.0,0.0,0.0,0.0,0.0,0.0,0.0,0.0,0.0,0.0,0.0,0.0,0.0,0.0,0.0,0.0,0.0,0.0,0.0,0.0,-4.0739,-4.3335,-4.5951,-4.8336,-4.8509,-4.8606,-4.9086,-4.9144,-4.949,-5.0356,-5.0298,-5.0048,-4.9683,-5.0009,-5.0086,-4.97,-5.0064,-5.0352,-5.0526,-5.0352,-5.0352,-5.0526,-5.0542,-5.0619,-5.0757,-5.0825,0.0,-5.0937,-5.0851,-5.0898,-5.1024,-5.0956,-5.0948,-5.0874,-5.0059,-4.9823,-4.9997,-5.0329,-5.0523,-5.0523,-4.983,-4.9161,-4.8573,0.0,0.0,0.0,0.0,0.0,0.0,0.0,0.0,0.0,0.0,0.0,0.0,0.0,0.0,0.0,0.0,0.0,0.0,0.0,0.0,0.0,0.0,0.0,0.0,0.0,0.0,0.0,0.0,0.0,0.0,0.0,0.0,0.0,0.0,0.0,0.0,0.0,0.0,0.0,0.0,0.0,0.0,-4.1633,-4.1711,-4.1011,-3.9841,-3.8626,-3.8759,-3.9198,-3.7184,-3.6804,-3.6934,-3.5766,-3.3734,-3.1648,0.0,0.0,0.0,0.0,0.0,0.0,0.0,0.0,0.0,0.0,0.0,0.0,0.0,0.0,-3.6873,-3.7276,0.0,-4.2354,-4.4066,-4.649,-4.874,-5.0414,-5.1029,-5.1144,-5.0702,-5.0644,-5.0991,-5.1875,-5.1568,-5.1125,-5.0683,-5.0683,-5.051,-5.0067,-5.0452,-5.0702,-5.0702,-5.0702,-5.0702,-5.0702,-5.0776,-5.0793,-5.0793,-5.0871,-5.0942,-5.0992,-5.097,-5.1004,-5.1114,-5.1062,-5.1063,-5.1022,-5.0577,-5.0403,-5.0442,-5.077,-5.0945,-5.0964,-5.0503,-5.0097,-4.9687,0.0,0.0,0.0,0.0,0.0,0.0,0.0,0.0,0.0,0.0,0.0,0.0,0.0,0.0,0.0,0.0,0.0,0.0,0.0,0.0,0.0,0.0,0.0,0.0,0.0,0.0,0.0,0.0,0.0,0.0,0.0,0.0,0.0,0.0,0.0,0.0,0.0,0.0,0.0,0.0,0.0,0.0,-4.2463,-4.2432,-4.2472,-4.2408,-4.1585,-4.0782,-4.0059,-3.9394,-3.8635,-3.7905,-3.7479,-3.6218,-3.4612,-3.3073,-3.1886,0.0,0.0,0.0,0.0,0.0,0.0,0.0,0.0,-3.5045,-3.5911,-3.6796,-3.8738,-4.0469,-4.1123,-4.3316,-4.5509,-4.6913,-4.9279,-5.1164,-5.1818,-5.2664,-5.301,-5.2472,-5.226,-5.2433,-5.3126,-5.2568,-5.2164,-5.2164,-5.1548,-5.1106,-5.0933,-5.0933,-5.0856,-5.0702,-5.0702,-5.0702,-5.0702,-5.081,-5.0874,-5.0855,-5.0978,-5.1023,-5.1035,-5.1097,-5.1144,-5.1134,-5.1134,-5.1139,-5.1138,-5.108,-5.1061,-5.1061,-5.0945,-5.0906,-5.0925,-5.1099,-5.0945,-5.0635,0.0,0.0,0.0,0.0,0.0,0.0,0.0,0.0,0.0,0.0,0.0,0.0,0.0,0.0,0.0,0.0,0.0,0.0,0.0,0.0,0.0,0.0,0.0,0.0,0.0,0.0,0.0,0.0,0.0,0.0,0.0,0.0,0.0,0.0,0.0,0.0,0.0,0.0,0.0,0.0,0.0,0.0,-4.3309,-4.3047,-4.2941,-4.2883,-4.1852,-4.1,-4.0335,-4.0243,-3.9649,-3.9055,-3.977,-3.8841,-3.7169,-3.5622,0.0,-3.2318,-3.0074,-2.8546,-2.835,-3.1508,-3.3121,-3.493,0.0,-4.0315,-4.12,-4.2066,-4.3047,-4.3758,-4.3855,-4.5951,-4.774,-4.7932,-5.0106,-5.1798,-5.1895,-5.2664,-5.3453,-5.4126,-5.353,-5.3087,-5.3203,-5.3106,-5.3049,-5.3049,-5.2972,-5.2587,-5.1818,-5.1779,-5.1433,-5.0721,-5.0702,-5.0702,-5.0702,-5.0721,-5.0721,-5.072,-5.0736,-5.0791,-5.0841,-5.0893,-5.0929,-5.0932,-5.0925,-5.0941,-5.0945,-5.0945,-5.0925,-5.0925,-5.0925,-5.0906,-5.1003,-5.1776,-5.1138,-5.0109,0.0,0.0,0.0,0.0,0.0,0.0,0.0,0.0,0.0,0.0,0.0,0.0,0.0,0.0,0.0,0.0,0.0,0.0,0.0,0.0,0.0,0.0,0.0,0.0,0.0,0.0,0.0,0.0,0.0,0.0,0.0,0.0,0.0,0.0,0.0,0.0,0.0,0.0,0.0,0.0,0.0,0.0,-4.2388,-4.1904,-4.1154,-4.0361,-4.0117,-3.9286,0.0,0.0,-3.7615,-3.7838,-3.8674,-3.7827,-3.6384,-3.5777,-3.4111,0.0,-3.1371,-3.222,-3.3734,-3.5209,-3.7114,-3.9335,-4.2085,-4.3393,-4.4393,-4.574,-4.7471,-4.8721,-4.8721,-5.001,-5.1068,-5.1068,-5.2395,-5.3414,-5.3414,-5.3722,-5.3895,-5.376,-5.2972,-5.3029,-5.4511,-5.378,-5.3414,-5.3914,-5.3491,-5.3049,-5.2683,-5.2183,-5.176,-5.1414,-5.0933,-5.0914,-5.1395,-5.1453,-5.1453,-5.1452,-5.1488,-5.1273,-5.0863,-5.0897,-5.0893,-5.0893,-5.089,-5.0906,-5.0906,-5.0906,-5.0906,-5.0906,-5.0906,-5.0906,-5.0945,-5.1312,-5.1022,-5.0538,0.0,0.0,0.0,0.0,0.0,0.0,0.0,0.0,0.0,0.0,0.0,0.0,0.0,0.0,0.0,0.0,0.0,0.0,0.0,0.0,0.0,0.0,0.0,0.0,0.0,0.0,0.0,0.0,0.0,0.0,0.0,0.0,0.0,0.0,0.0,0.0,0.0,0.0,0.0,0.0,0.0,0.0,-4.1718,-4.0456,-3.8962,-3.7534,-3.7904,-3.6727,0.0,0.0,-3.4866,-3.5479,-3.6278,-3.5894,-3.5125,-3.4963,-3.337,-3.1853,-3.2692,-3.487,-3.722,-3.8452,-4.0641,-4.3047,-4.5201,-4.6374,-4.7471,-4.9163,-5.0779,-5.1914,-5.1914,-5.2241,-5.2587,-5.2818,-5.3568,-5.4145,-5.4145,-5.4145,-5.3818,-5.2953,-5.1875,-5.2029,-5.4107,-5.3414,-5.3299,-5.4414,-5.3914,-5.3568,-5.3568,-5.2741,-5.226,-5.226,-5.1452,-5.1433,-5.228,-5.2107,-5.2011,-5.2029,-5.185,-5.146,-5.0897,-5.0909,-5.0906,-5.0906,-5.0906,-5.1041,-5.1254,-5.1254,-5.1254,-5.1254,-5.1254,-5.1119,-5.0906,-5.0906,-5.0906,-5.0945,0.0,0.0,0.0,0.0,0.0,0.0,0.0,0.0,0.0,0.0,0.0,0.0,0.0,0.0,0.0,0.0,0.0,0.0,0.0,0.0,0.0,0.0,0.0,0.0,0.0,0.0,0.0,0.0,0.0,0.0,0.0,0.0,0.0,0.0,0.0,0.0,0.0,0.0,0.0,0.0,0.0,0.0,-4.1962,-3.9085,-3.683,-3.5239,-3.5514,0.0,0.0,0.0,-3.1912,-3.208,-3.2897,-3.3706,0.0,-3.3394,-3.2067,-3.1408,-3.4016,-3.4944,-3.6188,-4.0421,-4.2864,-4.5105,-4.8471,-4.9913,-5.101,-5.2702,-5.2433,-5.1914,-5.1914,-5.1279,-5.1029,-5.1818,-5.2683,-5.3241,-5.3241,-5.3241,-5.2933,-5.2049,-5.0491,-4.9837,-5.076,-5.151,-5.2664,-5.4376,-5.4472,-5.4453,-5.4453,-5.3626,-5.3164,-5.3164,-5.2318,-5.2299,-5.3244,-5.2416,-5.2028,-5.2097,-5.1305,-5.0916,-5.089,-5.0906,-5.0906,-5.0906,-5.0906,-5.1389,-5.2163,-5.2163,-5.2163,-5.2163,-5.2163,-5.1641,-5.0906,-5.0906,-5.0906,-5.1022,0.0,0.0,0.0,0.0,0.0,0.0,0.0,0.0,0.0,0.0,0.0,0.0,0.0,0.0,0.0,0.0,0.0,0.0,0.0,0.0,0.0,0.0,0.0,0.0,0.0,0.0,0.0,0.0,0.0,0.0,0.0,0.0,0.0,0.0,0.0,0.0,0.0,0.0,0.0,0.0,0.0,0.0,-3.995,-3.7302,-3.4895,-3.271,0.0,0.0,0.0,0.0,0.0,0.0,-2.9498,0.0,-3.0385,-3.0728,-3.1984,-3.3711,-3.5821,-3.8169,-4.0785,-4.3997,-4.6685,-4.9144,-5.1414,-5.2606,-5.3376,-5.3953,-5.2472,-5.0933,-5.0356,-4.9548,-4.926,-5.0106,-5.1433,-5.2549,-5.3126,-5.2702,-5.1818,-5.0414,-4.924,-4.8432,-4.8202,-4.9952,-5.1818,-5.351,-5.4164,-5.4491,-5.4491,-5.3664,-5.3203,-5.3203,-5.1838,-5.2069,-5.4072,-5.332,-5.2931,-5.2947,-5.157,-5.0909,-5.0906,-5.0906,-5.0906,-5.0906,-5.0906,-5.1389,-5.2163,-5.1583,-5.1679,-5.2144,-5.1563,-5.1157,-5.0906,-5.0906,-5.0906,-5.0945,0.0,0.0,0.0,0.0,0.0,0.0,0.0,0.0,0.0,0.0,0.0,0.0,0.0,0.0,0.0,0.0,0.0,0.0,0.0,0.0,0.0,0.0,0.0,0.0,0.0,0.0,0.0,0.0,0.0,0.0,0.0,0.0,0.0,0.0,0.0,0.0,0.0,0.0,0.0,0.0,0.0,0.0,-3.6633,-3.4055,-3.1887,0.0,0.0,0.0,0.0,0.0,0.0,0.0,0.0,-2.7922,-2.9045,-3.0545,-3.2847,-3.5506,-3.8225,-4.1047,-4.3885,-4.6644,-4.8941,-5.0909,-5.2394,-5.3164,-5.3491,-5.3203,-5.1337,-4.9413,-4.8259,-4.7086,-4.6682,-4.7855,-4.8952,-5.0164,-5.1645,-5.1087,-5.026,-4.949,-4.8625,-4.7894,-4.7394,-4.9086,-5.0798,-5.2202,-5.3376,-5.4049,-5.4049,-5.351,-5.3337,-5.3646,-5.203,-5.2261,-5.4555,-5.3472,-5.2792,-5.2481,-5.1412,-5.0906,-5.0906,-5.0906,-5.0906,-5.0906,-5.0906,-5.1389,-5.2163,-5.1602,-5.1699,-5.2144,-5.1583,-5.1177,-5.0906,-5.0906,-5.0906,-5.0906,0.0,0.0,0.0,0.0,0.0,0.0,0.0,0.0,0.0,0.0,0.0,0.0,0.0,0.0,0.0,0.0,0.0,0.0,0.0,0.0,0.0,0.0,0.0,0.0,0.0,0.0,0.0,0.0,0.0,0.0,0.0,0.0,0.0,0.0,0.0,0.0,0.0,0.0,0.0,0.0,0.0,0.0,-3.2353,-2.9664,0.0,0.0,0.0,0.0,0.0,0.0,0.0,0.0,-2.5949,-2.7699,-3.0239,-3.2804,-3.4712,-3.6929,-4.1104,-4.3457,-4.5372,-4.8291,-4.9648,-5.052,-5.1584,-5.1817,-5.1587,-5.0683,-4.9048,-4.7278,-4.5586,-4.4008,-4.3528,-4.5201,-4.5605,-4.6586,-4.9106,-4.8759,-4.8529,-4.9317,-4.8663,-4.8144,-4.8105,-4.8894,-4.974,-5.0567,-5.2183,-5.3145,-5.3203,-5.3164,-5.3531,-5.44,-5.2801,-5.2838,-5.4685,-5.2966,-5.1708,-5.0983,-5.0925,-5.0906,-5.0906,-5.0906,-5.0906,-5.0906,-5.0906,-5.1389,-5.2202,-5.2144,-5.2163,-5.2202,-5.2144,-5.1621,-5.0906,-5.0906,-5.0906,-5.0906,0.0,0.0,0.0,0.0,0.0,0.0,0.0,0.0,0.0,0.0,0.0,0.0,0.0,0.0,0.0,0.0,0.0,0.0,0.0,0.0,0.0,0.0,0.0,0.0,0.0,0.0,0.0,0.0,0.0,0.0,0.0,0.0,0.0,0.0,0.0,0.0,0.0,0.0,0.0,0.0,0.0,0.0,-3.024,0.0,0.0,0.0,0.0,0.0,0.0,0.0,0.0,0.0,-2.9148,-3.1067,-3.3589,-3.6136,-3.8443,-4.0803,-4.3685,-4.5806,-4.7521,-4.8947,-5.0233,-5.1071,-5.0715,-5.083,-5.0414,-4.8298,-4.549,-4.2893,-4.1219,-4.1046,-4.172,-4.3451,-4.5836,-4.8144,-5.0087,-5.0183,-4.9875,-4.9452,-4.9202,-4.8817,-4.8163,-4.8894,-4.949,-4.9702,-5.1279,-5.251,-5.3164,-5.2587,-5.2646,-5.3571,-5.1971,-5.2257,-5.4685,-5.302,-5.207,-5.1854,-5.1215,-5.0906,-5.0906,-5.0906,-5.0906,-5.0906,-5.0906,-5.1389,-5.2144,-5.1505,-5.1602,-5.2144,-5.1486,-5.1099,-5.0906,-5.0906,-5.0906,-5.0906,0.0,0.0,0.0,0.0,0.0,0.0,0.0,0.0,0.0,0.0,0.0,0.0,0.0,0.0,0.0,0.0,0.0,0.0,0.0,0.0,0.0,0.0,0.0,0.0,0.0,0.0,0.0,0.0,0.0,0.0,0.0,0.0,0.0,0.0,0.0,0.0,0.0,0.0,0.0,0.0,0.0,0.0,0.0,0.0,0.0,0.0,0.0,0.0,0.0,0.0,0.0,-3.0727,-3.2296,-3.4237,-3.6491,-3.9368,-4.1521,-4.3483,-4.5866,-4.7669,-4.8975,-4.9607,-5.0082,-5.0115,-4.8999,-4.8606,-4.7528,-4.4239,-4.2047,-4.0065,-3.8007,-3.8604,-3.995,-4.1681,-4.4182,-4.6759,-4.9202,-4.9548,-4.9663,-4.9933,-4.9971,-4.9779,-4.9298,-4.9683,-5.0125,-5.0471,-5.1375,-5.1972,-5.2106,-5.2357,-5.2762,-5.334,-5.2064,-5.1906,-5.3022,-5.2089,-5.1621,-5.1621,-5.1138,-5.0906,-5.0906,-5.0906,-5.0906,-5.0906,-5.0906,-5.1177,-5.1583,-5.1099,-5.1196,-5.1583,-5.1099,-5.0906,-5.0906,-5.0906,-5.0906,-5.0906,0.0,0.0,0.0,0.0,0.0,0.0,0.0,0.0,0.0,0.0,0.0,0.0,0.0,0.0,0.0,0.0,0.0,0.0,0.0,0.0,0.0,0.0,0.0,0.0,0.0,0.0,0.0,0.0,0.0,0.0,0.0,0.0,0.0,0.0,0.0,0.0,0.0,0.0,0.0,0.0,0.0,0.0,0.0,0.0,0.0,0.0,0.0,0.0,0.0,0.0,-3.1504,-3.2901,-3.5442,-3.7422,-3.9388,-4.2478,-4.4157,-4.5482,-4.7669,-4.9003,-4.983,-5.0087,-4.9472,-4.8455,-4.6993,-4.578,-4.3778,-3.9777,-3.8777,-3.795,-3.5738,-3.6699,-3.845,-4.0354,-4.2124,-4.4432,-4.7798,-4.8279,-4.8875,-5.051,-5.0702,-5.0702,-5.0702,-5.0702,-5.0991,-5.1702,-5.1741,-5.1491,-5.0895,-5.2204,-5.2993,-5.3068,-5.2563,-5.1824,-5.0925,-5.0906,-5.0906,-5.0906,-5.0906,-5.0906,-5.0906,-5.0906,-5.0906,-5.0906,-5.0906,-5.0906,-5.0906,-5.0906,-5.0906,-5.0906,-5.0906,-5.0906,-5.0906,-5.0906,-5.0906,-5.0906,0.0,0.0,0.0,0.0,0.0,0.0,0.0,0.0,0.0,0.0,0.0,0.0,0.0,0.0,0.0,0.0,0.0,0.0,0.0,0.0,0.0,0.0,0.0,0.0,0.0,0.0,0.0,0.0,0.0,0.0,0.0,0.0,0.0,0.0,0.0,0.0,0.0,0.0,0.0,0.0,0.0,0.0,0.0,0.0,0.0,0.0,0.0,0.0,0.0,0.0,-3.343,-3.6278,-3.8794,-4.1136,-4.3348,-4.5319,-4.6485,-4.7457,-4.8827,-4.9314,-4.9529,-4.9803,-4.8895,-4.7513,-4.5872,-4.3367,0.0,-3.7738,-3.6045,-3.4949,-3.4507,-3.5795,-3.795,-4.1066,-4.2989,-4.5278,-4.8702,-4.9163,-4.9548,-5.0567,-5.0702,-5.0702,-5.0702,-5.0702,-5.076,-5.0894,-5.0914,-5.1164,-5.1742,-5.1395,-5.12,-5.1327,-5.2575,-5.2495,-5.0925,-5.0906,-5.0906,-5.0906,-5.0906,-5.0906,-5.0906,-5.0906,-5.0906,-5.0906,-5.0906,-5.0906,-5.0906,-5.0906,-5.0906,-5.0906,-5.0906,-5.0906,-5.0906,-5.0906,-5.0906,-5.0906,0.0,0.0,0.0,0.0,0.0,0.0,0.0,0.0,0.0,0.0,0.0,0.0,0.0,0.0,0.0,0.0,0.0,0.0,0.0,0.0,0.0,0.0,0.0,0.0,0.0,0.0,-2.1694,-2.1738,0.0,0.0,0.0,-2.2515,0.0,0.0,0.0,0.0,0.0,0.0,0.0,0.0,0.0,0.0,0.0,0.0,0.0,0.0,0.0,0.0,0.0,0.0,-3.2368,-3.5497,-3.9695,-4.2389,-4.4352,-4.6178,-4.7091,-4.7843,-4.9408,-4.9955,-4.9986,-4.9667,-4.8077,-4.5937,-4.333,0.0,0.0,-3.4718,-3.3795,-3.3391,-3.2987,-3.4988,-3.7392,-3.9488,-4.1604,-4.4201,-4.7625,-4.8105,-4.874,-5.0491,-5.0702,-5.0702,-5.0702,-5.0702,-5.0702,-5.0702,-5.0702,-5.0874,-5.1298,-5.1392,-5.1677,-5.2247,-5.2627,-5.2202,-5.0925,-5.0906,-5.0906,-5.0906,-5.0906,-5.0906,-5.0906,-5.0906,-5.0906,-5.0906,-5.0906,-5.0906,-5.0906,-5.0906,-5.0906,-5.0906,-5.0906,-5.0906,-5.0906,-5.0906,-5.0906,-5.0906,0.0,0.0,0.0,0.0,0.0,0.0,0.0,0.0,0.0,0.0,0.0,0.0,0.0,0.0,0.0,0.0,0.0,0.0,0.0,0.0,0.0,0.0,0.0,0.0,0.0,0.0,0.0,-2.1634,-2.2036,0.0,0.0,0.0,0.0,0.0,-2.2685,0.0,0.0,0.0,0.0,0.0,0.0,0.0,0.0,0.0,0.0,0.0,0.0,0.0,0.0,0.0,-3.0417,-3.3083,-3.8154,-4.1349,-4.3595,-4.5358,-4.6495,-4.7612,-4.9449,-5.0265,-5.0393,-4.9606,-4.7336,-4.447,-4.1239,-3.8257,0.0,-3.2314,-3.2045,-3.2275,-3.2006,-3.4122,-3.6353,0.0,-3.9681,-4.2239,-4.5836,-4.6509,-4.7567,-5.0106,-5.0587,-5.0702,-5.0702,-5.0702,-5.0702,-5.0702,-5.074,-5.0738,-5.0738,-5.1619,-5.2382,-5.2937,-5.2453,-5.1776,-5.0925,-5.0906,-5.0906,-5.0906,-5.0906,-5.0906,-5.0906,-5.0906,-5.0906,-5.0906,-5.0906,-5.0906,-5.0906,-5.0906,-5.0906,-5.0906,-5.0906,-5.0906,-5.0925,-5.1119,-5.1177,-5.1177,0.0,0.0,0.0,0.0,0.0,0.0,0.0,0.0,0.0,0.0,0.0,0.0,0.0,0.0,0.0,0.0,0.0,0.0,0.0,0.0,0.0,0.0,0.0,0.0,0.0,0.0,0.0,-2.1797,-2.1869,0.0,0.0,0.0,0.0,0.0,0.0,-2.2738,-2.2816,0.0,0.0,0.0,0.0,0.0,0.0,0.0,0.0,0.0,0.0,0.0,0.0,0.0,0.0,-3.0129,-3.2897,-3.7035,-4.1027,-4.2141,0.0,0.0,-4.8734,-4.9671,-5.0125,-4.9548,-4.6894,-4.372,-4.1085,0.0,-3.391,-3.2083,-3.1141,-3.1083,-3.2526,-3.3045,-3.4295,-3.7488,0.0,-3.9796,-4.3951,-4.522,-4.6663,-4.9221,-5.0221,-5.0702,-5.0702,-5.0702,-5.0702,-5.0702,-5.0812,-5.0883,-5.0883,-5.1705,-5.1873,-5.1157,-5.1834,-5.1776,-5.0925,-5.0906,-5.0906,-5.0906,-5.0906,-5.0906,-5.0906,-5.0906,-5.0906,-5.0906,-5.0906,-5.0906,-5.0906,-5.0906,-5.0906,-5.0906,-5.0906,-5.0906,-5.1003,-5.1796,-5.2066,-5.2066,0.0,0.0,0.0,0.0,0.0,0.0,0.0,0.0,0.0,0.0,0.0,0.0,0.0,0.0,0.0,0.0,0.0,0.0,0.0,0.0,0.0,0.0,0.0,0.0,0.0,0.0,-2.0768,-2.0918,-2.1566,0.0,0.0,0.0,0.0,0.0,0.0,-2.2764,-2.2868,-2.2893,0.0,0.0,0.0,0.0,0.0,0.0,0.0,0.0,0.0,0.0,-2.4818,0.0,0.0,0.0,-2.8827,-3.1781,0.0,0.0,-4.2882,-4.4891,-4.7716,-4.868,-4.8758,-4.8068,-4.5316,-4.2124,-3.9585,0.0,-3.2949,-3.1256,-3.0641,-3.0775,-3.1968,-3.2564,-3.3526,0.0,0.0,0.0,-4.1489,-4.2297,-4.4028,-4.8125,-4.8913,-4.9548,-5.0587,-5.0702,-5.0702,-5.0701,-5.0757,-5.081,-5.0899,-5.1222,-5.1505,-5.1679,-5.1505,-5.1254,-5.0906,-5.0906,-5.0906,-5.0906,-5.0906,-5.0906,-5.0906,-5.0906,-5.0906,-5.0906,-5.0906,-5.0906,-5.0867,-5.0384,-5.0461,-5.0848,-5.0384,-5.019,-5.0287,-5.1119,-5.1119,-5.0848,0.0,0.0,0.0,0.0,0.0,0.0,0.0,0.0,0.0,0.0,0.0,0.0,0.0,0.0,0.0,0.0,0.0,0.0,0.0,0.0,0.0,0.0,0.0,0.0,0.0,0.0,-2.0075,-2.0417,-2.1201,-2.1797,0.0,0.0,-2.2579,-2.2712,0.0,0.0,0.0,0.0,0.0,0.0,0.0,0.0,0.0,0.0,0.0,0.0,0.0,0.0,0.0,0.0,0.0,0.0,0.0,0.0,0.0,0.0,-4.0364,-4.2524,-4.5706,-4.7145,-4.7548,-4.6721,-4.3951,-4.0758,0.0,0.0,-3.2141,-3.0698,-3.0609,-3.0968,-3.1583,-3.2564,-3.3487,0.0,0.0,-3.6776,-3.9392,-4.0181,-4.2008,-4.6124,-4.6836,-4.7759,-4.974,-5.0394,-5.0702,-5.0701,-5.072,-5.0775,-5.0883,-5.0877,-5.1164,-5.1796,-5.1215,-5.0906,-5.0906,-5.0906,-5.0906,-5.0906,-5.0906,-5.0906,-5.0906,-5.0906,-5.0906,-5.0906,-5.0906,-5.077,-5.0519,-5.019,-5.0113,-5.0132,-4.9823,-4.9533,-4.9436,-5.0519,-5.0712,-5.0616,0.0,0.0,0.0,0.0,0.0,0.0,0.0,0.0,0.0,0.0,0.0,0.0,0.0,0.0,0.0,0.0,0.0,0.0,0.0,0.0,0.0,0.0,0.0,0.0,0.0,0.0,0.0,-2.0688,-2.0755,-2.1378,-2.2515,-2.2569,-2.2632,-2.2712,0.0,0.0,0.0,0.0,0.0,0.0,0.0,0.0,0.0,0.0,0.0,0.0,0.0,0.0,0.0,0.0,0.0,0.0,0.0,0.0,0.0,0.0,-3.6842,-4.0634,-4.2539,-4.4935,-4.6701,-4.5817,-4.3028,-3.9854,0.0,0.0,-3.1468,-3.0571,-3.1102,-3.1698,-3.1698,-3.3064,-3.418,-3.4199,0.0,0.0,-3.7892,-3.945,-4.1162,-4.2931,-4.3855,-4.5336,-4.7875,-4.9682,-5.0701,-5.0701,-5.0775,-5.0793,-5.0793,-5.0793,-5.0844,-5.0909,-5.0906,-5.0906,-5.0906,-5.0906,-5.0906,-5.0906,-5.0906,-5.0906,-5.0906,-5.0906,-5.0906,-5.0906,-5.0906,-5.0461,-4.9765,-5.0558,-4.9919,-4.8508,-4.9378,-4.9165,-4.8624,-5.0287,-5.1447,-5.2182,0.0,0.0,0.0,0.0,0.0,0.0,0.0,0.0,0.0,0.0,0.0,0.0,0.0,0.0,0.0,0.0,0.0,0.0,0.0,0.0,0.0,0.0,0.0,0.0,0.0,0.0,0.0,0.0,0.0,-2.1295,-2.2226,-2.2332,-2.2487,-2.2632,-2.2712,-2.279,0.0,0.0,0.0,0.0,0.0,0.0,-2.3917,0.0,0.0,0.0,0.0,0.0,0.0,0.0,0.0,0.0,0.0,0.0,0.0,0.0,0.0,0.0,-3.8028,-3.9304,-3.9996,-4.0335,-3.8277,-3.5968,-3.518,0.0,-3.1448,-3.0571,-3.0609,-3.0987,-3.1583,-3.2583,-3.3506,-3.4103,0.0,0.0,0.0,-3.9431,-4.1566,-4.447,-4.7086,-4.899,-4.9798,-5.0375,-5.0683,-5.0683,-5.0721,-5.074,-5.072,-5.072,-5.0793,-5.0897,-5.0897,-5.0893,-5.0906,-5.0906,-5.0906,-5.0906,-5.0906,-5.0906,-5.0906,-5.0906,-5.0906,-5.0906,-5.0906,-5.0442,-4.9726,-4.9977,-4.9765,-4.932,-4.9591,-4.9881,-5.0171,-5.0712,-5.108,-5.1486,0.0,0.0,0.0,0.0,0.0,0.0,0.0,0.0,0.0,0.0,0.0,0.0,0.0,0.0,0.0,0.0,0.0,0.0,0.0,0.0,0.0,0.0,0.0,0.0,0.0,0.0,0.0,0.0,0.0,0.0,0.0,-2.236,-2.2487,-2.2632,-2.2712,-2.2816,0.0,0.0,0.0,0.0,0.0,0.0,-2.3996,0.0,0.0,0.0,0.0,0.0,0.0,0.0,0.0,0.0,0.0,0.0,0.0,0.0,-2.8793,-3.1369,0.0,-3.524,-3.5965,-3.682,-3.5353,0.0,0.0,0.0,0.0,0.0,0.0,0.0,0.0,-3.291,-3.3949,-3.416,-3.5872,-3.7276,-3.7488,-3.9527,-4.2008,-4.4778,-4.7836,-4.9721,-4.9721,-5.0298,-5.0702,-5.0702,-5.0702,-5.0702,-5.0683,-5.0702,-5.0758,-5.0829,-5.0846,-5.0844,-5.0858,-5.0858,-5.0858,-5.0858,-5.0858,-5.0858,-5.0858,-5.0858,-5.0858,-5.0877,-5.1225,-5.0703,0.0,-4.9988,-4.9544,-4.8713,-4.9042,-4.9486,-5.0008,-5.0645,-5.107,-5.1554,0.0,0.0,0.0,0.0,0.0,0.0,0.0,0.0,0.0,0.0,0.0,0.0,0.0,0.0,0.0,0.0,0.0,0.0,0.0,0.0,0.0,0.0,0.0,0.0,0.0,0.0,0.0,-1.9786,-1.9933,-2.0839,-2.2405,0.0,0.0,-2.2685,-2.2764,-2.2842,0.0,0.0,0.0,0.0,0.0,0.0,0.0,0.0,0.0,0.0,0.0,0.0,0.0,0.0,0.0,0.0,0.0,0.0,0.0,0.0,0.0,0.0,0.0,-3.2472,-3.4011,-3.4831,-3.3826,0.0,0.0,0.0,0.0,0.0,0.0,0.0,0.0,0.0,0.0,-3.4334,-3.6295,-3.7642,-3.6911,-3.9835,-4.2681,-4.4297,-4.674,-4.824,-4.8105,-4.9683,-5.0702,-5.0702,-5.0702,-5.0702,-5.0702,-5.0702,-5.0702,-5.0701,-5.0757,-5.0793,-5.0793,-5.0793,-5.0793,-5.0793,-5.0793,-5.0793,-5.0793,-5.0793,-5.0793,-5.085,-5.1661,-5.1063,-4.9577,-5.0445,-4.9365,-4.7262,-4.813,-4.8555,-4.8844,-5.0272,-5.1429,-5.2394,0.0,0.0,0.0,0.0,0.0,0.0,0.0,0.0,0.0,0.0,0.0,0.0,0.0,0.0,0.0,0.0,0.0,0.0,0.0,0.0,0.0,0.0,0.0,0.0,0.0,0.0,0.0,-1.9786,-2.0052,-2.0917,-2.2405,-2.2487,0.0,0.0,0.0,0.0,0.0,0.0,0.0,0.0,0.0,0.0,0.0,0.0,0.0,0.0,-2.4266,-2.4284,0.0,0.0,0.0,0.0,0.0,0.0,0.0,0.0,-2.5912,-2.6746,-2.7427,0.0,-3.0433,-3.1271,-3.0739,-3.0163,0.0,0.0,0.0,0.0,0.0,0.0,0.0,0.0,0.0,-3.4218,-3.5776,-3.718,-3.7623,-4.1739,-4.5105,-4.6163,-4.8548,-4.9567,-4.824,-4.9683,-5.0702,-5.0702,-5.0702,-5.0702,-5.0702,-5.0702,-5.0702,-5.0702,-5.0721,-5.074,-5.0793,-5.0793,-5.0793,-5.0793,-5.0793,-5.0793,-5.0793,-5.0793,-5.0793,-5.0812,-5.1024,-5.0484,-4.9577,-5.0445,-5.004,-4.8998,-4.9867,-5.0985,-5.2008,-5.112,-5.2162,-5.3956,0.0,0.0,0.0,0.0,0.0,0.0,0.0,0.0,0.0,0.0,0.0,0.0,0.0,0.0,0.0,0.0,0.0,0.0,0.0,0.0,0.0,0.0,0.0,0.0,0.0,0.0,0.0,0.0,0.0,-2.1045,0.0,0.0,0.0,0.0,0.0,0.0,0.0,0.0,0.0,0.0,-2.3774,0.0,0.0,0.0,0.0,0.0,-2.4321,-2.4409,0.0,-2.4613,-2.4676,-2.47,0.0,0.0,0.0,0.0,-2.5627,-2.6319,-2.6346,-2.7097,-2.8147,-2.9391,-2.9384,-2.9282,0.0,0.0,0.0,0.0,0.0,0.0,0.0,0.0,0.0,-3.5218,-3.6449,-3.8007,-4.0046,-4.2701,-4.5201,-4.7221,-4.8663,-4.9452,-4.9317,-5.0144,-5.0702,-5.0702,-5.0702,-5.0702,-5.0702,-5.0702,-5.0702,-5.0702,-5.0702,-5.0721,-5.0758,-5.0758,-5.0758,-5.0758,-5.0758,-5.0758,-5.0777,-5.1125,-5.1298,-5.1337,-5.2146,-5.178,-5.0643,-5.1106,-5.0566,-4.9545,-5.0411,-5.1529,-5.2627,-5.2531,-5.3109,-5.3995,0.0,0.0,0.0,0.0,0.0,0.0,0.0,0.0,0.0,0.0,0.0,0.0,0.0,0.0,0.0,0.0,0.0,0.0,0.0,0.0,0.0,0.0,0.0,0.0,0.0,0.0,0.0,0.0,0.0,0.0,0.0,0.0,-2.2712,0.0,0.0,0.0,0.0,0.0,-2.3638,-2.3795,-2.3858,0.0,0.0,0.0,0.0,0.0,0.0,0.0,0.0,-2.4707,-2.4734,-2.4794,-2.4794,0.0,0.0,0.0,0.0,0.0,-2.6434,-2.6575,-2.707,-2.8753,-2.9181,-2.9398,0.0,0.0,0.0,0.0,0.0,0.0,0.0,-3.4391,0.0,-3.6454,-3.7647,-3.9585,-4.3008,-4.3605,-4.4778,-4.7759,-4.8336,-4.8971,-5.0183,-5.0529,-5.0702,-5.0702,-5.0702,-5.0702,-5.0702,-5.0702,-5.0702,-5.0702,-5.0702,-5.0702,-5.0702,-5.0702,-5.0702,-5.0702,-5.0702,-5.076,-5.0914,-5.1587,-5.1914,-5.1991,-5.3453,-5.3203,-5.1722,-5.1722,-5.0875,-4.9663,-5.0414,-5.1183,-5.2087,-5.3568,-5.3722,-5.3395,0.0,0.0,0.0,0.0,0.0,0.0,0.0,0.0,0.0,0.0,0.0,0.0,0.0,0.0,0.0,0.0,0.0,0.0,0.0,0.0,0.0,0.0,0.0,0.0,0.0,0.0,0.0,0.0,0.0,0.0,-2.2605,-2.2659,-2.2712,-2.2712,0.0,-2.3102,-2.3336,-2.3504,-2.3682,-2.3795,-2.3816,0.0,0.0,0.0,0.0,0.0,0.0,0.0,0.0,-2.4707,-2.4734,-2.4794,-2.4794,0.0,0.0,0.0,0.0,0.0,-2.7004,-2.7426,-2.7847,-2.9574,-3.0021,-3.0272,-3.118,0.0,0.0,0.0,0.0,0.0,0.0,-3.5249,-3.5528,-3.6541,-3.8635,-4.1322,-4.4739,-4.5855,-4.6759,-4.7971,-4.9394,-4.9817,-4.8625,-4.9817,-5.0702,-5.0702,-5.0702,-5.0702,-5.0702,-5.0702,-5.0702,-5.0702,-5.0702,-5.0702,-5.0702,-5.0702,-5.0702,-5.0702,-5.0702,-5.1048,-5.1722,-5.1856,-5.1914,-5.1914,-5.2183,-5.176,-5.0875,-5.0875,-5.0721,-5.051,-5.0644,-5.1183,-5.1933,-5.2202,-5.2683,-5.3241,0.0,0.0,0.0,0.0,0.0,0.0,0.0,0.0,0.0,0.0,0.0,0.0,0.0,0.0,0.0,0.0,0.0,0.0,0.0,0.0,0.0,0.0,0.0,0.0,0.0,0.0,0.0,0.0,0.0,-2.1592,-2.2659,-2.2685,-2.2738,-2.2816,0.0,-2.3217,-2.3407,-2.3611,-2.3747,-2.3795,0.0,0.0,0.0,0.0,0.0,0.0,0.0,0.0,0.0,0.0,-2.4827,-2.4856,-2.4903,0.0,0.0,0.0,0.0,0.0,-2.5994,-2.6877,-2.7889,-2.9136,-2.9827,-3.0308,-3.0751,0.0,0.0,0.0,0.0,0.0,0.0,0.0,-3.6834,-3.9092,-4.1086,-4.2947,-4.4664,-4.5515,-4.6513,-4.7933,-4.8817,-4.9356,-4.949,-5.0083,-5.0504,-5.0683,-5.0544,-5.0504,-5.0683,-5.0702,-5.0471,-5.001,-5.0452,-5.0471,-4.999,-5.0452,-5.0702,-5.0702,-5.0702,-5.0894,-5.1279,-5.1702,-5.1914,-5.1933,-5.2414,-5.2125,-5.1318,-5.0875,-5.0414,-4.999,-4.999,-5.051,-5.1356,-5.2279,-5.2568,-5.251,0.0,0.0,0.0,0.0,0.0,0.0,0.0,0.0,0.0,0.0,0.0,0.0,0.0,0.0,0.0,0.0,0.0,0.0,0.0,0.0,0.0,0.0,0.0,0.0,0.0,0.0,-2.004,-2.1781,-2.1652,-2.1987,-2.2712,-2.2712,-2.2764,0.0,0.0,-2.3313,-2.3517,-2.3721,-2.381,-2.3795,0.0,0.0,0.0,0.0,0.0,0.0,0.0,0.0,0.0,0.0,0.0,0.0,0.0,0.0,0.0,-2.501,-2.5004,-2.5037,-2.5251,-2.6417,-2.7733,-2.8356,0.0,-3.0338,-3.0958,0.0,0.0,0.0,0.0,0.0,0.0,-3.652,-3.8207,-4.1163,-4.3043,-4.4456,-4.5266,-4.574,-4.6631,-4.8394,-4.8547,-4.9005,-5.0368,-5.0249,-5.0225,-5.0462,-5.0313,-5.0294,-5.0565,-5.0471,-5.0087,-4.9413,-4.9856,-4.9875,-4.9394,-5.0048,-5.0491,-5.0702,-5.0702,-5.0702,-5.0721,-5.1337,-5.151,-5.1356,-5.2029,-5.1818,-5.0971,-5.0356,-4.9817,-4.9394,-4.9394,-4.9933,-5.0856,-5.2145,-5.2068,-5.1337,0.0,0.0,0.0,0.0,0.0,0.0,0.0,0.0,0.0,0.0,0.0,0.0,0.0,0.0,0.0,0.0,0.0,0.0,0.0,0.0,0.0,0.0,0.0,0.0,0.0,-2.0416,-2.0925,-2.2599,-2.1936,-2.1987,-2.2712,-2.2712,-2.2764,-2.2919,0.0,-2.336,-2.3499,-2.3707,-2.3795,-2.3795,-2.3795,0.0,0.0,0.0,0.0,0.0,0.0,0.0,0.0,0.0,0.0,0.0,0.0,0.0,-2.501,-2.501,-2.501,-2.5181,-2.5986,-2.6835,-2.7533,-2.7651,0.0,0.0,-3.3165,-3.2526,0.0,-3.5576,0.0,0.0,0.0,-3.7833,-3.9431,-4.0908,-4.3266,-4.5814,-4.8315,-4.8427,-4.8694,-4.992,-4.9822,-4.9724,-4.9838,-4.9857,-4.9857,-4.9857,-5.0068,-5.0206,-5.023,-4.9776,-4.9452,-4.9394,-4.8682,-4.8644,-4.9394,-4.9452,-4.9894,-5.0702,-5.0702,-5.0702,-5.0702,-5.076,-5.0337,-4.9586,-4.9644,-4.9183,-4.8375,-4.8317,-4.8721,-4.9394,-4.9394,-4.9933,-5.0702,-5.0837,-5.0317,-4.9702,0.0,0.0,0.0,0.0,0.0,0.0,0.0,0.0,0.0,0.0,0.0,0.0,0.0,0.0,0.0,0.0,0.0,0.0,0.0,0.0,0.0,0.0,0.0,-2.0327,-2.1809,-2.1293,-2.1567,-2.2712,-2.2436,-2.2436,-2.2712,-2.2712,0.0,0.0,0.0,-2.3407,-2.3567,-2.3728,-2.3795,-2.3795,-2.3795,-2.3878,0.0,0.0,0.0,0.0,0.0,0.0,0.0,0.0,0.0,0.0,0.0,0.0,0.0,-2.501,-2.501,-2.5181,-2.601,-2.6859,-2.7633,-2.8213,0.0,0.0,0.0,-3.2306,-3.276,-3.4572,-3.5791,0.0,-3.8385,-3.9565,-4.0706,-4.1784,-4.4216,-4.6393,-4.7605,-4.8381,-4.9096,-4.9743,-4.9746,-4.9692,-4.9784,-4.9655,-4.9627,-4.9803,-4.9721,-4.9776,-4.9943,-4.9281,-4.8735,-4.835,-4.8024,-4.7836,-4.7855,-4.8336,-4.8759,-4.9086,-4.9625,-4.9894,-4.9875,-4.9336,-4.8894,-4.8586,-4.8586,-4.8702,-4.8836,-4.7778,-4.8163,-4.9394,-4.9394,-4.8952,-4.8586,-5.0683,-5.024,-4.8798,0.0,0.0,0.0,0.0,0.0,0.0,0.0,0.0,0.0,0.0,0.0,0.0,0.0,0.0,0.0,0.0,0.0,0.0,0.0,0.0,0.0,0.0,0.0,-2.0594,-2.1938,-2.1856,-2.2091,-2.2659,-2.2685,-2.2712,-2.2712,0.0,0.0,0.0,0.0,-2.3453,-2.3638,-2.375,-2.3795,-2.3795,-2.3795,-2.3858,0.0,0.0,0.0,0.0,0.0,0.0,0.0,0.0,0.0,0.0,0.0,0.0,0.0,0.0,0.0,-2.5504,-2.638,-2.7243,-2.7945,0.0,0.0,0.0,-3.1398,-3.2283,-3.3435,-3.5108,-3.6387,-3.7721,-3.9377,-4.0178,-4.1014,-4.2284,-4.459,-4.6352,-4.6826,-4.786,-4.8693,-4.9039,-4.9187,-4.9232,-4.9133,-4.894,-4.8796,-4.8767,-4.8649,-4.8679,-4.8871,-4.8204,-4.7612,-4.7209,-4.6923,-4.6746,-4.6645,-4.728,-4.7722,-4.7972,-4.8645,-4.8856,-4.8586,-4.799,-4.7567,-4.7317,-4.7317,-4.7644,-4.8125,-4.7259,-4.774,-4.9029,-4.9298,-4.8529,-4.7567,-4.9856,-4.9452,-4.7971,0.0,0.0,0.0,0.0,0.0,0.0,0.0,0.0,0.0,0.0,0.0,0.0,0.0,0.0,0.0,0.0,0.0,0.0,0.0,0.0,0.0,0.0,0.0,-2.0732,-2.1194,-2.2058,-2.2525,-2.2605,-2.2659,-2.2712,-2.2712,-2.2842,0.0,0.0,0.0,0.0,-2.37,-2.3771,-2.3813,-2.3795,-2.3795,-2.3919,-2.4097,0.0,0.0,0.0,0.0,0.0,0.0,0.0,0.0,0.0,0.0,0.0,0.0,0.0,-2.5992,-2.6211,-2.7222,-2.8085,-2.8455,0.0,0.0,0.0,-3.1858,-3.2785,-3.447,-3.7898,-3.7766,-3.7459,-3.8958,-3.9388,-4.0173,-4.2168,-4.4053,-4.5612,-4.6557,-4.7073,-4.7509,-4.7839,-4.8317,-4.8309,-4.7657,-4.7583,-4.7284,-4.6568,-4.6738,-4.6899,-4.6899,-4.6396,-4.6095,-4.6114,-4.5255,-4.5217,-4.6076,-4.6351,-4.6863,-4.7665,-4.7952,-4.7663,-4.6913,-4.6913,-4.6413,-4.5605,-4.5605,-4.5605,-4.5663,-4.6567,-4.7356,-4.8164,-4.9048,-4.8875,-4.8087,-4.8105,-4.7605,-4.7145,0.0,0.0,0.0,0.0,0.0,0.0,0.0,0.0,0.0,0.0,0.0,0.0,0.0,0.0,0.0,0.0,0.0,0.0,0.0,0.0,0.0,0.0,0.0,0.0,0.0,0.0,-2.2569,-2.2659,-2.2685,-2.2764,0.0,0.0,0.0,-2.333,0.0,0.0,-2.3736,-2.432,-2.4274,-2.3789,-2.3813,-2.3858,-2.3978,0.0,0.0,0.0,0.0,0.0,0.0,0.0,0.0,0.0,0.0,0.0,0.0,0.0,-2.5879,-2.6244,-2.7671,-2.8271,0.0,-2.9514,0.0,0.0,0.0,-3.3508,0.0,0.0,-3.8814,-3.9107,-4.0486,-4.1314,-4.176,-4.1742,-4.349,-4.4973,-4.5229,-4.5915,-4.6414,-4.6625,-4.7276,-4.7406,-4.6768,-4.7231,-4.7284,-4.6568,-4.6573,-4.6619,-4.6619,-4.5929,-4.5592,-4.5743,-4.4898,-4.4678,-4.5105,-4.5155,-4.5293,-4.552,-4.5594,-4.6075,-4.6913,-4.6857,-4.6283,-4.5322,-4.5263,-4.5483,-4.5993,-4.7333,-4.7327,-4.6619,-4.8049,-4.8087,-4.7428,-4.8331,-4.8361,-4.809,0.0,0.0,0.0,0.0,0.0,0.0,0.0,0.0,0.0,0.0,0.0,0.0,0.0,0.0,0.0,0.0,0.0,0.0,0.0,0.0,0.0,0.0,0.0,0.0,0.0,-2.236,-2.2542,0.0,0.0,0.0,0.0,0.0,0.0,-2.3378,0.0,-2.4009,-2.3692,-2.4204,-2.4176,-2.3804,-2.3789,-2.3834,-2.3896,0.0,0.0,0.0,0.0,0.0,0.0,0.0,0.0,0.0,0.0,0.0,0.0,0.0,-2.6693,-2.699,-2.839,-2.8802,0.0,-3.0329,-3.1499,-3.2668,-3.3905,0.0,0.0,0.0,-3.974,-4.0038,-4.149,-4.192,-4.2118,-4.2216,-4.3343,-4.4213,-4.4213,-4.4929,-4.546,-4.5515,-4.6268,-4.6469,-4.5762,-4.6184,-4.6181,-4.5486,-4.543,-4.543,-4.543,-4.4967,-4.4766,-4.4878,-4.4382,-4.4181,-4.4336,-4.4402,-4.4438,-4.4457,-4.4874,-4.5393,-4.5965,-4.5944,-4.557,-4.4966,-4.4919,-4.5299,-4.598,-4.6936,-4.6693,-4.5938,-4.724,-4.7447,-4.7097,-4.8003,-4.8327,-4.8388,0.0,0.0,0.0,0.0,0.0,0.0,0.0,0.0,0.0,0.0,0.0,0.0,0.0,0.0,0.0,0.0,0.0,0.0,0.0,0.0,0.0,0.0,0.0,0.0,0.0,0.0,0.0,0.0,0.0,0.0,0.0,0.0,-2.3289,-2.3313,0.0,-2.3656,-2.3603,-2.3746,-2.3793,-2.3804,-2.3804,-2.385,-2.3896,-2.3816,0.0,0.0,0.0,0.0,0.0,0.0,0.0,0.0,0.0,0.0,0.0,-2.7442,-2.7925,-2.811,-2.915,0.0,0.0,-3.032,-3.1848,0.0,-3.3981,-3.6703,-3.9412,-4.0519,-4.0414,-4.0579,-4.2121,-4.1809,-4.1809,-4.3259,-4.3497,-4.3497,-4.3497,-4.4121,-4.4599,-4.4599,-4.5296,-4.5497,-4.4741,-4.4775,-4.4533,-4.3859,-4.3804,-4.3804,-4.3804,-4.3804,-4.3804,-4.3804,-4.3804,-4.3771,-4.3771,-4.4017,-4.4132,-4.4151,-4.5115,-4.5178,-4.4406,-4.461,-4.4655,-4.4553,-4.4501,-4.4971,-4.5706,-4.5706,-4.5706,-4.5781,-4.6516,-4.6789,-4.6845,-4.7169,-4.7659,-4.8183,0.0,0.0,0.0,0.0,0.0,0.0,0.0,0.0,0.0,0.0,0.0,0.0,0.0,0.0,0.0,0.0,0.0,0.0,0.0,0.0,0.0,0.0,0.0,0.0,0.0,0.0,0.0,0.0,0.0,0.0,0.0,0.0,0.0,-2.3489,0.0,-2.4129,-2.3575,-2.4288,-2.4249,-2.3721,-2.3783,-2.381,-2.3816,-2.3816,-2.3816,0.0,0.0,0.0,0.0,0.0,0.0,0.0,0.0,-2.6334,-2.641,-2.7405,-2.7765,-2.7993,0.0,-2.9026,0.0,0.0,-3.3382,-3.5772,-3.6534,-3.8272,-3.9412,-3.8481,-4.0139,-4.2084,-4.3057,-4.3094,-4.3094,-4.3424,-4.3497,-4.3497,-4.3497,-4.3644,-4.3754,-4.3754,-4.447,-4.4689,-4.3931,-4.4444,-4.4533,-4.3859,-4.3804,-4.3804,-4.3804,-4.3804,-4.3804,-4.3804,-4.3719,-4.3634,-4.3634,-4.3649,-4.3631,-4.3631,-4.3878,-4.356,-4.2871,-4.4655,-4.5012,-4.4192,-4.3918,-4.4253,-4.4994,-4.4946,-4.493,-4.4964,-4.5149,-4.5204,-4.5238,-4.563,-4.652,-4.7575,0.0,0.0,0.0,0.0,0.0,0.0,0.0,0.0,0.0,0.0,0.0,0.0,0.0,0.0,0.0,0.0,0.0,0.0,0.0,0.0,0.0,0.0,0.0,0.0,0.0,0.0,0.0,0.0,0.0,0.0,0.0,0.0,0.0,-2.3512,0.0,-2.3891,-2.3512,-2.3986,-2.396,-2.3652,-2.3696,-2.3721,-2.375,-2.375,-2.3771,-2.3919,-2.4755,0.0,0.0,0.0,0.0,0.0,0.0,0.0,-2.7082,-2.7929,-2.819,-2.8328,0.0,0.0,0.0,-3.1451,0.0,-3.5789,-3.6211,-3.7569,-3.8505,-3.7691,-4.0047,-4.2433,-4.2837,-4.3222,-4.3497,-4.3497,-4.3497,-4.3497,-4.3497,-4.3497,-4.3497,-4.3497,-4.3864,-4.3956,-4.3603,-4.3934,-4.4042,-4.3671,-4.3652,-4.3652,-4.3652,-4.3652,-4.3652,-4.3652,-4.36,-4.3548,-4.3548,-4.3532,-4.3497,-4.3497,-4.3112,-4.2506,-4.1772,-4.3367,-4.3968,-4.3795,-4.3615,-4.3787,-4.4173,-4.4156,-4.4121,-4.4158,-4.4562,-4.4709,-4.4781,-4.5537,-4.6175,-4.6708,0.0,0.0,0.0,0.0,0.0,0.0,0.0,0.0,0.0,0.0,0.0,0.0,0.0,0.0,0.0,0.0,0.0,0.0,0.0,0.0,0.0,0.0,0.0,0.0,0.0,0.0,0.0,0.0,0.0,0.0,0.0,0.0,0.0,-2.3667,0.0,-2.3595,-2.3494,-2.3494,-2.3539,-2.3585,-2.3585,-2.3723,-2.3898,-2.3898,-2.401,-2.4288,-2.51,-2.5375,-2.562,-2.7085,0.0,0.0,0.0,0.0,-2.7743,-2.8555,-2.8737,-2.8694,0.0,0.0,-2.9777,-3.1847,-3.3688,0.0,-3.4807,-3.6083,-3.7276,-3.7276,-3.9735,-4.1937,-4.2066,-4.2745,-4.3277,-4.3277,-4.3406,-4.3497,-4.3497,-4.3497,-4.3497,-4.3497,-4.3497,-4.3497,-4.3497,-4.3497,-4.3497,-4.3497,-4.3497,-4.3497,-4.3497,-4.3369,-4.3277,-4.3277,-4.3149,-4.3075,-4.3075,-4.3075,-4.3075,-4.3075,-4.2268,-4.168,-4.1332,-4.1717,-4.2396,-4.3296,-4.3424,-4.3497,-4.3497,-4.3497,-4.3497,-4.3552,-4.4232,-4.4488,-4.4616,-4.5568,-4.5817,-4.5718,0.0,0.0,0.0,0.0,0.0,0.0,0.0,0.0,0.0,0.0,0.0,0.0,0.0,0.0,0.0,0.0,0.0,0.0,-2.0693,0.0,0.0,-2.214,-2.2225,0.0,0.0,0.0,0.0,0.0,0.0,0.0,0.0,0.0,0.0,-2.4279,0.0,0.0,-2.3494,-2.3494,-2.3539,-2.3585,-2.3585,-2.4024,-2.4644,-2.4644,-2.5075,-2.5817,-2.6626,-2.6945,-2.7145,-2.8066,-2.8327,0.0,0.0,0.0,-2.8467,-2.8576,-2.8612,-2.8612,0.0,0.0,-3.0891,0.0,-3.314,-3.4733,0.0,0.0,-3.645,-3.645,-3.8469,-4.0432,-4.1148,-4.1919,-4.2451,-4.2451,-4.3039,-4.3497,-4.3497,-4.3497,-4.3497,-4.3497,-4.3497,-4.3497,-4.3497,-4.3497,-4.3497,-4.3497,-4.3497,-4.3497,-4.3497,-4.2837,-4.2451,-4.2451,-4.1791,-4.1423,-4.1423,-4.1423,-4.1423,-4.1423,-4.0598,-4.0891,-4.2103,-4.0799,-4.1038,-4.2506,-4.3185,-4.3497,-4.3497,-4.3497,-4.3497,-4.3497,-4.3608,-4.3644,-4.3663,-4.3823,-4.4285,-4.4874,0.0,0.0,0.0,0.0,0.0,0.0,0.0,0.0,0.0,0.0,0.0,0.0,0.0,0.0,0.0,-2.0509,-2.0509,-2.0677,-2.1006,-2.1386,-2.1721,-2.202,-2.2152,-2.2254,-2.231,0.0,0.0,0.0,0.0,0.0,0.0,-2.4408,-2.4604,0.0,0.0,0.0,0.0,-2.4016,-2.3857,-2.3575,-2.3952,-2.4379,-2.4854,-2.5237,-2.5637,-2.6099,-2.6882,-2.7202,-2.741,-2.8222,-2.8484,-2.8458,-2.8562,0.0,0.0,0.0,-2.8587,-2.8612,-2.8662,-2.9522,-3.0555,0.0,-3.2356,-3.3543,-3.3652,-3.4641,-3.5512,-3.5512,-3.6769,-3.8395,-4.0102,-4.1093,-4.1644,-4.1644,-4.1919,-4.2158,-4.2158,-4.2158,-4.2158,-4.2158,-4.2158,-4.2323,-4.2782,-4.2818,-4.2818,-4.2818,-4.2818,-4.2635,-4.2176,-4.1827,-4.1644,-4.1644,-4.1295,-4.1111,-4.1111,-4.1111,-4.0873,-4.0414,-4.0065,-4.0029,-4.0267,-4.001,-4.102,-4.2965,-4.2873,-4.3075,-4.3497,-4.3497,-4.3497,-4.3497,-4.3497,-4.3497,-4.3497,-4.3497,-4.3718,-4.403,0.0,0.0,0.0,0.0,0.0,0.0,0.0,0.0,0.0,0.0,0.0,0.0,0.0,0.0,0.0,0.0,-2.0693,-2.0876,-2.134,-2.1524,-2.1735,-2.1974,-2.2123,-2.2254,-2.231,0.0,0.0,0.0,0.0,0.0,-2.4296,-2.4645,-2.5085,0.0,-2.577,-2.5473,0.0,0.0,0.0,-2.4215,-2.4521,-2.4837,-2.5219,-2.5737,-2.61,-2.6471,-2.7059,-2.7334,-2.7528,-2.812,-2.8309,-2.8327,-2.8388,-2.8362,0.0,0.0,0.0,-2.8484,0.0,0.0,-2.9934,-3.0683,-3.1437,-3.2238,0.0,-3.3807,-3.4393,-3.4796,-3.5457,-3.6549,-3.8548,-3.9808,-4.0561,-4.0763,-4.0983,-4.1111,-4.1111,-4.1111,-4.1111,-4.1111,-4.1111,-4.135,-4.1937,-4.2011,-4.2011,-4.2011,-4.2011,-4.1735,-4.1148,-4.0928,-4.0799,-4.0799,-4.0616,-4.0506,-4.0506,-4.0506,-4.0194,-3.9588,-3.9588,-3.9386,-3.9019,-3.9405,-4.0799,-4.2873,-4.247,-4.2763,-4.3497,-4.3497,-4.3497,-4.3497,-4.3497,-4.3497,-4.3497,-4.3497,-4.3497,-4.3497,0.0,0.0,0.0,0.0,0.0,0.0,0.0,0.0,0.0,0.0,0.0,0.0,-2.0304,-2.0304,-2.0407,-2.0693,-2.0693,-2.0925,-2.1462,-2.1777,-2.2044,-2.2168,-2.2254,0.0,-2.231,0.0,0.0,0.0,0.0,0.0,-2.349,-2.447,-2.5518,-2.6605,-2.623,-2.6083,-2.6051,0.0,0.0,0.0,-2.5265,-2.5421,-2.6137,-2.6231,-2.676,-2.7435,-2.7601,-2.7718,-2.7794,-2.7829,-2.8045,-2.8255,-2.8027,-2.8101,-2.8255,0.0,0.0,0.0,0.0,-2.8846,0.0,-2.9888,-3.0486,-3.1238,-3.2247,-3.252,-3.2958,-3.4491,-3.4895,-3.5245,-3.6131,-3.7674,-3.9074,-3.9827,-4.0598,-4.1111,-4.1111,-4.1111,-4.1111,-4.1111,-4.1111,-4.113,-4.1167,-4.1167,-4.1167,-4.1167,-4.1167,-4.1148,-4.1111,-4.0377,-3.9955,-3.9955,-3.9221,-3.8836,-3.8836,-3.8836,-3.8799,-3.8762,-3.8762,-3.9148,-3.9808,-3.9093,-3.9662,-4.1277,-4.1992,-4.2763,-4.3497,-4.3497,-4.3497,-4.3497,-4.3497,-4.3497,-4.3497,-4.3497,-4.3497,-4.3497,0.0,0.0,0.0,0.0,0.0,0.0,0.0,0.0,0.0,0.0,0.0,0.0,0.0,-2.0373,-2.046,-2.0877,-2.1198,-2.1448,-2.1493,-2.1764,-2.2003,-2.2185,-2.2225,-2.2271,-2.231,0.0,0.0,0.0,0.0,-2.2682,-2.341,-2.4258,-2.5128,-2.6031,-2.7198,-2.7345,-2.6702,-2.6536,0.0,0.0,-2.5592,-2.6156,-2.697,-2.7459,-2.8135,-2.8793,-2.894,-2.9019,-2.9026,-2.8583,-2.8499,-2.847,-2.8028,-2.7876,-2.7864,-2.7886,-2.7943,-2.7989,0.0,0.0,0.0,-2.9467,-2.9863,-3.0441,-3.1928,-3.2292,-3.2657,-3.3749,-3.4025,-3.4319,-3.5162,-3.6318,-3.7239,-3.7533,-3.8248,-3.8781,-3.8781,-3.9239,-3.957,-3.957,-3.957,-3.9772,-4.0286,-4.0322,-4.0322,-4.0322,-4.0322,-4.0102,-3.9588,-3.9294,-3.9129,-3.9129,-3.8854,-3.8707,-3.8707,-3.8707,-3.8707,-3.8707,-3.8707,-3.8854,-3.9129,-3.8836,-3.9294,-4.0341,-4.0634,-4.1222,-4.2011,-4.2525,-4.2727,-4.2782,-4.3296,-4.3497,-4.3497,-4.3497,-4.3497,-4.3497,0.0,0.0,0.0,0.0,0.0,0.0,0.0,0.0,0.0,0.0,0.0,0.0,0.0,0.0,-2.0628,-2.1071,-2.1524,-2.1751,-2.1645,-2.1794,-2.1957,-2.2123,-2.2168,-2.2214,-2.2271,0.0,0.0,0.0,0.0,0.0,0.0,-2.4036,-2.4881,-2.5676,-2.7516,-2.8081,0.0,0.0,-2.7429,-2.6774,-2.6855,-2.7263,-2.7825,-2.8356,-2.8836,-2.9281,-2.9489,-2.954,-2.9521,-2.9084,-2.896,-2.8885,-2.8224,-2.7762,-2.7526,-2.7642,-2.7713,-2.776,-2.7771,0.0,0.0,0.0,-2.9088,-2.9593,-3.1335,-3.1781,-3.2173,-3.3245,-3.352,-3.3723,-3.4308,-3.496,-3.5585,-3.6211,-3.6743,-3.7092,-3.7092,-3.7551,-3.79,-3.79,-3.79,-3.8212,-3.9001,-3.9074,-3.9203,-3.9478,-3.9239,-3.8854,-3.8322,-3.8046,-3.79,-3.79,-3.79,-3.79,-3.79,-3.79,-3.79,-3.79,-3.79,-3.8046,-3.8303,-3.8303,-3.8744,-3.9496,-3.9496,-4.012,-4.1148,-4.168,-4.1901,-4.1992,-4.2782,-4.3094,-4.313,-4.3387,-4.3497,-4.3497,0.0,0.0,0.0,0.0,0.0,0.0,0.0,0.0,0.0,0.0,0.0,0.0,0.0,0.0,0.0,-2.142,-2.1697,-2.1877,-2.1919,-2.1949,-2.1978,-2.2065,-2.2173,-2.2252,-2.2264,0.0,0.0,0.0,0.0,0.0,0.0,0.0,-2.4898,-2.5676,-2.713,-2.8247,-2.8994,-2.9011,-2.9397,-2.9935,-2.9076,-2.8695,-2.8749,-2.8807,-2.8824,-2.8878,-2.9136,-2.9244,-2.9227,-2.9245,-2.942,-2.9471,-2.8544,-2.7805,-2.7333,-2.7333,-2.7397,-2.7473,0.0,0.0,0.0,-2.805,-2.8172,-2.8675,-3.0384,-3.0856,-3.1437,-3.3031,-3.3433,-3.3491,-3.3509,-3.3549,-3.4173,-3.5926,-3.6248,-3.6266,-3.6266,-3.6285,-3.6303,-3.6303,-3.6303,-3.6597,-3.7397,-3.7441,-3.7771,-3.8579,-3.79,-3.7441,-3.7441,-3.6707,-3.6303,-3.6285,-3.6285,-3.6285,-3.6285,-3.6285,-3.6303,-3.6303,-3.6303,-3.6707,-3.7507,-3.7507,-3.7936,-3.8707,-3.8707,-3.9588,-4.1038,-4.1056,-4.1075,-4.1148,-4.1956,-4.2286,-4.2396,-4.3167,-4.3461,-4.3497,0.0,0.0,0.0,0.0,0.0,0.0,0.0,0.0,0.0,0.0,0.0,0.0,0.0,-2.2401,-2.2559,-2.2474,-2.2931,-2.3145,-2.3063,-2.3194,-2.3354,-2.3529,-2.3546,-2.3625,-2.3796,0.0,0.0,0.0,0.0,0.0,0.0,0.0,0.0,0.0,-2.713,-2.7943,-2.818,-2.8738,-2.8772,-2.8448,-2.8619,-2.898,-2.9432,-2.9393,-2.9665,-3.0075,-3.0314,-3.0448,-3.0347,-2.9922,-2.9941,-2.9985,-2.9351,-2.8645,-2.8092,-2.8092,-2.8092,-2.8125,-2.8189,0.0,0.0,0.0,0.0,0.0,-2.9612,-3.0205,-3.0915,-3.2151,-3.2829,-3.3286,-3.3462,-3.3538,-3.3712,-3.4264,-3.4869,-3.531,-3.531,-3.5871,-3.6303,-3.6303,-3.6303,-3.6376,-3.6597,-3.6615,-3.6707,-3.6945,-3.6762,-3.6615,-3.6615,-3.6413,-3.6256,-3.6161,-3.6161,-3.6161,-3.6161,-3.6161,-3.619,-3.6303,-3.6303,-3.6707,-3.7507,-3.7507,-3.7936,-3.8707,-3.8707,-3.8946,-3.9423,-3.9992,-4.023,-4.0304,-4.113,-4.1791,-4.2323,-4.2543,-4.3002,-4.3497,0.0,0.0,0.0,0.0,0.0,0.0,0.0,0.0,0.0,0.0,0.0,0.0,0.0,0.0,-2.3291,-2.324,-2.3517,-2.3669,-2.3617,-2.3719,-2.3852,-2.3967,-2.4049,-2.4146,0.0,0.0,0.0,0.0,0.0,0.0,0.0,0.0,0.0,0.0,0.0,0.0,0.0,-2.818,-2.8602,-2.8769,-2.9022,-2.9549,-3.0202,-3.0082,-3.0268,-3.0609,-3.0814,-3.0912,-3.0845,-3.051,-3.037,-3.0287,-2.9968,-2.942,-2.8868,-2.8868,-2.8868,-2.8868,-2.8868,-2.9212,-2.9521,-2.9251,0.0,0.0,-2.9663,-3.0178,-3.0802,-3.1863,-3.2685,-3.3256,-3.3422,-3.3452,-3.3481,-3.3491,-3.396,-3.4308,-3.4365,-3.4861,-3.52,-3.52,-3.5229,-3.5385,-3.5734,-3.5771,-3.5917,-3.6266,-3.5973,-3.5605,-3.5275,-3.5229,-3.5182,-3.5107,-3.5078,-3.5049,-3.5049,-3.5078,-3.5154,-3.52,-3.5257,-3.5679,-3.6421,-3.645,-3.6879,-3.7607,-3.8016,-3.8193,-3.8236,-3.9074,-3.9405,-3.9478,-4.0286,-4.1093,-4.1846,-4.2176,-4.28,-4.3497,0.0,0.0,0.0,0.0,0.0,0.0,0.0,0.0,0.0,0.0,0.0,0.0,0.0,0.0,0.0,0.0,-2.3914,-2.3948,-2.3999,-2.4016,-2.4033,-2.4033,-2.4216,-2.4298,0.0,0.0,0.0,0.0,0.0,0.0,0.0,0.0,0.0,0.0,0.0,0.0,0.0,-2.7468,-2.8617,-2.9952,-2.9794,-3.0185,-3.0871,-3.0733,-3.0692,-3.0692,-3.0814,-3.0871,-3.0871,-3.0935,-3.0768,-3.0506,-3.0506,-3.0105,-2.9593,-2.9644,-2.9627,-2.9593,-2.9644,-2.973,-2.9833,-2.9747,-2.9393,0.0,-3.0145,-3.0528,-3.0987,-3.1892,-3.2744,-3.3334,-3.3364,-3.3364,-3.3364,-3.3411,-3.3452,-3.3491,-3.3577,-3.3661,-3.3698,-3.3698,-3.3753,-3.4055,-3.4789,-3.4862,-3.5174,-3.5926,-3.5284,-3.4532,-3.3817,-3.3726,-3.3671,-3.3671,-3.3633,-3.3605,-3.3605,-3.3661,-3.3671,-3.3698,-3.3753,-3.4183,-3.4916,-3.499,-3.5373,-3.6079,-3.6978,-3.7374,-3.7461,-3.8236,-3.8615,-3.8781,-3.9478,-4.0267,-4.1075,-4.1882,-4.2671,-4.3369,-2.0587,0.0,0.0,0.0,0.0,0.0,0.0,0.0,0.0,0.0,0.0,0.0,0.0,0.0,0.0,0.0,-2.5232,-2.5253,-2.5314,-2.5314,-2.5402,-2.5491,-2.5598,-2.5669,-2.5789,0.0,0.0,0.0,0.0,0.0,0.0,0.0,0.0,0.0,0.0,0.0,0.0,-2.7293,-2.8132,-2.908,-2.9537,-3.0185,-3.0871,-3.0651,-3.0526,-3.0526,-3.0568,-3.0568,-3.0609,-3.0814,-3.0971,-3.1065,-3.1219,-3.0782,-3.0257,-3.0437,-3.0384,-3.0331,-3.0419,-3.0903,-3.1232,-3.0716,-3.0456,0.0,-2.9964,-3.0412,-3.0984,-3.1384,-3.2154,-3.2834,-3.3117,-3.3165,-3.3226,-3.3364,-3.3393,-3.3452,-3.3491,-3.3577,-3.3633,-3.3633,-3.3633,-3.3688,-3.388,-3.3908,-3.4009,-3.4118,-3.399,-3.3779,-3.3661,-3.3633,-3.3605,-3.3549,-3.352,-3.352,-3.352,-3.352,-3.3605,-3.3698,-3.3726,-3.4147,-3.499,-3.499,-3.5449,-3.6256,-3.645,-3.689,-3.7496,-3.7661,-3.812,-3.8726,-3.8872,-3.9423,-4.023,-4.1038,-4.1846,-4.2635,-2.1015,0.0,0.0,0.0,0.0,0.0,0.0,0.0,0.0,0.0,0.0,0.0,0.0,-2.5924,-2.6002,-2.615,-2.5712,-2.5508,-2.5701,-2.5701,-2.5738,-2.5791,-2.5917,-2.599,-2.6059,-2.5752,0.0,0.0,0.0,0.0,0.0,0.0,0.0,0.0,0.0,0.0,0.0,-2.7372,-2.8176,-2.9269,-2.9521,-3.0122,-3.0773,-3.0568,-3.0526,-3.0526,-3.0526,-3.0526,-3.0609,-3.0733,-3.0935,-3.1112,-3.123,-3.1091,-3.0861,-3.1065,-3.1085,-3.1067,-3.1194,-3.1524,-3.1714,-3.137,-3.1008,0.0,0.0,-3.0714,-3.1077,-3.1291,-3.2039,-3.2719,-3.288,-3.2961,-3.3073,-3.3226,-3.3256,-3.3286,-3.3422,-3.3509,-3.3549,-3.3549,-3.3577,-3.3605,-3.3605,-3.3633,-3.3633,-3.3605,-3.3605,-3.3605,-3.3605,-3.3577,-3.352,-3.3509,-3.3481,-3.3452,-3.3452,-3.3081,-3.312,-3.3605,-3.3241,-3.3478,-3.4264,-3.4292,-3.4483,-3.4892,-3.5392,-3.5823,-3.6197,-3.6677,-3.7367,-3.8138,-3.8542,-3.9184,-3.9937,-4.0359,-4.102,-4.1827,-2.1377,0.0,0.0,0.0,0.0,0.0,0.0,0.0,0.0,0.0,0.0,0.0,-2.6639,-2.6567,-2.6574,-2.6872,-2.607,-2.5678,-2.5956,-2.5864,-2.5735,-2.568,-2.5807,-2.5844,-2.5844,-2.5937,0.0,0.0,0.0,0.0,0.0,0.0,0.0,0.0,0.0,0.0,0.0,-2.7835,-2.8569,-2.9671,-2.9759,-3.0135,-3.0692,-3.0568,-3.0526,-3.0526,-3.0526,-3.0568,-3.0651,-3.0692,-3.0814,-3.0975,-3.1015,-3.1117,-3.1274,-3.1462,-3.1521,-3.1579,-3.1709,-3.18,-3.18,-3.18,-3.1351,-3.0957,0.0,0.0,0.0,-3.1454,-3.208,-3.2603,-3.2636,-3.277,-3.283,-3.2827,-3.2947,-3.3063,-3.3057,-3.3284,-3.3433,-3.3481,-3.352,-3.3549,-3.3549,-3.3549,-3.3577,-3.3577,-3.3577,-3.3549,-3.3549,-3.3491,-3.3481,-3.3481,-3.3422,-3.3339,-3.3176,-3.2563,-3.2546,-3.3019,-3.2611,-3.2702,-3.3312,-3.3532,-3.3577,-3.3499,-3.4337,-3.4741,-3.4903,-3.5878,-3.6762,-3.7551,-3.8212,-3.8964,-3.968,-3.9827,-4.0304,-4.0983,-2.0797,-2.127,0.0,0.0,0.0,0.0,0.0,0.0,0.0,0.0,0.0,-2.6395,-2.6679,-2.6957,-2.7237,-2.7617,-2.6948,-2.6585,-2.6941,-2.6379,-2.5918,-2.5632,-2.568,-2.5738,-2.5738,-2.5901,-2.6026,0.0,0.0,0.0,0.0,0.0,0.0,0.0,-2.7881,0.0,0.0,-2.8942,-2.9364,-2.9676,-3.0186,-3.0543,-3.0692,-3.0568,-3.0526,-3.0526,-3.0526,-3.0526,-3.0526,-3.0651,-3.0773,-3.0952,-3.1112,-3.1112,-3.1095,-3.1385,-3.1406,-3.1372,-3.1579,-3.1709,-3.18,-3.18,-3.1731,-3.1662,-3.1699,0.0,-3.1809,-3.1845,0.0,-3.2249,-3.2489,0.0,0.0,-3.1938,-3.2451,-3.2697,-3.2,-3.2624,-3.3226,-3.3393,-3.3422,-3.3422,-3.3422,-3.3422,-3.3452,-3.3509,-3.3452,-3.3422,-3.3422,-3.3422,-3.3393,-3.3393,-3.3393,-3.3067,-3.2343,-3.2234,-3.1928,-3.1392,-3.201,-3.2411,-3.2655,-3.3369,-3.3726,-3.3753,-3.3872,-3.433,-3.5064,-3.5936,-3.6762,-3.7526,-3.7588,-3.812,-3.8927,-3.9643,-3.9955,-4.0139,-2.1784,-2.2109,0.0,0.0,0.0,0.0,0.0,0.0,0.0,0.0,0.0,-2.6772,-2.6875,-2.6993,-2.7277,-2.7807,-2.705,-2.666,-2.6922,-2.6682,-2.6566,-2.6663,-2.6671,-2.6581,-2.633,-2.6428,-2.6307,0.0,-2.6063,0.0,0.0,0.0,0.0,0.0,-2.808,-2.8644,-2.9025,-2.9284,-2.9665,-3.0137,-3.0394,-3.051,-3.0568,-3.0526,-3.0526,-3.0526,-3.0526,-3.0526,-3.0526,-3.0551,-3.0892,-3.1258,-3.0907,-3.1156,-3.1547,-3.1269,-3.1235,-3.1334,-3.1542,-3.1596,-3.1651,-3.1763,-3.1746,-3.1709,-3.18,-3.1819,-3.1856,-3.1856,0.0,0.0,0.0,0.0,0.0,0.0,-3.2444,-3.2598,-3.2438,-3.2733,-3.3024,-3.3196,-3.3334,-3.3393,-3.3393,-3.3393,-3.3393,-3.3452,-3.3422,-3.3393,-3.3393,-3.3393,-3.3393,-3.3393,-3.294,-3.2542,-3.2198,-3.1727,-3.1592,-3.1746,-3.2091,-3.2546,-3.3095,-3.3413,-3.3633,-3.3671,-3.3726,-3.3936,-3.4284,-3.4679,-3.533,-3.6101,-3.6597,-3.7569,-3.8744,-3.9074,-3.9203,-3.9313,-2.2802,0.0,0.0,0.0,0.0,0.0,0.0,0.0,-2.5287,-2.5529,-2.6502,-2.7237,-2.7381,-2.7698,-2.8075,-2.8435,-2.7797,-2.738,-2.7471,-2.7143,-2.7039,-2.7238,-2.7322,-2.7249,-2.6936,-2.7055,-2.6896,0.0,0.0,0.0,0.0,0.0,0.0,0.0,0.0,-2.9211,-2.9715,-2.9715,-3.0029,-3.0526,-3.0526,-3.06,-3.0808,-3.0593,-3.0526,-3.0526,-3.0526,-3.0526,-3.0559,-3.08,-3.1231,-3.158,-3.1074,-3.1374,-3.1842,-3.1153,-3.1095,-3.1235,-3.1445,-3.15,-3.1555,-3.1709,-3.1709,-3.1671,-3.18,-3.18,-3.18,-3.18,-3.1856,0.0,0.0,0.0,-3.2109,-3.2124,0.0,-3.2453,-3.242,-3.2645,-3.2866,-3.3024,-3.3196,-3.3334,-3.3334,-3.3364,-3.3393,-3.3393,-3.3393,-3.3393,-3.3393,-3.3393,-3.3393,-3.3393,-3.2832,-3.2415,-3.2198,-3.1618,-3.151,-3.1872,-3.2089,-3.2545,-3.3182,-3.34,-3.3549,-3.3633,-3.3671,-3.3698,-3.3744,-3.4018,-3.4486,-3.5082,-3.5973,-3.7147,-3.8395,-3.8615,-3.8707,-3.8781,-2.3445,-2.3086,0.0,0.0,-2.3348,0.0,-2.5093,-2.5247,-2.5722,-2.7241,-2.7565,-2.7844,-2.8306,-2.9473,-3.0103,-2.9955,-2.9674,-2.9441,-2.925,-2.7994,-2.7148,-2.6823,-2.7195,-2.7306,-2.7164,-2.7623,-2.7867,-2.785,0.0,0.0,0.0,0.0,0.0,0.0,0.0,-3.0393,-3.0435,-3.0435,-3.0493,-3.0526,-3.0526,-3.0957,-3.1477,-3.0791,-3.0526,-3.0526,-3.0526,-3.0526,-3.0626,-3.1482,-3.1791,-3.1807,-3.1918,-3.1875,-3.17,-3.1089,-3.0912,-3.0952,-3.1151,-3.1346,-3.1517,-3.1596,-3.1709,-3.18,-3.18,-3.18,-3.18,-3.18,-3.18,-3.1819,-3.1912,-3.202,-3.1882,-3.1253,-3.1863,0.0,0.0,-3.2029,-3.2672,-3.2884,-3.3042,-3.3117,-3.3117,-3.3304,-3.3393,-3.3393,-3.3393,-3.3393,-3.3393,-3.3393,-3.3393,-3.3393,-3.3375,-3.2995,-3.2198,-3.2162,-3.1781,-3.1039,-3.1818,-3.2254,-3.2346,-3.3146,-3.3577,-3.3698,-3.3698,-3.3726,-3.3862,-3.4651,-3.4972,-3.5082,-3.5973,-3.6798,-3.7624,-3.8414,-3.8707,-3.8707,-2.4194,0.0,0.0,-2.3295,-2.3503,-2.3964,-2.4863,-2.5682,-2.6487,-2.7084,-2.8102,-2.8901,-2.9373,-3.028,-3.0945,-3.1086,-3.0629,-3.0337,-3.0449,-2.9291,-2.8814,-2.9226,-2.9405,-2.9188,-2.8516,-2.8957,-2.8777,-2.7916,0.0,0.0,0.0,0.0,0.0,0.0,0.0,-3.0485,-3.0526,-3.0526,-3.0526,-3.0526,-3.0526,-3.1239,-3.2249,-3.152,-3.1537,-3.1885,-3.1421,-3.1255,-3.1222,-3.1016,-3.1264,-3.158,-3.1141,-3.1366,-3.1658,-3.0966,-3.0831,-3.0912,-3.1032,-3.1112,-3.123,-3.1462,-3.1576,-3.1631,-3.1763,-3.18,-3.18,-3.18,-3.18,-3.18,-3.1819,-3.1856,-3.186,-3.1777,-3.2022,-3.2144,0.0,-3.2281,-3.2473,-3.2541,-3.2787,-3.2979,-3.2979,-3.3104,-3.3196,-3.3196,-3.3334,-3.3393,-3.3393,-3.3147,-3.3129,-3.3393,-3.2625,-3.2211,-3.2198,-3.2198,-3.2053,-3.1799,-3.2614,-3.3024,-3.3092,-3.3382,-3.3549,-3.3633,-3.3671,-3.3726,-3.3744,-3.4073,-3.4211,-3.4357,-3.5752,-3.6119,-3.6009,-3.7404,-3.823,-3.8707,-2.4627,-2.4462,-2.4313,-2.4313,-2.4313,-2.4582,-2.5348,-2.6482,-2.7421,-2.792,-2.9139,-3.0121,-3.0546,-3.148,-3.2103,-3.2071,-3.1862,-3.1513,-3.097,-3.0198,-2.9852,-2.9961,-3.0279,-3.0162,-2.9546,-2.9874,-2.9601,-2.8742,-2.867,-2.8706,0.0,0.0,0.0,0.0,0.0,-3.0485,-3.0526,-3.0526,-3.0526,-3.0526,-3.0526,-3.1553,-3.2994,-3.2282,-3.2133,-3.2249,-3.1785,-3.1411,-3.1205,-3.0974,-3.1196,-3.1494,-3.1056,-3.1281,-3.1573,-3.0867,-3.0692,-3.0773,-3.0855,-3.0935,-3.1055,-3.1308,-3.144,-3.1555,-3.1651,-3.1726,-3.1709,-3.1688,-3.1763,-3.18,-3.1746,-3.1783,-3.1893,-3.2073,-3.2108,-3.2196,0.0,-3.2406,-3.2406,-3.2406,-3.2623,-3.2802,-3.2884,-3.2979,-3.3073,-3.3196,-3.3256,-3.3334,-3.3411,-3.3019,-3.2908,-3.3178,-3.2437,-3.2138,-3.2403,-3.2557,-3.2632,-3.2632,-3.3158,-3.3422,-3.3452,-3.3452,-3.3509,-3.3577,-3.3605,-3.3661,-3.3698,-3.3753,-3.378,-3.3917,-3.4981,-3.544,-3.5642,-3.7,-3.7826,-3.8303,-2.4806,-2.5255,-2.5689,-2.5659,-2.5659,-2.5869,-2.6497,-2.7448,-2.85,-2.9689,-3.0706,-3.1475,-3.2,-3.3065,-3.3532,-3.287,-3.3246,-3.2856,-3.1213,-3.092,-3.0347,-2.9213,-3.0011,-3.0324,-3.0075,-3.03,-3.0355,-3.0291,-3.0006,0.0,0.0,0.0,0.0,0.0,-3.0375,0.0,-3.0526,-3.0526,-3.0543,-3.0576,-3.0526,-3.1802,-3.3657,-3.2911,-3.2216,-3.1576,-3.1626,-3.1222,-3.0725,-3.1312,-3.1527,-3.1527,-3.1527,-3.1527,-3.1394,-3.0725,-3.051,-3.0526,-3.0651,-3.0855,-3.1015,-3.1151,-3.1363,-3.1479,-3.1517,-3.1576,-3.1596,-3.15,-3.1651,-3.1763,-3.1617,-3.1765,-3.1948,-3.2073,-3.2144,-3.2267,-3.2388,-3.2406,-3.2406,-3.2406,-3.2523,-3.2672,-3.2852,-3.2884,-3.3011,-3.3334,-3.3196,-3.3165,-3.3334,-3.2988,-3.2763,-3.2763,-3.2763,-3.2763,-3.2795,-3.3208,-3.3393,-3.3393,-3.3393,-3.3393,-3.3393,-3.3393,-3.3422,-3.3509,-3.3491,-3.3577,-3.3698,-3.3698,-3.3753,-3.3807,-3.388,-3.4908,-3.645,-3.7239,-3.7581,-3.7661,-2.6075,-2.6617,-2.6916,-2.6422,-2.6333,-2.6441,-2.6733,-2.8162,-2.9516,-3.0343,-3.1892,-3.3171,-3.3772,-3.455,-3.4985,-3.4805,-3.4475,-3.407,-3.3743,-3.2955,-3.2285,-3.1781,-3.1974,-3.1458,-3.0158,-3.1036,-3.1027,-2.9989,-3.0038,0.0,-3.0192,0.0,0.0,0.0,0.0,-3.0231,-3.0526,-3.0526,-3.0841,-3.1246,-3.0742,-3.1504,-3.2895,-3.2166,-3.1785,-3.1643,-3.2216,-3.2299,-3.2,-3.1106,-3.0808,-3.0808,-3.0808,-3.0808,-3.0775,-3.0576,-3.0568,-3.0651,-3.0692,-3.0855,-3.1015,-3.1151,-3.1291,-3.1368,-3.1479,-3.15,-3.15,-3.1517,-3.1555,-3.1576,-3.1596,-3.1654,-3.1765,-3.2037,-3.2232,-3.2354,-3.2406,-3.2406,-3.2406,-3.2406,-3.2422,-3.2491,-3.2507,-3.2755,-3.2802,-3.2588,-3.288,-3.2943,-3.2586,-3.2334,-3.2265,-3.2401,-3.2453,-3.2535,-3.2795,-3.3208,-3.3393,-3.3393,-3.3393,-3.3393,-3.3393,-3.3393,-3.3393,-3.3422,-3.352,-3.3605,-3.3615,-3.3726,-3.378,-3.3917,-3.5165,-3.6285,-3.7276,-3.8102,-3.8395,-3.8414,-2.6647,-2.7126,-2.7545,-2.7485,-2.7709,-2.7955,-2.8006,-2.8952,-3.0108,-3.1339,-3.2736,-3.38,-3.4397,-3.51,-3.5504,-3.5504,-3.5145,-3.4745,-3.4284,-3.3925,-3.3261,-3.2327,-3.2479,-3.1906,-3.0295,-3.0874,-3.0654,-2.9648,-2.9722,0.0,-3.0032,0.0,0.0,0.0,0.0,-3.0316,-3.0485,-3.03,-3.0728,-3.151,-3.0596,-3.1199,0.0,-3.1901,-3.1818,-3.21,-3.2199,-3.2017,-3.162,-3.0791,-3.0526,-3.0526,-3.0526,-3.0526,-3.0526,-3.0526,-3.0609,-3.0692,-3.0692,-3.0855,-3.1015,-3.1095,-3.1173,-3.1291,-3.1346,-3.1385,-3.1406,-3.1385,-3.144,-3.15,-3.1466,-3.1579,-3.1783,-3.2073,-3.2284,-3.2406,-3.2406,-3.2406,-3.2406,-3.2406,-3.2406,-3.2406,-3.2406,-3.2574,-3.2657,-3.2573,-3.2752,-3.2784,-3.257,-3.2214,-3.2039,-3.2179,-3.2179,-3.2299,-3.2568,-3.3037,-3.3304,-3.3393,-3.3393,-3.3393,-3.3393,-3.3393,-3.3393,-3.3393,-3.3481,-3.3549,-3.3605,-3.3671,-3.3753,-3.3972,-3.5642,-3.6578,-3.711,-3.8267,-3.8487,-3.823,-2.6991,-2.732,-2.7889,-2.8502,-2.9205,-2.9759,-2.9939,-3.0138,-3.0885,-3.2527,-3.3457,-3.4179,-3.473,-3.519,-3.5504,-3.5504,-3.5504,-3.5075,-3.3967,-3.4355,-3.3815,-3.2013,-3.2391,-3.1943,-3.0417,-3.0258,-2.9944,-2.9388,-2.9343,0.0,0.0,0.0,0.0,0.0,0.0,0.0,-3.0384,-2.9984,-3.0386,-3.1188,-3.0185,-3.0777,-3.2182,-3.1572,-3.1764,-3.2227,-3.1599,-3.1037,-3.0642,-3.0543,-3.0526,-3.0526,-3.0526,-3.0526,-3.0526,-3.0526,-3.0609,-3.0733,-3.0733,-3.0855,-3.1015,-3.1015,-3.1112,-3.119,-3.119,-3.1252,-3.1274,-3.123,-3.1363,-3.1423,-3.1295,-3.1579,-3.1873,-3.2108,-3.2232,-3.2319,-3.2319,-3.2319,-3.2319,-3.2354,-3.2354,0.0,-3.2406,-3.2422,-3.2541,-3.2787,-3.2672,-3.2639,-3.2705,-3.2231,-3.1932,-3.1896,-3.2003,-3.2179,-3.2458,-3.2902,-3.328,-3.3556,-3.3447,-3.3393,-3.3393,-3.3393,-3.3393,-3.3393,-3.3393,-3.3481,-3.3605,-3.3605,-3.3799,-3.4266,-3.5605,-3.6321,-3.6762,-3.8065,-3.8175,-3.7753,-2.8316,-2.8338,-2.8457,-2.8577,-2.9564,-3.0717,-3.1824,-3.2452,-3.3186,-3.4023,-3.4726,-3.54,-3.6058,-3.5759,-3.5504,-3.5504,-3.5504,-3.5415,-3.5175,-3.5265,-3.4666,-3.3276,-3.326,-3.2198,-2.9789,-3.0368,-3.041,-2.9885,-2.9419,-2.9604,0.0,0.0,0.0,0.0,0.0,0.0,-2.9941,-2.9837,-2.9697,-2.9569,-2.971,-2.9762,-2.9745,-3.0036,-3.0201,-3.0282,-3.0168,-3.0664,-3.1295,-3.0725,-3.0526,-3.0526,-3.0526,-3.0526,-3.0526,-3.0526,-3.0692,-3.0871,-3.0871,-3.1032,-3.1151,-3.1151,-3.119,-3.119,-3.119,-3.123,-3.123,-3.119,-3.123,-3.1269,-3.1295,-3.1579,-3.1837,-3.1873,-3.1929,-3.1948,-3.191,-3.191,-3.1982,-3.2108,-3.2144,-3.2232,-3.2388,-3.2507,-3.2472,-3.2249,-3.2472,-3.237,-3.18,-3.1783,-3.1654,-3.1368,-3.1932,-3.2581,-3.3266,-3.3315,-3.3707,-3.4389,-3.3719,-3.3393,-3.3393,-3.3393,-3.3393,-3.3393,-3.3452,-3.352,-3.3605,-3.3643,-3.4531,-3.5826,-3.5404,-3.6486,-3.823,-3.7845,-3.8028,-3.8505,-2.9431,-2.9217,-2.9307,-3.0447,-3.142,-3.2512,-3.3858,-3.4622,-3.4906,-3.4532,-3.4756,-3.5085,-3.5415,-3.5474,-3.5504,-3.5504,-3.5504,-3.5504,-3.5504,-3.5504,-3.4906,-3.3559,-3.3499,-3.2273,-2.9639,-2.9988,-2.9931,-2.9462,-2.8996,-2.9227,0.0,0.0,0.0,0.0,0.0,-2.9691,-2.9966,-2.9642,-2.9769,-3.0069,-2.9706,-2.9548,-2.9548,-2.9476,-2.9438,-2.9438,-2.9438,-2.9976,-3.0631,-3.0542,-3.0526,-3.0526,-3.0526,-3.0526,-3.0526,-3.0526,-3.0692,-3.0912,-3.0912,-3.1032,-3.119,-3.119,-3.119,-3.119,-3.119,-3.119,-3.119,-3.119,-3.1495,-3.1788,-3.1947,-3.2466,-3.2638,-3.1921,-3.2202,-3.2342,-3.1888,-3.18,-3.1837,-3.1929,-3.1965,-3.2073,-3.2232,-3.2318,-3.2353,-3.2267,-3.2405,-3.2284,-3.1837,-3.18,-3.1651,-3.1363,-3.1877,-3.2389,-3.2862,-3.314,-3.3485,-3.3973,-3.3592,-3.3393,-3.3393,-3.3393,-3.3393,-3.3393,-3.3422,-3.3509,-3.3605,-3.3698,-3.4257,-3.5055,-3.5514,-3.6395,-3.7514,-3.7955,-3.8377,-3.8707,-3.055,-3.0208,-3.0428,-3.2587,-3.3484,-3.4277,-3.534,-3.6073,-3.6148,-3.522,-3.4861,-3.4741,-3.4891,-3.5265,-3.5504,-3.5504,-3.5504,-3.5504,-3.5504,-3.537,-3.4756,-3.3544,-3.3365,-3.2183,-2.9819,-2.9774,-2.9681,-2.9364,-2.8966,-2.9104,-2.9863,0.0,0.0,0.0,-2.964,-2.9927,-3.0162,-2.9701,-2.996,-3.0647,-2.9816,-2.9685,-2.9873,-2.936,-2.9155,-2.914,-2.8982,-2.9287,-2.9853,-3.0258,-3.0426,-3.0526,-3.0526,-3.0626,-3.0716,-3.0716,-3.0925,-3.1146,-3.1146,-3.115,-3.119,-3.119,-3.119,-3.119,-3.119,-3.119,-3.1241,-3.1393,-3.2002,-3.2608,-3.277,-3.3385,-3.3431,-3.2173,-3.2541,-3.2662,-3.1812,-3.1671,-3.1688,-3.1726,-3.1819,-3.1912,-3.2037,-3.2144,-3.2267,-3.2319,-3.2319,-3.2249,-3.2054,-3.191,-3.1726,-3.1517,-3.1894,-3.2301,-3.2615,-3.3001,-3.3316,-3.3647,-3.3484,-3.3393,-3.3393,-3.3393,-3.3393,-3.3393,-3.3393,-3.3481,-3.3605,-3.3753,-3.3899,-3.4174,-3.5312,-3.6083,-3.6688,-3.779,-3.8414,-3.8707,-3.19,-3.1735,-3.1915,-3.3948,-3.4861,-3.537,-3.5489,-3.6073,-3.6641,-3.7075,-3.6133,-3.5639,-3.6237,-3.5833,-3.5504,-3.5504,-3.5504,-3.5504,-3.5504,-3.4921,-3.4247,-3.3529,-3.2916,-3.1913,-3.0447,-3.0417,-3.0513,-3.0633,-3.0091,-2.9946,-3.0134,-2.9878,-2.9861,-3.0053,-3.0814,-3.082,-3.031,-3.0207,-3.0007,-2.978,-3.0097,-2.9977,-2.9599,-2.9368,-2.9308,-2.9215,-2.8568,-2.8996,-2.981,-2.9853,-3.0156,-3.0526,-3.0526,-3.0974,-3.152,-3.152,-3.1707,-3.1876,-3.1876,-3.1554,-3.119,-3.119,-3.119,-3.119,-3.119,-3.119,-3.1376,-3.2036,-3.278,-3.3347,-3.3488,-3.3581,-3.34,-3.2644,-3.2554,-3.2253,-3.1453,-3.1291,-3.1308,-3.1517,-3.1688,-3.1819,-3.1837,-3.2161,-3.2319,-3.2144,-3.2108,-3.2054,-3.1837,-3.18,-3.1726,-3.1517,-3.2197,-3.2908,-3.365,-3.3463,-3.3743,-3.448,-3.3755,-3.3393,-3.3393,-3.3393,-3.3393,-3.3393,-3.3393,-3.3481,-3.3605,-3.3753,-3.4229,-3.4825,-3.4266,-3.5404,-3.7312,-3.6725,-3.7441,-3.8707,-3.3925,-3.3928,-3.4241,-3.5968,-3.6148,-3.6357,-3.712,-3.6806,-3.6582,-3.6821,-3.6073,-3.5609,-3.5863,-3.5669,-3.5504,-3.5504,-3.5504,-3.5504,-3.5504,-3.525,-3.4622,-3.3544,-3.3245,-3.2287,-3.0537,-3.0507,-3.0618,-3.0815,-3.0273,-3.0243,-3.0769,-3.0268,-3.0048,-3.0063,-3.0289,-3.0455,-3.0555,-3.0431,-3.0524,-3.0717,-3.0503,-3.0337,-3.0113,-2.9629,-2.9236,-2.8843,-2.8571,-2.8867,-2.9393,-2.9393,-2.9897,-3.0526,-3.0526,-3.1023,-3.1576,-3.1576,-3.1722,-3.1892,-3.1993,-3.1564,-3.1112,-3.119,-3.119,-3.1309,-3.1749,-3.1512,-3.1529,-3.2713,-3.3541,-3.4066,-3.4109,-3.4211,-3.3862,-3.2638,-3.2468,-3.2213,-3.1353,-3.123,-3.123,-3.1368,-3.1538,-3.1651,-3.1671,-3.2018,-3.2196,-3.2108,-3.2196,-3.2196,-3.2001,-3.1873,-3.1763,-3.1688,-3.193,-3.2389,-3.3066,-3.3073,-3.334,-3.3882,-3.3556,-3.3393,-3.3393,-3.3393,-3.3393,-3.3393,-3.3481,-3.3549,-3.3605,-3.3753,-3.399,-3.4357,-3.5037,-3.5899,-3.6853,-3.7496,-3.8157,-3.8707,-3.574,-3.5583,-3.5866,-3.7704,-3.7165,-3.6851,-3.7943,-3.718,-3.6417,-3.6222,-3.5789,-3.5504,-3.5504,-3.5504,-3.5504,-3.5504,-3.5504,-3.5504,-3.5504,-3.531,-3.4696,-3.3544,-3.3305,-3.2452,-3.0836,-3.0806,-3.0863,-3.099,-3.0719,-3.0721,-3.1019,-3.0601,-3.0335,-3.0174,-3.0135,-3.0388,-3.0904,-3.0458,-3.0612,-3.1165,-3.0507,-3.0342,-3.0432,-2.9819,-2.94,-2.9116,-2.8727,-2.8958,-2.9327,-2.8998,-2.9601,-3.0526,-3.0526,-3.1023,-3.1576,-3.1576,-3.1722,-3.1892,-3.1976,-3.1523,-3.1072,-3.119,-3.119,-3.1376,-3.2121,-3.1884,-3.1935,-3.3423,-3.4303,-3.4827,-3.4827,-3.4914,-3.4482,-3.2947,-3.2751,-3.2411,-3.1348,-3.123,-3.1213,-3.1295,-3.1445,-3.1521,-3.1504,-3.1839,-3.2001,-3.1929,-3.209,-3.2161,-3.2001,-3.1873,-3.1763,-3.1726,-3.1748,-3.2003,-3.242,-3.2586,-3.2781,-3.3086,-3.3178,-3.3208,-3.3226,-3.3364,-3.3393,-3.3411,-3.3549,-3.3605,-3.3605,-3.3753,-3.3935,-3.4284,-3.5459,-3.6211,-3.678,-3.7936,-3.8505,-3.8707,-3.7067,-3.6372,-3.6327,-3.8945,-3.7778,-3.6701,-3.733,-3.6881,-3.6252,-3.5609,-3.5504,-3.5504,-3.5504,-3.5504,-3.5504,-3.5504,-3.5504,-3.5504,-3.5504,-3.4861,-3.4188,-3.3529,-3.2871,-3.2213,-3.1482,-3.1467,-3.1467,-3.1467,-3.1697,-3.1423,-3.0689,-3.0925,-3.0855,-3.0674,-3.0744,-3.1065,-3.1435,-3.0148,-2.9953,-3.0462,-2.9849,-2.9968,-3.0432,-2.9819,-2.9953,-3.0313,-2.9056,-2.9184,-2.9848,-2.8697,-2.9271,-3.0526,-3.0526,-3.1023,-3.1576,-3.1576,-3.1807,-3.1993,-3.1993,-3.1604,-3.119,-3.119,-3.119,-3.1376,-3.2121,-3.2273,-3.2696,-3.4167,-3.5081,-3.5605,-3.5605,-3.5605,-3.5176,-3.3828,-3.349,-3.2906,-3.1516,-3.1252,-3.1213,-3.1295,-3.1466,-3.1542,-3.1334,-3.1674,-3.1802,-3.1517,-3.1688,-3.18,-3.18,-3.18,-3.1726,-3.1517,-3.1804,-3.2003,-3.2003,-3.2214,-3.2317,-3.2317,-3.2634,-3.2795,-3.2827,-3.3208,-3.3393,-3.3411,-3.3549,-3.3605,-3.3605,-3.3753,-3.4284,-3.4972,-3.5009,-3.6028,-3.7477,-3.7526,-3.801,-3.8707,-3.8463,-3.7853,-3.761,-3.8571,-3.7479,-3.6552,-3.6746,-3.6237,-3.5744,-3.5534,-3.5504,-3.5504,-3.5504,-3.5504,-3.5504,-3.5504,-3.507,-3.4801,-3.4801,-3.4173,-3.3514,-3.2856,-3.2617,-3.2213,-3.1482,-3.1482,-3.1482,-3.1482,-3.1727,-3.1679,-3.1453,-3.1041,-3.0744,-3.0548,-3.0183,-3.0053,-3.0178,-2.9759,-2.9699,-2.9864,-2.9669,-2.9699,-2.9909,-3.0118,-3.0073,-2.9819,-2.9415,-2.9407,-2.941,-2.8583,-2.8857,-2.9617,-2.9941,-3.1079,-3.2348,-3.2348,-3.2497,-3.26,-3.267,-3.1892,-3.1112,-3.119,-3.119,-3.1376,-3.2121,-3.3068,-3.3914,-3.4387,-3.4692,-3.5013,-3.552,-3.437,-3.3355,-3.3448,-3.2601,-3.1732,-3.128,-3.1235,-3.1329,-3.1406,-3.1521,-3.1559,-3.1462,-3.1671,-3.1746,-3.1596,-3.1765,-3.1856,-3.18,-3.1651,-3.1614,-3.1688,-3.1559,-3.1637,-3.2003,-3.1932,-3.2039,-3.2317,-3.2634,-3.2939,-3.3208,-3.3334,-3.3422,-3.3481,-3.3549,-3.3633,-3.3725,-3.4358,-3.4752,-3.51,-3.6266,-3.7019,-3.7551,-3.812,-3.8487,-3.8707,-3.8943,-3.8305,-3.7842,-3.8206,-3.7067,-3.6207,-3.6447,-3.5923,-3.5504,-3.5504,-3.5504,-3.5504,-3.5504,-3.5504,-3.5504,-3.5504,-3.5115,-3.4756,-3.4487,-3.4098,-3.3455,-3.2557,-3.2512,-3.2213,-3.1482,-3.1482,-3.1482,-3.1482,-3.1342,-3.1216,-3.099,-3.0779,-3.0498,-3.0148,-2.9759,-2.9579,-2.9549,-2.9041,-2.8966,-2.919,-2.8936,-2.8981,-2.9265,-2.9639,-2.9849,-2.9864,-2.9385,-2.944,-2.9495,-2.8396,-2.8496,-2.912,-2.9196,-3.0526,-3.1994,-3.1907,-3.2014,-3.2159,-3.2185,-3.164,-3.1112,-3.119,-3.119,-3.1461,-3.2476,-3.3626,-3.4489,-3.4489,-3.4489,-3.4556,-3.4759,-3.3643,-3.2763,-3.2949,-3.2205,-3.1551,-3.1247,-3.1274,-3.1351,-3.1479,-3.1538,-3.1521,-3.1406,-3.1521,-3.1559,-3.1445,-3.1579,-3.1617,-3.1576,-3.1538,-3.1538,-3.1559,-3.1346,-3.1368,-3.1694,-3.1545,-3.1774,-3.2293,-3.3107,-3.3755,-3.4298,-3.4298,-3.4329,-3.4382,-3.416,-3.4254,-3.4613,-3.4871,-3.5357,-3.6046,-3.7074,-3.7661,-3.801,-3.8505,-3.8707,-3.8707,-3.8782,-3.7792,-3.7223,-3.7875,-3.6641,-3.5699,-3.6327,-3.5893,-3.5504,-3.5504,-3.5504,-3.5504,-3.5504,-3.5504,-3.5504,-3.5504,-3.5459,-3.5145,-3.4442,-3.4367,-3.3769,-3.2497,-3.2437,-3.2153,-3.1482,-3.1482,-3.1452,-3.1407,-3.0821,-3.0193,-2.9594,-3.0118,-3.0058,-2.9505,-2.946,-2.9445,-2.9355,-2.815,-2.7934,-2.8472,-2.7829,-2.7949,-2.8532,-2.8577,-2.934,-3.0208,-2.9026,-2.9282,-2.995,-2.8197,-2.8238,-2.8935,-2.8448,-2.9454,-3.0729,-3.0563,-3.0717,-3.0938,-3.0979,-3.1066,-3.119,-3.119,-3.119,-3.1579,-3.3068,-3.3931,-3.4438,-3.4556,-3.4489,-3.4218,-3.3592,-3.3355,-3.3034,-3.2391,-3.233,-3.21,-3.1414,-3.1346,-3.1419,-3.1479,-3.1517,-3.1462,-3.1295,-3.1295,-3.1274,-3.123,-3.119,-3.119,-3.119,-3.1496,-3.1534,-3.119,-3.119,-3.119,-3.119,-3.1241,-3.167,-3.2479,-3.3862,-3.4977,-3.582,-3.5802,-3.5846,-3.5866,-3.5198,-3.5378,-3.6058,-3.542,-3.6101,-3.7526,-3.7551,-3.8028,-3.8707,-3.8707,-3.8707,-3.8707,-3.8428,-3.7139,-3.6251,-3.7208,-3.6179,-3.5353,-3.5714,-3.5609,-3.5504,-3.5504,-3.5504,-3.5504,-3.5504,-3.5504,-3.5504,-3.5504,-3.5026,-3.4442,-3.3769,-3.326,-3.2617,-3.1735,-3.1764,-3.1631,-3.1482,-3.1482,-3.127,-3.0746,-3.0582,-3.0193,-2.9564,-2.922,-2.8966,-2.8801,-2.8278,-2.809,-2.8075,-2.7745,-2.7715,-2.7799,-2.7634,-2.773,-2.7874,-2.8397,-2.8786,-2.9011,-2.8712,-2.8801,-2.8854,-2.791,-2.776,-2.7993,-2.8207,-2.8842,-2.9667,-3.0551,-3.1182,-3.1583,-3.1725,-3.1388,-3.1055,-3.119,-3.119,-3.1579,-3.3068,-3.3541,-3.3981,-3.5115,-3.4455,-3.3778,-3.4167,-3.2848,-3.185,-3.2222,-3.2371,-3.2179,-3.1397,-3.1884,-3.2093,-3.1547,-3.1517,-3.1462,-3.1295,-3.1295,-3.1295,-3.1274,-3.1274,-3.1274,-3.1274,-3.193,-3.1958,-3.1207,-3.119,-3.119,-3.119,-3.1749,-3.2735,-3.4059,-3.3843,-3.4479,-3.5802,-3.5846,-3.5921,-3.5964,-3.5853,-3.5978,-3.6292,-3.6725,-3.7129,-3.7551,-3.8175,-3.8524,-3.8707,-3.8707,-3.8707,-3.8707,-3.8294,-3.7113,-3.6245,-3.6752,-3.5872,-3.5148,-3.5359,-3.5359,-3.5424,-3.5504,-3.5504,-3.5504,-3.5504,-3.5504,-3.5504,-3.5504,-3.516,-3.4666,-3.3978,-3.332,-3.2677,-3.2018,-3.1631,-3.1482,-3.1482,-3.1482,-3.1061,-3.0088,-3.0088,-2.9594,-2.8652,-2.8622,-2.8427,-2.8128,-2.8068,-2.7874,-2.7625,-2.7625,-2.7625,-2.7625,-2.7625,-2.7625,-2.767,-2.7979,-2.8323,-2.8562,-2.8248,-2.8338,-2.8502,-2.785,-2.7625,-2.761,-2.7894,-2.8319,-2.8858,-2.9516,-3.0376,-3.1123,-3.1433,-3.1156,-3.0905,-3.1556,-3.1681,-3.207,-3.3575,-3.3897,-3.4134,-3.4928,-3.4455,-3.3914,-3.3981,-3.273,-3.1816,-3.2246,-3.2106,-3.1788,-3.1346,-3.1747,-3.1922,-3.1457,-3.1406,-3.1368,-3.1274,-3.1235,-3.1235,-3.1235,-3.1235,-3.1235,-3.1235,-3.1981,-3.2201,-3.1698,-3.2019,-3.2205,-3.2205,-3.2933,-3.3928,-3.5144,-3.5094,-3.5741,-3.6953,-3.6967,-3.7044,-3.7113,-3.6778,-3.6911,-3.7404,-3.7459,-3.7716,-3.8083,-3.8524,-3.8707,-3.8707,-3.8707,-3.8707,-3.8707,-3.8043,-3.7113,-3.628,-3.6438,-3.561,-3.4935,-3.5148,-3.5148,-3.5294,-3.5439,-3.5504,-3.5504,-3.5504,-3.5504,-3.5504,-3.5504,-3.5504,-3.522,-3.4517,-3.3858,-3.32,-3.2542,-3.1884,-3.1482,-3.1482,-3.1482,-3.0896,-2.9579,-2.9579,-2.8891,-2.7625,-2.8173,-2.8128,-2.764,-2.8188,-2.8113,-2.7625,-2.7625,-2.7625,-2.7625,-2.7625,-2.7625,-2.7625,-2.7625,-2.7934,-2.8368,-2.7784,-2.7949,-2.8353,-2.7769,-2.7625,-2.7625,-2.7625,-2.7929,-2.8288,-2.8288,-2.9058,-3.0044,-3.0593,-3.0742,-3.1033,-3.2174,-3.2459,-3.2814,-3.4184,-3.4489,-3.4523,-3.4641,-3.4573,-3.4303,-3.3677,-3.2865,-3.2347,-3.2466,-3.1919,-3.1504,-3.1504,-3.1577,-3.1632,-3.1482,-3.1465,-3.1477,-3.1512,-3.1529,-3.1529,-3.1529,-3.1529,-3.1529,-3.1529,-3.2222,-3.2611,-3.2611,-3.3119,-3.3457,-3.3558,-3.4083,-3.4871,-3.599,-3.6478,-3.7306,-3.8274,-3.8307,-3.8368,-3.8442,-3.7796,-3.7967,-3.8652,-3.7955,-3.8065,-3.8707,-3.8707,-3.8707,-3.8707,-3.8707,-3.8707,-3.8707,-3.7331,-3.5967,-3.4947,-3.5663,-3.5166,-3.4765,-3.4935,-3.5082,-3.5213,-3.5228,-3.5359,-3.5504,-3.5504,-3.5504,-3.5504,-3.5504,-3.5504,-3.522,-3.4517,-3.3858,-3.32,-3.2542,-3.1884,-3.1482,-3.1482,-3.1482,-3.0896,-2.9579,-2.9579,-2.8891,-2.7625,-2.7679,-2.773,-2.7625,-2.7679,-2.773,-2.7625,-2.7625,-2.7625,-2.7625,-2.7625,-2.7625,-2.7625,-2.7625,-2.7634,-2.7724,-2.7655,-2.7685,-2.7724,-2.7655,-2.7625,-2.7625,-2.7625,-2.7929,-2.8288,-2.8288,-2.8496,-2.8982,-2.9881,-3.0983,-3.2051,-3.2992,-3.3237,-3.3457,-3.4303,-3.4489,-3.4675,-3.5318,-3.4928,-3.4455,-3.4336,-3.3203,-3.2534,-3.3277,-3.2855,-3.24,-3.24,-3.24,-3.2417,-3.2315,-3.2201,-3.2398,-3.3,-3.3068,-3.3068,-3.3068,-3.3068,-3.3068,-3.3068,-3.3761,-3.415,-3.415,-3.3677,-3.3694,-3.432,-3.3829,-3.4631,-3.6724,-3.6197,-3.6754,-3.8225,-3.8336,-3.8401,-3.8415,-3.8449,-3.8548,-3.8689,-3.8579,-3.8597,-3.8707,-3.8707,-3.8707,-3.8707,-3.8707,-3.8707,-3.8707,-3.7244,-3.6025,-3.5078,-3.5438,-3.4971,-3.4616,-3.475,-3.4883,-3.4949,-3.5016,-3.5213,-3.5359,-3.5359,-3.5439,-3.5504,-3.5504,-3.5504,-3.537,-3.5055,-3.4068,-3.3365,-3.3051,-3.2078,-3.1482,-3.1482,-3.1165,-3.0522,-2.9579,-2.922,-2.8547,-2.7625,-2.7625,-2.7625,-2.7625,-2.7625,-2.7625,-2.7625,-2.7625,-2.7625,-2.7625,-2.7625,-2.7625,-2.7625,-2.7625,-2.7625,-2.7625,-2.7625,-2.7625,-2.7625,-2.7625,-2.7625,-2.7625,-2.7625,-2.776,-2.7929,-2.7929,-2.8591,-2.9473,-3.0068,-3.1176,-3.2277,-3.3077,-3.3364,-3.3491,-3.3829,-3.3914,-3.4117,-3.4861,-3.4421,-3.4032,-3.4421,-3.3271,-3.2584,-3.3471,-3.2644,-3.2054,-3.248,-3.2548,-3.2525,-3.2388,-3.2703,-3.3034,-3.3372,-3.3406,-3.3406,-3.3406,-3.3406,-3.3406,-3.3406,-3.41,-3.4489,-3.4489,-3.4573,-3.4759,-3.5098,-3.4776,-3.5368,-3.69,-3.6549,-3.7038,-3.8241,-3.8322,-3.8401,-3.8446,-3.8559,-3.864,-3.8707,-3.8707,-3.8707,-3.8707,-3.8707,-3.8707,-3.8707,-3.8707,-3.8707,-3.8707,-3.6852,-3.5938,-3.514,-3.514,-3.4733,-3.4481,-3.4631,-3.4698,-3.4765,-3.4802,-3.5082,-3.5213,-3.5213,-3.5359,-3.5504,-3.5504,-3.5355,-3.5265,-3.5265,-3.4008,-3.3335,-3.3484,-3.2243,-3.1482,-3.1482,-3.1016,-3.0432,-2.9804,-2.9146,-2.8487,-2.7814,-2.7649,-2.7625,-2.7625,-2.7625,-2.7625,-2.7625,-2.7625,-2.7625,-2.7625,-2.7625,-2.7625,-2.7625,-2.7625,-2.7625,-2.7625,-2.7625,-2.7625,-2.7625,-2.7625,-2.7625,-2.7625,-2.7625,-2.7625,-2.7625,-2.7625,-2.8543,-2.9746,-3.0316,-3.1144,-3.211,-3.3009,-3.3279,-3.3381,-3.3406,-3.3541,-3.3829,-3.437,-3.4184,-3.4083,-3.4658,-3.3677,-3.3025,-3.3743,-3.2706,-3.2043,-3.2678,-3.2757,-3.2768,-3.2822,-3.3305,-3.3728,-3.3897,-3.3914,-3.3914,-3.3914,-3.3914,-3.3914,-3.3914,-3.4455,-3.4759,-3.4759,-3.5318,-3.5622,-3.5622,-3.5622,-3.5985,-3.6741,-3.6741,-3.717,-3.7984,-3.8104,-3.8252,-3.8364,-3.8478,-3.8609,-3.8658,-3.8707,-3.8658,-3.8658,-3.8707,-3.8707,-3.8707,-3.8707,-3.8707,-3.8707,-3.5572,-3.4951,-3.4486,-3.4486,-3.4443,-3.4414,-3.4414,-3.4563,-3.4698,-3.4698,-3.503,-3.5213,-3.5213,-3.5359,-3.5504,-3.5504,-3.4921,-3.4547,-3.4547,-3.332,-3.2856,-3.3469,-3.2243,-3.1482,-3.1482,-3.1422,-3.112,-3.0432,-2.9804,-2.916,-2.8502,-2.7874,-2.7625,-2.7625,-2.7625,-2.7625,-2.7625,-2.7625,-2.7625,-2.7625,-2.7625,-2.7625,-2.7625,-2.7625,-2.7625,-2.7625,-2.7625,-2.7625,-2.7625,-2.7625,-2.7625,-2.7625,-2.7625,-2.7625,-2.7625,-2.7625,-2.7978,-2.8715,-2.9974,-3.0755,-3.1506,-3.2957,-3.3287,-3.3313,-3.3381,-3.3931,-3.4421,-3.4472,-3.5013,-3.547,-3.552,-3.4878,-3.4397,-3.4593,-3.3947,-3.3437,-3.3505,-3.3505,-3.3718,-3.4252,-3.4387,-3.4692,-3.5385,-3.5453,-3.5453,-3.5453,-3.5453,-3.5453,-3.5453,-3.5504,-3.5537,-3.5537,-3.5588,-3.5622,-3.5622,-3.5622,-3.5827,-3.6326,-3.6326,-3.6574,-3.7017,-3.756,-3.7861,-3.7895,-3.8433,-3.8609,-3.851,-3.8658,-3.8609,-3.851,-3.8658,-3.8707,-3.8707,-3.8707,-3.8707,-3.8707,-3.4626,-3.4491,-3.4414,-3.4414,-3.4414,-3.4414,-3.4414,-3.4481,-3.4481,-3.4481,-3.4817,-3.5001,-3.5001,-3.4842,-3.4718,-3.4718,-3.3981,-3.3758,-3.4301,-3.3123,-3.2333,-3.2287,-3.1735,-3.1482,-3.1482,-3.1106,-3.0776,-3.0507,-2.9879,-2.925,-2.8592,-2.8338,-2.7979,-2.7625,-2.7625,-2.7625,-2.7625,-2.7625,-2.7625,-2.7625,-2.7625,-2.7625,-2.7625,-2.7625,-2.7625,-2.7625,-2.7625,-2.7625,-2.7625,-2.7625,-2.7625,-2.7625,-2.7625,-2.7625,-2.7625,-2.7625,-2.771,-2.8137,-2.9234,-3.0325,-3.1319,-3.2243,-3.2538,-3.247,-3.2097,-3.2594,-3.3254,-3.3728,-3.4049,-3.4387,-3.4827,-3.432,-3.4007,-3.461,-3.4024,-3.366,-3.4202,-3.4228,-3.4227,-3.4455,-3.4912,-3.5301,-3.5588,-3.5622,-3.5622,-3.5622,-3.5622,-3.5622,-3.5622,-3.5622,-3.5622,-3.5622,-3.5622,-3.5622,-3.5622,-3.5622,-3.5827,-3.6301,-3.6301,-3.6533,-3.69,-3.7395,-3.765,-3.7756,-3.8285,-3.8528,-3.851,-3.864,-3.8658,-3.8609,-3.8658,-3.8707,-3.8707,-3.8707,-3.8707,-3.8707,-3.3515,-3.3607,-3.3687,-3.3687,-3.3894,-3.4045,-3.4045,-3.4264,-3.4414,-3.4414,-3.4683,-3.4728,-3.4574,-3.4469,-3.4273,-3.3858,-3.3543,-3.3362,-3.3517,-3.257,-3.1842,-3.1497,-3.1482,-3.1482,-3.1482,-3.1061,-3.0821,-3.0821,-3.0178,-2.9549,-2.8906,-2.8697,-2.8233,-2.7625,-2.7625,-2.7625,-2.7625,-2.7625,-2.7625,-2.7625,-2.7625,-2.7625,-2.7625,-2.7625,-2.7625,-2.7625,-2.7625,-2.7625,-2.7625,-2.7625,-2.7625,-2.7625,-2.7625,-2.7625,-2.7625,-2.7625,-2.7625,-2.776,-2.8606,-2.9812,-3.0965,-3.1508,-3.1875,-3.1991,-3.1607,-3.229,-3.3119,-3.3643,-3.3931,-3.4252,-3.4759,-3.4438,-3.4184,-3.4601,-3.4329,-3.4244,-3.4601,-3.4752,-3.4844,-3.4844,-3.5301,-3.5622,-3.5622,-3.5622,-3.5622,-3.5622,-3.5622,-3.5622,-3.5622,-3.5622,-3.5622,-3.5622,-3.5622,-3.5622,-3.5622,-3.5622,-3.5739,-3.6088,-3.6088,-3.6241,-3.6498,-3.696,-3.7208,-3.7339,-3.7791,-3.8117,-3.8267,-3.835,-3.8483,-3.8627,-3.8627,-3.8658,-3.8707,-3.8707,-3.8707,-3.8707,-3.2074,-3.2074,-3.2074,-3.2074,-3.272,-3.3213,-3.3213,-3.3894,-3.4414,-3.4414,-3.4563,-3.4449,-3.3776,-3.4405,-3.4389,-3.314,-3.3564,-3.3402,-3.2075,-3.1575,-3.1351,-3.1482,-3.1482,-3.1482,-3.1482,-3.1482,-3.1482,-3.1482,-3.0851,-3.0193,-2.9564,-2.8921,-2.8233,-2.7625,-2.7625,-2.7625,-2.7625,-2.7625,-2.7625,-2.7625,-2.7625,-2.7625,-2.7625,-2.7625,-2.7625,-2.7625,-2.7625,-2.7625,-2.7625,-2.7625,-2.7625,-2.7625,-2.7625,-2.7625,-2.7625,-2.7625,-2.7625,-2.771,-2.8174,-2.9248,-3.0334,-3.0792,-3.1441,-3.2077,-3.2232,-3.3423,-3.4489,-3.4489,-3.5098,-3.5622,-3.5622,-3.5622,-3.5368,-3.4624,-3.5131,-3.5351,-3.4607,-3.5148,-3.5622,-3.5622,-3.5622,-3.5622,-3.5622,-3.5622,-3.5622,-3.5622,-3.5622,-3.5622,-3.5622,-3.5622,-3.5622,-3.5622,-3.5622,-3.5622,-3.5622,-3.5622,-3.5622,-3.5622,-3.5622,-3.5622,-3.5622,-3.6139,-3.6374,-3.6416,-3.696,-3.7395,-3.7703,-3.7774,-3.805,-3.8415,-3.8478,-3.859,-3.8707,-3.8707,-3.8707,-3.8707,-3.1267,-3.1709,-3.2074,-3.2074,-3.272,-3.3213,-3.3213,-3.3894,-3.4414,-3.4414,-3.4563,-3.4624,-3.442,-3.3841,-3.3416,-3.346,-3.2752,-3.2119,-3.1863,-3.1974,-3.1783,-3.1366,-3.1467,-3.1482,-3.1482,-3.1482,-3.1482,-3.1482,-3.133,-3.0657,-2.9579,-2.9385,-2.8667,-2.7625,-2.7625,-2.7625,-2.7625,-2.7625,-2.7625,-2.7625,-2.7625,-2.7625,-2.7625,-2.7625,-2.7625,-2.7625,-2.7625,-2.7625,-2.7625,-2.7625,-2.7625,-2.7625,-2.7625,-2.7625,-2.7625,-2.7625,-2.7625,-2.7816,-2.8771,-2.9574,-3.0194,-3.025,-3.1539,-3.2672,-3.2227,-3.3381,-3.4489,-3.4489,-3.5098,-3.5622,-3.5622,-3.5622,-3.5537,-3.5318,-3.547,-3.5537,-3.5318,-3.547,-3.5622,-3.5622,-3.5622,-3.5622,-3.5622,-3.5622,-3.5622,-3.5622,-3.5622,-3.5622,-3.5622,-3.5622,-3.5622,-3.5622,-3.5622,-3.5622,-3.5622,-3.5622,-3.5622,-3.5622,-3.5622,-3.5622,-3.5622,-3.6131,-3.6326,-3.6367,-3.6843,-3.7114,-3.7228,-3.734,-3.7632,-3.8065,-3.8032,-3.8267,-3.8707,-3.859,-3.8609,-3.8707,-3.0482,-3.0859,-3.122,-3.122,-3.1783,-3.242,-3.272,-3.3451,-3.3945,-3.3999,-3.4185,-3.4047,-3.3471,-3.2961,-3.2698,-3.28,-3.2024,-3.1689,-3.2138,-3.1942,-3.1664,-3.1307,-3.1409,-3.1482,-3.1482,-3.1482,-3.1482,-3.1482,-3.1482,-3.0866,-2.9579,-2.9579,-2.8861,-2.7625,-2.7625,-2.7625,-2.7625,-2.7625,-2.7625,-2.7625,-2.7625,-2.7625,-2.7625,-2.7625,-2.7625,-2.7625,-2.7625,-2.7625,-2.7625,-2.7625,-2.7625,-2.7625,-2.7625,-2.7625,-2.7625,-2.7625,-2.7625,-2.781,-2.8779,-2.9785,-3.0561,-3.0443,-3.2011,-3.3443,-3.3085,-3.398,-3.4945,-3.4945,-3.5301,-3.5622,-3.5622,-3.5622,-3.5622,-3.5622,-3.5622,-3.5622,-3.5622,-3.5622,-3.5622,-3.5622,-3.5622,-3.5622,-3.5622,-3.5622,-3.5622,-3.5622,-3.5622,-3.5622,-3.5622,-3.5622,-3.5622,-3.5622,-3.5622,-3.5622,-3.5622,-3.5622,-3.5622,-3.5622,-3.5622,-3.5622,-3.5622,-3.5871,-3.6045,-3.6045,-3.6333,-3.6563,-3.6741,-3.6821,-3.7097,-3.7542,-3.7506,-3.7756,-3.815,-3.8065,-3.8117,-3.8252,-2.9792,-2.9792,-2.9792,-2.9792,-3.0406,-3.1193,-3.2001,-3.2678,-3.3237,-3.3477,-3.347,-3.2991,-3.1743,-3.215,-3.2295,-3.1743,-3.1642,-3.1893,-3.2543,-3.1705,-3.1132,-3.1278,-3.1409,-3.1482,-3.1482,-3.1482,-3.1482,-3.1482,-3.1482,-3.0866,-2.9579,-2.9579,-2.8861,-2.7625,-2.7625,-2.7625,-2.7625,-2.7625,-2.7625,-2.7625,-2.7625,-2.7625,-2.7625,-2.7625,-2.7625,-2.7625,-2.7625,-2.7625,-2.7625,-2.7625,-2.7625,-2.7625,-2.7625,-2.7625,-2.7625,-2.7625,-2.7625,-2.7775,-2.8412,-2.9843,-3.1128,-3.1191,-3.272,-3.4236,-3.4286,-3.4992,-3.5577,-3.5622,-3.5622,-3.5622,-3.5622,-3.5622,-3.5622,-3.5622,-3.5622,-3.5622,-3.5622,-3.5622,-3.5622,-3.5622,-3.5622,-3.5622,-3.5622,-3.5622,-3.5622,-3.5622,-3.5622,-3.5622,-3.5622,-3.5622,-3.5622,-3.5622,-3.5622,-3.5622,-3.5622,-3.5622,-3.5622,-3.5622,-3.5622,-3.5622,-3.5622,-3.5622,-3.5622,-3.5622,-3.5622,-3.5827,-3.6259,-3.6259,-3.6516,-3.6943,-3.6943,-3.7097,-3.7305,-3.7268,-3.736,-3.7542,-2.9792,-2.9792,-2.9792,-2.9792,-3.0406,-3.1193,-3.2001,-3.2318,-3.2741,-3.3405,-3.347,-3.3166,-3.2382,-3.2425,-3.2658,-3.3021,-3.26,-3.2198,-3.2021,-3.1455,-3.1132,-3.1278,-3.1409,-3.1482,-3.1482,-3.1482,-3.1482,-3.1482,-3.1482,-3.0866,-2.9579,-2.9579,-2.8861,-2.7625,-2.7625,-2.7625,-2.7625,-2.7625,-2.7625,-2.7625,-2.7625,-2.7625,-2.7625,-2.7625,-2.7625,-2.7625,-2.7625,-2.7625,-2.7625,-2.7625,-2.7625,-2.7625,-2.7625,-2.7625,-2.7625,-2.7625,-2.7625,-2.7775,-2.8412,-2.955,-3.0803,-3.1741,-3.316,-3.431,-3.4242,-3.4891,-3.552,-3.5577,-3.5622,-3.5622,-3.5622,-3.5622,-3.5622,-3.5622,-3.5622,-3.5622,-3.5622,-3.5622,-3.5622,-3.5622,-3.5622,-3.5622,-3.5622,-3.5622,-3.5622,-3.5622,-3.5622,-3.5622,-3.5622,-3.5622,-3.5622,-3.5622,-3.5622,-3.5622,-3.5622,-3.5622,-3.5622,-3.5622,-3.5622,-3.5622,-3.5622,-3.5622,-3.5622,-3.5622,-3.5622,-3.5667,-3.5739,-3.5739,-3.6071,-3.6522,-3.6474,-3.6781,-3.721,-3.7097,-3.7155,-3.736,-2.9792,-2.9792,-2.9792,-2.9792,-3.0139,-3.0633,-3.1415,-3.1874,-3.2361,-3.2858,-3.2984,-3.2774,-3.2121,-3.1772,-3.1845,-3.2483,-3.2237,-3.1888,-3.1678,-3.1247,-3.1014,-3.1058,-3.1292,-3.1409,-3.1409,-3.1467,-3.1482,-3.1482,-3.1482,-3.1016,-3.0028,-3.0028,-2.9325,-2.8068,-2.8068,-2.7874,-2.7625,-2.7625,-2.7625,-2.7625,-2.7625,-2.7625,-2.7625,-2.7625,-2.7625,-2.7625,-2.7625,-2.7625,-2.7625,-2.7625,-2.7625,-2.7625,-2.7625,-2.7625,-2.7634,-2.7964,-2.7829,-2.791,-2.916,-2.997,-3.0722,-3.1992,-3.3291,-3.4382,-3.4651,-3.5143,-3.5549,-3.5577,-3.5622,-3.5622,-3.5622,-3.5622,-3.5622,-3.5622,-3.5622,-3.5622,-3.5622,-3.5622,-3.5622,-3.5622,-3.5622,-3.5622,-3.5622,-3.5622,-3.5622,-3.5622,-3.5622,-3.5622,-3.5622,-3.5622,-3.5622,-3.5622,-3.5622,-3.5622,-3.5622,-3.5622,-3.5622,-3.5622,-3.5622,-3.5622,-3.5622,-3.5622,-3.5622,-3.5622,-3.5622,-3.5622,-3.5622,-3.5622,-3.5783,-3.6011,-3.6002,-3.6199,-3.6539,-3.6457,-3.6684,-3.7041,-2.9792,-2.9792,-2.9792,-2.9792,-2.9792,-3.0075,-3.0833,-3.1409,-3.182,-3.2096,-3.2141,-3.1854,-3.1194,-3.0787,-3.0765,-3.1123,-3.1391,-3.1482,-3.1366,-3.0993,-3.0821,-3.0881,-3.1176,-3.1278,-3.1351,-3.1409,-3.1482,-3.1482,-3.1482,-3.118,-3.0507,-3.0507,-2.9879,-2.8771,-2.8771,-2.8442,-2.7955,-2.785,-2.779,-2.779,-2.767,-2.7625,-2.7625,-2.7625,-2.7625,-2.7625,-2.7625,-2.7625,-2.7625,-2.7625,-2.7625,-2.7625,-2.7625,-2.7625,-2.7679,-2.8263,-2.8023,-2.7964,-2.9699,-3.0213,-3.0591,-3.1959,-3.3119,-3.4185,-3.5024,-3.5412,-3.5577,-3.5577,-3.5622,-3.5622,-3.5622,-3.5622,-3.5622,-3.5622,-3.5622,-3.5622,-3.5622,-3.5622,-3.5622,-3.5622,-3.5622,-3.5622,-3.5622,-3.574,-3.5757,-3.5639,-3.574,-3.5757,-3.5622,-3.5622,-3.5622,-3.5622,-3.5622,-3.5622,-3.5622,-3.5622,-3.5622,-3.5622,-3.5622,-3.5622,-3.5622,-3.5622,-3.5622,-3.5622,-3.5622,-3.5622,-3.5622,-3.5622,-3.5622,-3.5622,-3.5622,-3.5667,-3.5773,-3.5773,-3.6114,-3.6603,-2.9792,-2.9792,-2.9792,-2.9792,-2.9792,-3.0075,-3.0833,-3.0564,-3.0527,-3.1205,-3.0883,-3.035,-2.9654,-3.0118,-3.0369,-2.9916,-3.0869,-3.1355,-3.0922,-3.082,-3.094,-3.1234,-3.1292,-3.1351,-3.1467,-3.1482,-3.1482,-3.1482,-3.1482,-3.118,-3.0507,-3.0507,-3.0133,-2.9445,-2.9445,-2.94,-2.9265,-2.8712,-2.8457,-2.8412,-2.7814,-2.7625,-2.7625,-2.7625,-2.7625,-2.7625,-2.7625,-2.7625,-2.7625,-2.7625,-2.7625,-2.7625,-2.7625,-2.7625,-2.764,-2.7679,-2.7685,-2.7754,-2.8622,-2.9259,-3.0053,-3.1374,-3.2351,-3.3319,-3.4529,-3.5135,-3.552,-3.5577,-3.5622,-3.5622,-3.5622,-3.5622,-3.5622,-3.5622,-3.5622,-3.5622,-3.5622,-3.5622,-3.5622,-3.5622,-3.5622,-3.5622,-3.5622,-3.6231,-3.6349,-3.5673,-3.6231,-3.6332,-3.5656,-3.5622,-3.5622,-3.5622,-3.5622,-3.5622,-3.5622,-3.5622,-3.5622,-3.5622,-3.5622,-3.5622,-3.5622,-3.5622,-3.5622,-3.5622,-3.5622,-3.5622,-3.5622,-3.5622,-3.5622,-3.5622,-3.5622,-3.5622,-3.5622,-3.5773,-3.5932,-3.6131,-2.9792,-2.9792,-2.9792,-2.9792,-2.9792,-2.9934,-3.0203,-3.0413,-3.0498,-3.0546,-3.0411,-3.0079,-2.9469,-2.9767,-2.9918,-2.9637,-3.0448,-3.0933,-3.0717,-3.0702,-3.0821,-3.0999,-3.1117,-3.1234,-3.1409,-3.1467,-3.1482,-3.1482,-3.1482,-3.1375,-3.1076,-3.1076,-3.0731,-3.0103,-3.0103,-2.9909,-2.9564,-2.9265,-2.8936,-2.8607,-2.8667,-2.8248,-2.767,-2.7993,-2.7904,-2.7625,-2.7625,-2.7625,-2.7625,-2.7625,-2.7829,-2.8143,-2.8143,-2.8397,-2.8697,-2.8697,-2.8427,-2.8293,-2.8966,-2.9086,-2.9372,-3.0815,-3.1651,-3.2426,-3.3483,-3.4382,-3.5131,-3.5532,-3.5622,-3.5622,-3.5622,-3.5622,-3.5622,-3.5622,-3.5622,-3.5622,-3.5622,-3.5622,-3.5622,-3.5622,-3.5622,-3.5622,-3.5622,-3.5926,-3.5994,-3.5639,-3.5943,-3.5977,-3.5639,-3.5622,-3.5622,-3.5622,-3.5622,-3.5622,-3.5622,-3.5622,-3.5622,-3.5622,-3.5622,-3.5622,-3.5622,-3.5622,-3.5622,-3.5622,-3.5622,-3.5622,-3.5622,-3.5622,-3.5622,-3.5622,-3.5622,-3.5622,-3.5622,-3.5773,-3.5888,-3.6019]}]]